Wetterdaten: Samstag, 16.03.2019
Datum Zeit Temp. A. Feuchte A. Luftdruck Regen Wind Richtung Richtung Sonnenschein ET UV Solar Taupunkt Windchill Windböen
16.03.2019 00:00 8,4 °C 77 % 1013,7 hPa 0,0 mm 19,3 km/h (3 Bft) W-SW 247 ° 0 min 0,000 mm 0,0 UV-I 0 W/m² 4,6 °C 5,4 °C 24,1 km/h (4 Bft)
16.03.2019 00:01 8,4 °C 77 % 1013,7 hPa 0,0 mm 21,1 km/h (4 Bft) W 259 ° 0 min 0,000 mm 0,0 UV-I 0 W/m² 4,6 °C 5,2 °C 32,2 km/h (5 Bft)
16.03.2019 00:02 8,4 °C 77 % 1013,7 hPa 0,0 mm 29,0 km/h (5 Bft) W-NW 298 ° 0 min 0,000 mm 0,0 UV-I 0 W/m² 4,6 °C 4,6 °C 40,2 km/h (6 Bft)
16.03.2019 00:03 8,4 °C 77 % 1013,7 hPa 0,0 mm 17,8 km/h (3 Bft) W-SW 252 ° 0 min 0,000 mm 0,0 UV-I 0 W/m² 4,6 °C 5,6 °C 25,7 km/h (4 Bft)
16.03.2019 00:04 8,4 °C 77 % 1013,6 hPa 0,0 mm 17,1 km/h (3 Bft) W 261 ° 0 min 0,000 mm 0,0 UV-I 0 W/m² 4,6 °C 5,7 °C 29,0 km/h (5 Bft)
16.03.2019 00:05 8,4 °C 77 % 1013,8 hPa 0,0 mm 26,6 km/h (4 Bft) W 272 ° 0 min 0,000 mm 0,0 UV-I 0 W/m² 4,6 °C 4,8 °C 45,1 km/h (6 Bft)
16.03.2019 00:06 8,4 °C 77 % 1013,7 hPa 0,0 mm 21,5 km/h (4 Bft) W-SW 250 ° 0 min 0,000 mm 0,0 UV-I 0 W/m² 4,6 °C 5,2 °C 40,2 km/h (6 Bft)
16.03.2019 00:07 8,4 °C 77 % 1013,7 hPa 0,0 mm 20,7 km/h (4 Bft) W 275 ° 0 min 0,000 mm 0,0 UV-I 0 W/m² 4,6 °C 5,3 °C 30,6 km/h (5 Bft)
16.03.2019 00:08 8,4 °C 78 % 1013,6 hPa 0,0 mm 14,7 km/h (3 Bft) W 265 ° 0 min 0,000 mm 0,0 UV-I 0 W/m² 4,8 °C 6,0 °C 25,7 km/h (4 Bft)
16.03.2019 00:09 8,4 °C 78 % 1013,6 hPa 0,0 mm 14,9 km/h (3 Bft) W 276 ° 0 min 0,000 mm 0,0 UV-I 0 W/m² 4,8 °C 6,0 °C 22,5 km/h (4 Bft)
16.03.2019 00:10 8,4 °C 78 % 1013,6 hPa 0,0 mm 28,6 km/h (4 Bft) W 265 ° 0 min 0,000 mm 0,0 UV-I 0 W/m² 4,8 °C 4,6 °C 41,8 km/h (6 Bft)
16.03.2019 00:11 8,4 °C 77 % 1013,7 hPa 0,0 mm 20,9 km/h (4 Bft) NW 318 ° 0 min 0,000 mm 0,0 UV-I 0 W/m² 4,6 °C 5,3 °C 29,0 km/h (5 Bft)
16.03.2019 00:12 8,4 °C 78 % 1013,7 hPa 0,0 mm 19,7 km/h (3 Bft) N-NW 328 ° 0 min 0,000 mm 0,0 UV-I 0 W/m² 4,8 °C 5,4 °C 27,4 km/h (4 Bft)
16.03.2019 00:13 8,4 °C 78 % 1013,7 hPa 0,0 mm 21,9 km/h (4 Bft) W-NW 299 ° 0 min 0,000 mm 0,0 UV-I 0 W/m² 4,8 °C 5,2 °C 29,0 km/h (5 Bft)
16.03.2019 00:14 8,4 °C 78 % 1013,9 hPa 0,0 mm 26,4 km/h (4 Bft) W 271 ° 0 min 0,000 mm 0,0 UV-I 0 W/m² 4,8 °C 4,8 °C 40,2 km/h (6 Bft)
16.03.2019 00:15 8,4 °C 78 % 1013,9 hPa 0,0 mm 30,6 km/h (5 Bft) W 276 ° 0 min 0,000 mm 0,0 UV-I 0 W/m² 4,8 °C 4,4 °C 38,6 km/h (5 Bft)
16.03.2019 00:16 8,4 °C 78 % 1013,8 hPa 0,0 mm 24,0 km/h (4 Bft) W-SW 245 ° 0 min 0,000 mm 0,0 UV-I 0 W/m² 4,8 °C 5,0 °C 32,2 km/h (5 Bft)
16.03.2019 00:17 8,4 °C 78 % 1013,8 hPa 0,0 mm 15,4 km/h (3 Bft) W-SW 246 ° 0 min 0,000 mm 0,0 UV-I 0 W/m² 4,8 °C 5,9 °C 25,7 km/h (4 Bft)
16.03.2019 00:18 8,4 °C 78 % 1013,8 hPa 0,0 mm 19,8 km/h (3 Bft) SW 235 ° 0 min 0,000 mm 0,0 UV-I 0 W/m² 4,8 °C 5,4 °C 30,6 km/h (5 Bft)
16.03.2019 00:19 8,3 °C 78 % 1013,9 hPa 0,0 mm 19,0 km/h (3 Bft) W-NW 288 ° 0 min 0,000 mm 0,0 UV-I 0 W/m² 4,7 °C 5,3 °C 29,0 km/h (5 Bft)
16.03.2019 00:20 8,3 °C 78 % 1013,7 hPa 0,0 mm 18,3 km/h (3 Bft) W-NW 288 ° 0 min 0,000 mm 0,0 UV-I 0 W/m² 4,7 °C 5,4 °C 25,7 km/h (4 Bft)
16.03.2019 00:21 8,3 °C 78 % 1013,7 hPa 0,0 mm 22,8 km/h (4 Bft) W 281 ° 0 min 0,000 mm 0,0 UV-I 0 W/m² 4,7 °C 5,0 °C 38,6 km/h (5 Bft)
16.03.2019 00:22 8,3 °C 78 % 1013,7 hPa 0,0 mm 19,1 km/h (3 Bft) W 281 ° 0 min 0,000 mm 0,0 UV-I 0 W/m² 4,7 °C 5,3 °C 30,6 km/h (5 Bft)
16.03.2019 00:23 8,3 °C 78 % 1013,7 hPa 0,0 mm 22,0 km/h (4 Bft) W 273 ° 0 min 0,000 mm 0,0 UV-I 0 W/m² 4,7 °C 5,0 °C 32,2 km/h (5 Bft)
16.03.2019 00:24 8,3 °C 78 % 1013,8 hPa 0,0 mm 32,3 km/h (5 Bft) W-SW 239 ° 0 min 0,000 mm 0,0 UV-I 0 W/m² 4,7 °C 4,2 °C 46,7 km/h (6 Bft)
16.03.2019 00:25 8,3 °C 78 % 1013,7 hPa 0,0 mm 29,0 km/h (5 Bft) W-SW 249 ° 0 min 0,000 mm 0,0 UV-I 0 W/m² 4,7 °C 4,4 °C 45,1 km/h (6 Bft)
16.03.2019 00:26 8,3 °C 78 % 1013,7 hPa 0,0 mm 22,7 km/h (4 Bft) W 259 ° 0 min 0,000 mm 0,0 UV-I 0 W/m² 4,7 °C 5,0 °C 32,2 km/h (5 Bft)
16.03.2019 00:27 8,4 °C 78 % 1013,7 hPa 0,0 mm 21,3 km/h (4 Bft) SW 231 ° 0 min 0,000 mm 0,0 UV-I 0 W/m² 4,8 °C 5,2 °C 32,2 km/h (5 Bft)
16.03.2019 00:28 8,4 °C 78 % 1013,9 hPa 0,0 mm 22,5 km/h (4 Bft) W 261 ° 0 min 0,000 mm 0,0 UV-I 0 W/m² 4,8 °C 5,1 °C 33,8 km/h (5 Bft)
16.03.2019 00:29 8,4 °C 78 % 1013,9 hPa 0,0 mm 28,2 km/h (4 Bft) W-SW 249 ° 0 min 0,000 mm 0,0 UV-I 0 W/m² 4,8 °C 4,6 °C 45,1 km/h (6 Bft)
16.03.2019 00:30 8,3 °C 78 % 1013,9 hPa 0,0 mm 21,9 km/h (4 Bft) W-SW 248 ° 0 min 0,000 mm 0,0 UV-I 0 W/m² 4,7 °C 5,0 °C 29,0 km/h (5 Bft)
16.03.2019 00:31 8,3 °C 78 % 1013,9 hPa 0,0 mm 14,8 km/h (3 Bft) W-NW 294 ° 0 min 0,000 mm 0,0 UV-I 0 W/m² 4,7 °C 5,8 °C 19,3 km/h (3 Bft)
16.03.2019 00:32 8,3 °C 78 % 1013,9 hPa 0,0 mm 29,8 km/h (5 Bft) W 265 ° 0 min 0,000 mm 0,0 UV-I 0 W/m² 4,7 °C 4,4 °C 56,3 km/h (7 Bft)
16.03.2019 00:33 8,3 °C 78 % 1013,9 hPa 0,0 mm 21,2 km/h (4 Bft) W-NW 286 ° 0 min 0,000 mm 0,0 UV-I 0 W/m² 4,7 °C 5,1 °C 32,2 km/h (5 Bft)
16.03.2019 00:34 8,3 °C 78 % 1013,9 hPa 0,0 mm 24,5 km/h (4 Bft) W 265 ° 0 min 0,000 mm 0,0 UV-I 0 W/m² 4,7 °C 4,8 °C 41,8 km/h (6 Bft)
16.03.2019 00:35 8,3 °C 78 % 1013,8 hPa 0,0 mm 25,7 km/h (4 Bft) S-SW 213 ° 0 min 0,000 mm 0,0 UV-I 0 W/m² 4,7 °C 4,7 °C 48,3 km/h (6 Bft)
16.03.2019 00:36 8,3 °C 78 % 1013,8 hPa 0,0 mm 24,4 km/h (4 Bft) W-SW 242 ° 0 min 0,000 mm 0,0 UV-I 0 W/m² 4,7 °C 4,8 °C 37,0 km/h (5 Bft)
16.03.2019 00:37 8,3 °C 78 % 1013,9 hPa 0,0 mm 23,4 km/h (4 Bft) W 271 ° 0 min 0,000 mm 0,0 UV-I 0 W/m² 4,7 °C 4,9 °C 30,6 km/h (5 Bft)
16.03.2019 00:38 8,3 °C 78 % 1013,6 hPa 0,0 mm 21,7 km/h (4 Bft) NW 313 ° 0 min 0,000 mm 0,0 UV-I 0 W/m² 4,7 °C 5,1 °C 32,2 km/h (5 Bft)
16.03.2019 00:39 8,3 °C 78 % 1013,6 hPa 0,0 mm 25,3 km/h (4 Bft) W 261 ° 0 min 0,000 mm 0,0 UV-I 0 W/m² 4,7 °C 4,7 °C 35,4 km/h (5 Bft)
16.03.2019 00:40 8,3 °C 78 % 1013,6 hPa 0,0 mm 22,9 km/h (4 Bft) W 273 ° 0 min 0,000 mm 0,0 UV-I 0 W/m² 4,7 °C 4,9 °C 29,0 km/h (5 Bft)
16.03.2019 00:41 8,3 °C 78 % 1013,7 hPa 0,0 mm 19,8 km/h (3 Bft) W 265 ° 0 min 0,000 mm 0,0 UV-I 0 W/m² 4,7 °C 5,3 °C 35,4 km/h (5 Bft)
16.03.2019 00:42 8,3 °C 78 % 1013,7 hPa 0,0 mm 17,5 km/h (3 Bft) W 269 ° 0 min 0,000 mm 0,0 UV-I 0 W/m² 4,7 °C 5,5 °C 24,1 km/h (4 Bft)
16.03.2019 00:43 8,3 °C 78 % 1013,6 hPa 0,0 mm 23,2 km/h (4 Bft) W 274 ° 0 min 0,000 mm 0,0 UV-I 0 W/m² 4,7 °C 4,9 °C 40,2 km/h (6 Bft)
16.03.2019 00:44 8,3 °C 78 % 1013,7 hPa 0,0 mm 24,7 km/h (4 Bft) NW 311 ° 0 min 0,000 mm 0,0 UV-I 0 W/m² 4,7 °C 4,8 °C 41,8 km/h (6 Bft)
16.03.2019 00:45 8,3 °C 78 % 1013,6 hPa 0,0 mm 18,2 km/h (3 Bft) SW 220 ° 0 min 0,000 mm 0,0 UV-I 0 W/m² 4,7 °C 5,4 °C 24,1 km/h (4 Bft)
16.03.2019 00:46 8,3 °C 77 % 1013,6 hPa 0,0 mm 20,8 km/h (4 Bft) W 273 ° 0 min 0,000 mm 0,0 UV-I 0 W/m² 4,5 °C 5,1 °C 29,0 km/h (5 Bft)
16.03.2019 00:47 8,3 °C 78 % 1013,6 hPa 0,0 mm 18,0 km/h (3 Bft) W 280 ° 0 min 0,000 mm 0,0 UV-I 0 W/m² 4,7 °C 5,4 °C 29,0 km/h (5 Bft)
16.03.2019 00:48 8,3 °C 78 % 1013,6 hPa 0,0 mm 19,5 km/h (3 Bft) W-SW 251 ° 0 min 0,000 mm 0,0 UV-I 0 W/m² 4,7 °C 5,3 °C 29,0 km/h (5 Bft)
16.03.2019 00:49 8,3 °C 78 % 1013,6 hPa 0,0 mm 17,0 km/h (3 Bft) W 259 ° 0 min 0,000 mm 0,0 UV-I 0 W/m² 4,7 °C 5,6 °C 29,0 km/h (5 Bft)
16.03.2019 00:50 8,3 °C 78 % 1013,6 hPa 0,0 mm 22,3 km/h (4 Bft) W-SW 250 ° 0 min 0,000 mm 0,0 UV-I 0 W/m² 4,7 °C 5,0 °C 33,8 km/h (5 Bft)
16.03.2019 00:51 8,3 °C 78 % 1013,6 hPa 0,0 mm 18,9 km/h (3 Bft) W 261 ° 0 min 0,000 mm 0,0 UV-I 0 W/m² 4,7 °C 5,3 °C 29,0 km/h (5 Bft)
16.03.2019 00:52 8,3 °C 77 % 1013,6 hPa 0,0 mm 24,7 km/h (4 Bft) W 274 ° 0 min 0,000 mm 0,0 UV-I 0 W/m² 4,5 °C 4,8 °C 38,6 km/h (5 Bft)
16.03.2019 00:53 8,3 °C 77 % 1013,6 hPa 0,0 mm 18,9 km/h (3 Bft) W 267 ° 0 min 0,000 mm 0,0 UV-I 0 W/m² 4,5 °C 5,3 °C 22,5 km/h (4 Bft)
16.03.2019 00:54 8,3 °C 77 % 1013,7 hPa 0,0 mm 21,5 km/h (4 Bft) W-SW 255 ° 0 min 0,000 mm 0,0 UV-I 0 W/m² 4,5 °C 5,1 °C 30,6 km/h (5 Bft)
16.03.2019 00:55 8,3 °C 77 % 1013,7 hPa 0,0 mm 24,8 km/h (4 Bft) W-SW 252 ° 0 min 0,000 mm 0,0 UV-I 0 W/m² 4,5 °C 4,8 °C 35,4 km/h (5 Bft)
16.03.2019 00:56 8,3 °C 77 % 1013,7 hPa 0,0 mm 20,5 km/h (4 Bft) W 261 ° 0 min 0,000 mm 0,0 UV-I 0 W/m² 4,5 °C 5,2 °C 30,6 km/h (5 Bft)
16.03.2019 00:57 8,3 °C 77 % 1013,7 hPa 0,0 mm 23,5 km/h (4 Bft) W-NW 292 ° 0 min 0,000 mm 0,0 UV-I 0 W/m² 4,5 °C 4,9 °C 33,8 km/h (5 Bft)
16.03.2019 00:58 8,3 °C 77 % 1013,7 hPa 0,0 mm 16,1 km/h (3 Bft) W 270 ° 0 min 0,000 mm 0,0 UV-I 0 W/m² 4,5 °C 5,7 °C 22,5 km/h (4 Bft)
16.03.2019 00:59 8,3 °C 76 % 1013,7 hPa 0,0 mm 21,8 km/h (4 Bft) W-SW 256 ° 0 min 0,000 mm 0,0 UV-I 0 W/m² 4,3 °C 5,0 °C 25,7 km/h (4 Bft)
16.03.2019 01:00 8,4 °C 76 % 1013,6 hPa 0,0 mm 24,8 km/h (4 Bft) W-NW 286 ° 0 min 0,051 mm 0,0 UV-I 0 W/m² 4,4 °C 4,9 °C 29,0 km/h (5 Bft)
16.03.2019 01:01 8,3 °C 77 % 1013,6 hPa 0,0 mm 15,4 km/h (3 Bft) W-NW 294 ° 0 min 0,000 mm 0,0 UV-I 0 W/m² 4,5 °C 5,8 °C 22,5 km/h (4 Bft)
16.03.2019 01:02 8,4 °C 76 % 1013,6 hPa 0,0 mm 25,3 km/h (4 Bft) W 266 ° 0 min 0,000 mm 0,0 UV-I 0 W/m² 4,4 °C 4,9 °C 41,8 km/h (6 Bft)
16.03.2019 01:03 8,4 °C 76 % 1013,7 hPa 0,0 mm 20,5 km/h (4 Bft) W-NW 285 ° 0 min 0,000 mm 0,0 UV-I 0 W/m² 4,4 °C 5,3 °C 30,6 km/h (5 Bft)
16.03.2019 01:04 8,4 °C 76 % 1013,7 hPa 0,0 mm 23,9 km/h (4 Bft) W-NW 284 ° 0 min 0,000 mm 0,0 UV-I 0 W/m² 4,4 °C 5,0 °C 30,6 km/h (5 Bft)
16.03.2019 01:05 8,4 °C 76 % 1013,7 hPa 0,0 mm 22,0 km/h (4 Bft) W-SW 252 ° 0 min 0,000 mm 0,0 UV-I 0 W/m² 4,4 °C 5,2 °C 29,0 km/h (5 Bft)
16.03.2019 01:06 8,4 °C 76 % 1013,6 hPa 0,0 mm 24,7 km/h (4 Bft) W-SW 257 ° 0 min 0,000 mm 0,0 UV-I 0 W/m² 4,4 °C 4,9 °C 41,8 km/h (6 Bft)
16.03.2019 01:07 8,4 °C 76 % 1013,8 hPa 0,0 mm 24,9 km/h (4 Bft) W-SW 258 ° 0 min 0,000 mm 0,0 UV-I 0 W/m² 4,4 °C 4,9 °C 29,0 km/h (5 Bft)
16.03.2019 01:08 8,4 °C 76 % 1013,7 hPa 0,0 mm 22,2 km/h (4 Bft) W-SW 254 ° 0 min 0,000 mm 0,0 UV-I 0 W/m² 4,4 °C 5,1 °C 32,2 km/h (5 Bft)
16.03.2019 01:09 8,4 °C 76 % 1013,6 hPa 0,0 mm 24,2 km/h (4 Bft) W-SW 243 ° 0 min 0,000 mm 0,0 UV-I 0 W/m² 4,4 °C 5,0 °C 41,8 km/h (6 Bft)
16.03.2019 01:10 8,4 °C 76 % 1013,6 hPa 0,0 mm 31,7 km/h (5 Bft) W 270 ° 0 min 0,000 mm 0,0 UV-I 0 W/m² 4,4 °C 4,4 °C 45,1 km/h (6 Bft)
16.03.2019 01:11 8,4 °C 76 % 1013,6 hPa 0,0 mm 30,2 km/h (5 Bft) W-NW 282 ° 0 min 0,000 mm 0,0 UV-I 0 W/m² 4,4 °C 4,5 °C 41,8 km/h (6 Bft)
16.03.2019 01:12 8,5 °C 75 % 1013,6 hPa 0,0 mm 29,9 km/h (5 Bft) W-NW 293 ° 0 min 0,000 mm 0,0 UV-I 0 W/m² 4,3 °C 4,6 °C 43,5 km/h (6 Bft)
16.03.2019 01:13 8,5 °C 75 % 1013,6 hPa 0,0 mm 29,8 km/h (5 Bft) W 271 ° 0 min 0,000 mm 0,0 UV-I 0 W/m² 4,3 °C 4,6 °C 43,5 km/h (6 Bft)
16.03.2019 01:14 8,5 °C 75 % 1013,7 hPa 0,0 mm 24,9 km/h (4 Bft) W 265 ° 0 min 0,000 mm 0,0 UV-I 0 W/m² 4,3 °C 5,0 °C 35,4 km/h (5 Bft)
16.03.2019 01:15 8,6 °C 75 % 1013,6 hPa 0,0 mm 24,3 km/h (4 Bft) NW 311 ° 0 min 0,000 mm 0,0 UV-I 0 W/m² 4,4 °C 5,2 °C 32,2 km/h (5 Bft)
16.03.2019 01:16 8,6 °C 75 % 1013,6 hPa 0,0 mm 18,0 km/h (3 Bft) W-SW 243 ° 0 min 0,000 mm 0,0 UV-I 0 W/m² 4,4 °C 5,8 °C 25,7 km/h (4 Bft)
16.03.2019 01:17 8,6 °C 75 % 1013,6 hPa 0,0 mm 26,4 km/h (4 Bft) W-SW 248 ° 0 min 0,000 mm 0,0 UV-I 0 W/m² 4,4 °C 5,0 °C 45,1 km/h (6 Bft)
16.03.2019 01:18 8,6 °C 75 % 1013,7 hPa 0,0 mm 29,5 km/h (5 Bft) W-NW 285 ° 0 min 0,000 mm 0,0 UV-I 0 W/m² 4,4 °C 4,8 °C 45,1 km/h (6 Bft)
16.03.2019 01:19 8,6 °C 75 % 1013,7 hPa 0,0 mm 18,7 km/h (3 Bft) W 265 ° 0 min 0,000 mm 0,0 UV-I 0 W/m² 4,4 °C 5,7 °C 29,0 km/h (5 Bft)
16.03.2019 01:20 8,6 °C 75 % 1013,7 hPa 0,0 mm 20,9 km/h (4 Bft) W 274 ° 0 min 0,000 mm 0,0 UV-I 0 W/m² 4,4 °C 5,5 °C 35,4 km/h (5 Bft)
16.03.2019 01:21 8,6 °C 75 % 1013,7 hPa 0,0 mm 28,8 km/h (4 Bft) W 263 ° 0 min 0,000 mm 0,0 UV-I 0 W/m² 4,4 °C 4,8 °C 45,1 km/h (6 Bft)
16.03.2019 01:22 8,6 °C 75 % 1013,7 hPa 0,0 mm 15,8 km/h (3 Bft) W-SW 250 ° 0 min 0,000 mm 0,0 UV-I 0 W/m² 4,4 °C 6,1 °C 20,9 km/h (4 Bft)
16.03.2019 01:23 8,6 °C 75 % 1013,7 hPa 0,0 mm 20,2 km/h (4 Bft) W-SW 252 ° 0 min 0,000 mm 0,0 UV-I 0 W/m² 4,4 °C 5,6 °C 35,4 km/h (5 Bft)
16.03.2019 01:24 8,6 °C 75 % 1013,7 hPa 0,0 mm 30,0 km/h (5 Bft) W 259 ° 0 min 0,000 mm 0,0 UV-I 0 W/m² 4,4 °C 4,7 °C 46,7 km/h (6 Bft)
16.03.2019 01:25 8,6 °C 75 % 1013,6 hPa 0,0 mm 21,5 km/h (4 Bft) W-SW 246 ° 0 min 0,000 mm 0,0 UV-I 0 W/m² 4,4 °C 5,5 °C 29,0 km/h (5 Bft)
16.03.2019 01:26 8,6 °C 75 % 1013,6 hPa 0,0 mm 16,7 km/h (3 Bft) NW 311 ° 0 min 0,000 mm 0,0 UV-I 0 W/m² 4,4 °C 6,0 °C 25,7 km/h (4 Bft)
16.03.2019 01:27 8,6 °C 75 % 1013,6 hPa 0,0 mm 29,5 km/h (5 Bft) NW 305 ° 0 min 0,000 mm 0,0 UV-I 0 W/m² 4,4 °C 4,8 °C 43,5 km/h (6 Bft)
16.03.2019 01:28 8,6 °C 75 % 1013,5 hPa 0,0 mm 20,0 km/h (4 Bft) W-SW 250 ° 0 min 0,000 mm 0,0 UV-I 0 W/m² 4,4 °C 5,6 °C 24,1 km/h (4 Bft)
16.03.2019 01:29 8,6 °C 75 % 1013,6 hPa 0,0 mm 28,4 km/h (4 Bft) W-SW 254 ° 0 min 0,000 mm 0,0 UV-I 0 W/m² 4,4 °C 4,9 °C 37,0 km/h (5 Bft)
16.03.2019 01:30 8,6 °C 75 % 1013,6 hPa 0,0 mm 20,9 km/h (4 Bft) W-NW 287 ° 0 min 0,000 mm 0,0 UV-I 0 W/m² 4,4 °C 5,5 °C 30,6 km/h (5 Bft)
16.03.2019 01:31 8,6 °C 75 % 1013,6 hPa 0,0 mm 24,7 km/h (4 Bft) W-SW 254 ° 0 min 0,000 mm 0,0 UV-I 0 W/m² 4,4 °C 5,2 °C 30,6 km/h (5 Bft)
16.03.2019 01:32 8,4 °C 75 % 1013,6 hPa 0,0 mm 16,0 km/h (3 Bft) W 281 ° 0 min 0,000 mm 0,0 UV-I 0 W/m² 4,2 °C 5,8 °C 20,9 km/h (4 Bft)
16.03.2019 01:33 8,4 °C 75 % 1013,7 hPa 0,0 mm 18,8 km/h (3 Bft) W-SW 246 ° 0 min 0,000 mm 0,0 UV-I 0 W/m² 4,2 °C 5,5 °C 24,1 km/h (4 Bft)
16.03.2019 01:34 8,4 °C 75 % 1013,7 hPa 0,0 mm 21,6 km/h (4 Bft) W 273 ° 0 min 0,000 mm 0,0 UV-I 0 W/m² 4,2 °C 5,2 °C 33,8 km/h (5 Bft)
16.03.2019 01:35 8,4 °C 75 % 1013,8 hPa 0,0 mm 22,5 km/h (4 Bft) W-SW 250 ° 0 min 0,000 mm 0,0 UV-I 0 W/m² 4,2 °C 5,1 °C 53,1 km/h (7 Bft)
16.03.2019 01:36 8,4 °C 75 % 1013,8 hPa 0,0 mm 27,6 km/h (4 Bft) W 269 ° 0 min 0,000 mm 0,0 UV-I 0 W/m² 4,2 °C 4,7 °C 38,6 km/h (5 Bft)
16.03.2019 01:37 8,4 °C 75 % 1013,8 hPa 0,0 mm 20,4 km/h (4 Bft) W 272 ° 0 min 0,000 mm 0,0 UV-I 0 W/m² 4,2 °C 5,3 °C 37,0 km/h (5 Bft)
16.03.2019 01:38 8,4 °C 75 % 1013,7 hPa 0,0 mm 18,9 km/h (3 Bft) W-SW 246 ° 0 min 0,000 mm 0,0 UV-I 0 W/m² 4,2 °C 5,5 °C 32,2 km/h (5 Bft)
16.03.2019 01:39 8,4 °C 75 % 1013,6 hPa 0,0 mm 22,3 km/h (4 Bft) W 266 ° 0 min 0,000 mm 0,0 UV-I 0 W/m² 4,2 °C 5,1 °C 33,8 km/h (5 Bft)
16.03.2019 01:40 8,4 °C 75 % 1013,6 hPa 0,0 mm 21,7 km/h (4 Bft) W 272 ° 0 min 0,000 mm 0,0 UV-I 0 W/m² 4,2 °C 5,2 °C 27,4 km/h (4 Bft)
16.03.2019 01:41 8,4 °C 75 % 1013,7 hPa 0,0 mm 14,4 km/h (3 Bft) W 274 ° 0 min 0,000 mm 0,0 UV-I 0 W/m² 4,2 °C 6,0 °C 20,9 km/h (4 Bft)
16.03.2019 01:42 8,4 °C 75 % 1013,7 hPa 0,0 mm 20,8 km/h (4 Bft) W-NW 286 ° 0 min 0,000 mm 0,0 UV-I 0 W/m² 4,2 °C 5,3 °C 27,4 km/h (4 Bft)
16.03.2019 01:43 8,4 °C 75 % 1013,6 hPa 0,0 mm 20,1 km/h (4 Bft) W 265 ° 0 min 0,000 mm 0,0 UV-I 0 W/m² 4,2 °C 5,3 °C 30,6 km/h (5 Bft)
16.03.2019 01:44 8,4 °C 75 % 1013,6 hPa 0,0 mm 23,5 km/h (4 Bft) W-NW 286 ° 0 min 0,000 mm 0,0 UV-I 0 W/m² 4,2 °C 5,0 °C 37,0 km/h (5 Bft)
16.03.2019 01:45 8,4 °C 75 % 1013,6 hPa 0,0 mm 17,4 km/h (3 Bft) W 267 ° 0 min 0,000 mm 0,0 UV-I 0 W/m² 4,2 °C 5,6 °C 20,9 km/h (4 Bft)
16.03.2019 01:46 8,4 °C 75 % 1013,7 hPa 0,0 mm 19,3 km/h (3 Bft) W-SW 257 ° 0 min 0,000 mm 0,0 UV-I 0 W/m² 4,2 °C 5,4 °C 25,7 km/h (4 Bft)
16.03.2019 01:47 8,4 °C 75 % 1013,9 hPa 0,0 mm 26,7 km/h (4 Bft) W 279 ° 0 min 0,000 mm 0,0 UV-I 0 W/m² 4,2 °C 4,7 °C 46,7 km/h (6 Bft)
16.03.2019 01:48 8,4 °C 75 % 1013,8 hPa 0,0 mm 19,8 km/h (3 Bft) NW 304 ° 0 min 0,000 mm 0,0 UV-I 0 W/m² 4,2 °C 5,4 °C 30,6 km/h (5 Bft)
16.03.2019 01:49 8,4 °C 75 % 1013,7 hPa 0,0 mm 14,3 km/h (3 Bft) W-SW 248 ° 0 min 0,000 mm 0,0 UV-I 0 W/m² 4,2 °C 6,0 °C 25,7 km/h (4 Bft)
16.03.2019 01:50 8,4 °C 75 % 1013,6 hPa 0,0 mm 20,6 km/h (4 Bft) W-SW 249 ° 0 min 0,000 mm 0,0 UV-I 0 W/m² 4,2 °C 5,3 °C 30,6 km/h (5 Bft)
16.03.2019 01:51 8,4 °C 75 % 1013,6 hPa 0,0 mm 17,7 km/h (3 Bft) W-SW 241 ° 0 min 0,000 mm 0,0 UV-I 0 W/m² 4,2 °C 5,6 °C 30,6 km/h (5 Bft)
16.03.2019 01:52 8,4 °C 75 % 1013,7 hPa 0,0 mm 22,1 km/h (4 Bft) W-NW 292 ° 0 min 0,000 mm 0,0 UV-I 0 W/m² 4,2 °C 5,1 °C 33,8 km/h (5 Bft)
16.03.2019 01:53 8,4 °C 75 % 1013,8 hPa 0,0 mm 16,4 km/h (3 Bft) W 266 ° 0 min 0,000 mm 0,0 UV-I 0 W/m² 4,2 °C 5,8 °C 24,1 km/h (4 Bft)
16.03.2019 01:54 8,4 °C 75 % 1013,8 hPa 0,0 mm 19,6 km/h (3 Bft) W-SW 244 ° 0 min 0,000 mm 0,0 UV-I 0 W/m² 4,2 °C 5,4 °C 27,4 km/h (4 Bft)
16.03.2019 01:55 8,4 °C 75 % 1013,9 hPa 0,0 mm 23,1 km/h (4 Bft) W-NW 288 ° 0 min 0,000 mm 0,0 UV-I 0 W/m² 4,2 °C 5,1 °C 37,0 km/h (5 Bft)
16.03.2019 01:56 8,4 °C 74 % 1013,9 hPa 0,0 mm 15,8 km/h (3 Bft) W-NW 292 ° 0 min 0,000 mm 0,0 UV-I 0 W/m² 4,0 °C 5,8 °C 20,9 km/h (4 Bft)
16.03.2019 01:57 8,4 °C 75 % 1013,9 hPa 0,0 mm 14,6 km/h (3 Bft) SW 229 ° 0 min 0,000 mm 0,0 UV-I 0 W/m² 4,2 °C 6,0 °C 20,9 km/h (4 Bft)
16.03.2019 01:58 8,4 °C 75 % 1013,9 hPa 0,0 mm 19,0 km/h (3 Bft) W 264 ° 0 min 0,000 mm 0,0 UV-I 0 W/m² 4,2 °C 5,5 °C 24,1 km/h (4 Bft)
16.03.2019 01:59 8,4 °C 75 % 1013,8 hPa 0,0 mm 20,7 km/h (4 Bft) W-NW 293 ° 0 min 0,000 mm 0,0 UV-I 0 W/m² 4,2 °C 5,3 °C 27,4 km/h (4 Bft)
16.03.2019 02:00 8,4 °C 75 % 1013,8 hPa 0,0 mm 16,7 km/h (3 Bft) W-NW 301 ° 0 min 0,000 mm 0,0 UV-I 0 W/m² 4,2 °C 5,7 °C 25,7 km/h (4 Bft)
16.03.2019 02:01 8,4 °C 74 % 1013,8 hPa 0,0 mm 27,6 km/h (4 Bft) W-NW 282 ° 0 min 0,051 mm 0,0 UV-I 0 W/m² 4,0 °C 4,7 °C 41,8 km/h (6 Bft)
16.03.2019 02:02 8,4 °C 74 % 1013,9 hPa 0,0 mm 19,3 km/h (3 Bft) W-NW 293 ° 0 min 0,000 mm 0,0 UV-I 0 W/m² 4,0 °C 5,4 °C 30,6 km/h (5 Bft)
16.03.2019 02:03 8,4 °C 74 % 1013,8 hPa 0,0 mm 14,1 km/h (3 Bft) SW 227 ° 0 min 0,000 mm 0,0 UV-I 0 W/m² 4,0 °C 6,1 °C 25,7 km/h (4 Bft)
16.03.2019 02:04 8,4 °C 74 % 1013,9 hPa 0,0 mm 26,4 km/h (4 Bft) W 266 ° 0 min 0,000 mm 0,0 UV-I 0 W/m² 4,0 °C 4,8 °C 41,8 km/h (6 Bft)
16.03.2019 02:05 8,4 °C 74 % 1013,7 hPa 0,0 mm 19,5 km/h (3 Bft) W-SW 246 ° 0 min 0,000 mm 0,0 UV-I 0 W/m² 4,0 °C 5,4 °C 30,6 km/h (5 Bft)
16.03.2019 02:06 8,4 °C 74 % 1013,8 hPa 0,0 mm 25,7 km/h (4 Bft) W-SW 245 ° 0 min 0,000 mm 0,0 UV-I 0 W/m² 4,0 °C 4,8 °C 43,5 km/h (6 Bft)
16.03.2019 02:07 8,4 °C 74 % 1013,8 hPa 0,0 mm 23,1 km/h (4 Bft) W 273 ° 0 min 0,000 mm 0,0 UV-I 0 W/m² 4,0 °C 5,1 °C 35,4 km/h (5 Bft)
16.03.2019 02:08 8,4 °C 74 % 1013,7 hPa 0,0 mm 24,3 km/h (4 Bft) W 267 ° 0 min 0,000 mm 0,0 UV-I 0 W/m² 4,0 °C 4,9 °C 40,2 km/h (6 Bft)
16.03.2019 02:09 8,4 °C 74 % 1013,7 hPa 0,0 mm 31,4 km/h (5 Bft) W 278 ° 0 min 0,000 mm 0,0 UV-I 0 W/m² 4,0 °C 4,4 °C 49,9 km/h (6 Bft)
16.03.2019 02:10 8,4 °C 74 % 1013,8 hPa 0,0 mm 26,2 km/h (4 Bft) W 259 ° 0 min 0,000 mm 0,0 UV-I 0 W/m² 4,0 °C 4,8 °C 38,6 km/h (5 Bft)
16.03.2019 02:11 8,4 °C 75 % 1013,8 hPa 0,0 mm 20,2 km/h (4 Bft) W 262 ° 0 min 0,000 mm 0,0 UV-I 0 W/m² 4,2 °C 5,3 °C 35,4 km/h (5 Bft)
16.03.2019 02:12 8,4 °C 74 % 1013,7 hPa 0,0 mm 21,3 km/h (4 Bft) W 277 ° 0 min 0,000 mm 0,0 UV-I 0 W/m² 4,0 °C 5,2 °C 35,4 km/h (5 Bft)
16.03.2019 02:13 8,4 °C 74 % 1013,7 hPa 0,0 mm 23,2 km/h (4 Bft) W 276 ° 0 min 0,000 mm 0,0 UV-I 0 W/m² 4,0 °C 5,0 °C 33,8 km/h (5 Bft)
16.03.2019 02:14 8,4 °C 74 % 1013,7 hPa 0,0 mm 23,8 km/h (4 Bft) W 277 ° 0 min 0,000 mm 0,0 UV-I 0 W/m² 4,0 °C 5,0 °C 38,6 km/h (5 Bft)
16.03.2019 02:15 8,4 °C 74 % 1013,8 hPa 0,0 mm 28,0 km/h (4 Bft) W-SW 251 ° 0 min 0,000 mm 0,0 UV-I 0 W/m² 4,0 °C 4,6 °C 37,0 km/h (5 Bft)
16.03.2019 02:16 8,4 °C 74 % 1013,8 hPa 0,0 mm 24,9 km/h (4 Bft) W-NW 289 ° 0 min 0,000 mm 0,0 UV-I 0 W/m² 4,0 °C 4,9 °C 48,3 km/h (6 Bft)
16.03.2019 02:17 8,4 °C 74 % 1013,8 hPa 0,0 mm 17,3 km/h (3 Bft) SW 236 ° 0 min 0,000 mm 0,0 UV-I 0 W/m² 4,0 °C 5,7 °C 27,4 km/h (4 Bft)
16.03.2019 02:18 8,4 °C 74 % 1014,1 hPa 0,0 mm 33,6 km/h (5 Bft) W-SW 250 ° 0 min 0,000 mm 0,0 UV-I 0 W/m² 4,0 °C 4,2 °C 49,9 km/h (6 Bft)
16.03.2019 02:19 8,4 °C 74 % 1013,7 hPa 0,0 mm 21,1 km/h (4 Bft) SW 220 ° 0 min 0,000 mm 0,0 UV-I 0 W/m² 4,0 °C 5,2 °C 30,6 km/h (5 Bft)
16.03.2019 02:20 8,4 °C 74 % 1013,9 hPa 0,0 mm 29,2 km/h (5 Bft) NW 304 ° 0 min 0,000 mm 0,0 UV-I 0 W/m² 4,0 °C 4,5 °C 38,6 km/h (5 Bft)
16.03.2019 02:21 8,4 °C 74 % 1013,9 hPa 0,0 mm 27,2 km/h (4 Bft) W-SW 249 ° 0 min 0,000 mm 0,0 UV-I 0 W/m² 4,0 °C 4,7 °C 37,0 km/h (5 Bft)
16.03.2019 02:22 8,4 °C 74 % 1013,7 hPa 0,0 mm 28,6 km/h (4 Bft) W 264 ° 0 min 0,000 mm 0,0 UV-I 0 W/m² 4,0 °C 4,6 °C 46,7 km/h (6 Bft)
16.03.2019 02:23 8,4 °C 74 % 1013,9 hPa 0,0 mm 26,6 km/h (4 Bft) W 261 ° 0 min 0,000 mm 0,0 UV-I 0 W/m² 4,0 °C 4,8 °C 40,2 km/h (6 Bft)
16.03.2019 02:24 8,4 °C 74 % 1013,9 hPa 0,0 mm 22,7 km/h (4 Bft) SW 219 ° 0 min 0,000 mm 0,0 UV-I 0 W/m² 4,0 °C 5,1 °C 32,2 km/h (5 Bft)
16.03.2019 02:25 8,4 °C 74 % 1013,9 hPa 0,0 mm 24,7 km/h (4 Bft) W 277 ° 0 min 0,000 mm 0,0 UV-I 0 W/m² 4,0 °C 4,9 °C 35,4 km/h (5 Bft)
16.03.2019 02:26 8,4 °C 74 % 1013,9 hPa 0,0 mm 21,8 km/h (4 Bft) W 259 ° 0 min 0,000 mm 0,0 UV-I 0 W/m² 4,0 °C 5,2 °C 29,0 km/h (5 Bft)
16.03.2019 02:27 8,4 °C 74 % 1013,9 hPa 0,0 mm 17,7 km/h (3 Bft) W 259 ° 0 min 0,000 mm 0,0 UV-I 0 W/m² 4,0 °C 5,6 °C 29,0 km/h (5 Bft)
16.03.2019 02:28 8,4 °C 74 % 1014,0 hPa 0,0 mm 21,4 km/h (4 Bft) W-SW 256 ° 0 min 0,000 mm 0,0 UV-I 0 W/m² 4,0 °C 5,2 °C 32,2 km/h (5 Bft)
16.03.2019 02:29 8,4 °C 74 % 1014,0 hPa 0,0 mm 21,9 km/h (4 Bft) SW 218 ° 0 min 0,000 mm 0,0 UV-I 0 W/m² 4,0 °C 5,2 °C 33,8 km/h (5 Bft)
16.03.2019 02:30 8,4 °C 74 % 1013,9 hPa 0,0 mm 23,9 km/h (4 Bft) W-SW 241 ° 0 min 0,000 mm 0,0 UV-I 0 W/m² 4,0 °C 5,0 °C 38,6 km/h (5 Bft)
16.03.2019 02:31 8,4 °C 74 % 1013,9 hPa 0,0 mm 20,4 km/h (4 Bft) W 269 ° 0 min 0,000 mm 0,0 UV-I 0 W/m² 4,0 °C 5,3 °C 29,0 km/h (5 Bft)
16.03.2019 02:32 8,4 °C 74 % 1013,9 hPa 0,0 mm 22,1 km/h (4 Bft) W 263 ° 0 min 0,000 mm 0,0 UV-I 0 W/m² 4,0 °C 5,1 °C 35,4 km/h (5 Bft)
16.03.2019 02:33 8,4 °C 74 % 1013,8 hPa 0,0 mm 27,0 km/h (4 Bft) W 266 ° 0 min 0,000 mm 0,0 UV-I 0 W/m² 4,0 °C 4,7 °C 38,6 km/h (5 Bft)
16.03.2019 02:34 8,4 °C 74 % 1013,8 hPa 0,0 mm 23,5 km/h (4 Bft) W 271 ° 0 min 0,000 mm 0,0 UV-I 0 W/m² 4,0 °C 5,0 °C 30,6 km/h (5 Bft)
16.03.2019 02:35 8,4 °C 74 % 1013,8 hPa 0,0 mm 24,5 km/h (4 Bft) W 271 ° 0 min 0,000 mm 0,0 UV-I 0 W/m² 4,0 °C 4,9 °C 32,2 km/h (5 Bft)
16.03.2019 02:36 8,4 °C 74 % 1013,8 hPa 0,0 mm 23,6 km/h (4 Bft) W-SW 252 ° 0 min 0,000 mm 0,0 UV-I 0 W/m² 4,0 °C 5,0 °C 33,8 km/h (5 Bft)
16.03.2019 02:37 8,4 °C 74 % 1013,8 hPa 0,0 mm 23,3 km/h (4 Bft) W-NW 296 ° 0 min 0,000 mm 0,0 UV-I 0 W/m² 4,0 °C 5,0 °C 40,2 km/h (6 Bft)
16.03.2019 02:38 8,3 °C 74 % 1013,7 hPa 0,0 mm 24,5 km/h (4 Bft) W-NW 287 ° 0 min 0,000 mm 0,0 UV-I 0 W/m² 3,9 °C 4,8 °C 32,2 km/h (5 Bft)
16.03.2019 02:39 8,3 °C 74 % 1013,7 hPa 0,0 mm 24,5 km/h (4 Bft) W-SW 238 ° 0 min 0,000 mm 0,0 UV-I 0 W/m² 3,9 °C 4,8 °C 33,8 km/h (5 Bft)
16.03.2019 02:40 8,3 °C 74 % 1013,7 hPa 0,0 mm 27,8 km/h (4 Bft) W-NW 286 ° 0 min 0,000 mm 0,0 UV-I 0 W/m² 3,9 °C 4,5 °C 38,6 km/h (5 Bft)
16.03.2019 02:41 8,3 °C 74 % 1013,7 hPa 0,0 mm 28,4 km/h (4 Bft) W 268 ° 0 min 0,000 mm 0,0 UV-I 0 W/m² 3,9 °C 4,5 °C 38,6 km/h (5 Bft)
16.03.2019 02:42 8,4 °C 74 % 1013,7 hPa 0,0 mm 21,2 km/h (4 Bft) W 259 ° 0 min 0,000 mm 0,0 UV-I 0 W/m² 4,0 °C 5,2 °C 30,6 km/h (5 Bft)
16.03.2019 02:43 8,3 °C 74 % 1013,7 hPa 0,0 mm 14,8 km/h (3 Bft) W 259 ° 0 min 0,000 mm 0,0 UV-I 0 W/m² 3,9 °C 5,8 °C 24,1 km/h (4 Bft)
16.03.2019 02:44 8,3 °C 74 % 1013,7 hPa 0,0 mm 21,4 km/h (4 Bft) W 273 ° 0 min 0,000 mm 0,0 UV-I 0 W/m² 3,9 °C 5,1 °C 29,0 km/h (5 Bft)
16.03.2019 02:45 8,3 °C 74 % 1013,7 hPa 0,0 mm 26,8 km/h (4 Bft) W 269 ° 0 min 0,000 mm 0,0 UV-I 0 W/m² 3,9 °C 4,6 °C 32,2 km/h (5 Bft)
16.03.2019 02:46 8,3 °C 74 % 1013,9 hPa 0,0 mm 24,3 km/h (4 Bft) W 269 ° 0 min 0,000 mm 0,0 UV-I 0 W/m² 3,9 °C 4,8 °C 32,2 km/h (5 Bft)
16.03.2019 02:47 8,3 °C 74 % 1013,7 hPa 0,0 mm 15,6 km/h (3 Bft) W 263 ° 0 min 0,000 mm 0,0 UV-I 0 W/m² 3,9 °C 5,7 °C 20,9 km/h (4 Bft)
16.03.2019 02:48 8,3 °C 74 % 1013,7 hPa 0,0 mm 26,5 km/h (4 Bft) NW 308 ° 0 min 0,000 mm 0,0 UV-I 0 W/m² 3,9 °C 4,6 °C 33,8 km/h (5 Bft)
16.03.2019 02:49 8,3 °C 74 % 1013,8 hPa 0,0 mm 24,1 km/h (4 Bft) W-SW 257 ° 0 min 0,000 mm 0,0 UV-I 0 W/m² 3,9 °C 4,8 °C 37,0 km/h (5 Bft)
16.03.2019 02:50 8,3 °C 74 % 1013,8 hPa 0,0 mm 31,4 km/h (5 Bft) W 265 ° 0 min 0,000 mm 0,0 UV-I 0 W/m² 3,9 °C 4,3 °C 49,9 km/h (6 Bft)
16.03.2019 02:51 8,3 °C 74 % 1013,6 hPa 0,0 mm 19,6 km/h (3 Bft) W-SW 237 ° 0 min 0,000 mm 0,0 UV-I 0 W/m² 3,9 °C 5,3 °C 24,1 km/h (4 Bft)
16.03.2019 02:52 8,3 °C 74 % 1013,6 hPa 0,0 mm 25,5 km/h (4 Bft) W 280 ° 0 min 0,000 mm 0,0 UV-I 0 W/m² 3,9 °C 4,7 °C 33,8 km/h (5 Bft)
16.03.2019 02:53 8,3 °C 74 % 1013,8 hPa 0,0 mm 24,2 km/h (4 Bft) W 269 ° 0 min 0,000 mm 0,0 UV-I 0 W/m² 3,9 °C 4,8 °C 32,2 km/h (5 Bft)
16.03.2019 02:54 8,3 °C 74 % 1013,7 hPa 0,0 mm 22,7 km/h (4 Bft) W 262 ° 0 min 0,000 mm 0,0 UV-I 0 W/m² 3,9 °C 5,0 °C 30,6 km/h (5 Bft)
16.03.2019 02:55 8,3 °C 74 % 1013,6 hPa 0,0 mm 28,2 km/h (4 Bft) W-NW 284 ° 0 min 0,000 mm 0,0 UV-I 0 W/m² 3,9 °C 4,5 °C 35,4 km/h (5 Bft)
16.03.2019 02:56 8,3 °C 75 % 1013,6 hPa 0,0 mm 20,2 km/h (4 Bft) W 262 ° 0 min 0,000 mm 0,0 UV-I 0 W/m² 4,1 °C 5,2 °C 35,4 km/h (5 Bft)
16.03.2019 02:57 8,3 °C 75 % 1013,8 hPa 0,0 mm 16,4 km/h (3 Bft) W 268 ° 0 min 0,000 mm 0,0 UV-I 0 W/m² 4,1 °C 5,6 °C 25,7 km/h (4 Bft)
16.03.2019 02:58 8,3 °C 75 % 1013,9 hPa 0,0 mm 19,2 km/h (3 Bft) W-NW 296 ° 0 min 0,000 mm 0,0 UV-I 0 W/m² 4,1 °C 5,3 °C 32,2 km/h (5 Bft)
16.03.2019 02:59 8,3 °C 75 % 1013,9 hPa 0,0 mm 23,0 km/h (4 Bft) W 279 ° 0 min 0,000 mm 0,0 UV-I 0 W/m² 4,1 °C 4,9 °C 29,0 km/h (5 Bft)
16.03.2019 03:00 8,2 °C 75 % 1013,9 hPa 0,0 mm 13,0 km/h (3 Bft) W-SW 250 ° 0 min 0,000 mm 0,0 UV-I 0 W/m² 4,0 °C 6,0 °C 20,9 km/h (4 Bft)
16.03.2019 03:01 8,2 °C 75 % 1013,8 hPa 0,0 mm 23,7 km/h (4 Bft) W-NW 296 ° 0 min 0,050 mm 0,0 UV-I 0 W/m² 4,0 °C 4,7 °C 33,8 km/h (5 Bft)
16.03.2019 03:02 8,2 °C 75 % 1013,7 hPa 0,0 mm 20,6 km/h (4 Bft) W-NW 286 ° 0 min 0,000 mm 0,0 UV-I 0 W/m² 4,0 °C 5,0 °C 33,8 km/h (5 Bft)
16.03.2019 03:03 8,2 °C 75 % 1013,9 hPa 0,0 mm 24,2 km/h (4 Bft) W-NW 298 ° 0 min 0,000 mm 0,0 UV-I 0 W/m² 4,0 °C 4,7 °C 30,6 km/h (5 Bft)
16.03.2019 03:04 8,2 °C 75 % 1013,8 hPa 0,0 mm 22,6 km/h (4 Bft) SW 236 ° 0 min 0,000 mm 0,0 UV-I 0 W/m² 4,0 °C 4,8 °C 38,6 km/h (5 Bft)
16.03.2019 03:05 8,2 °C 75 % 1013,8 hPa 0,0 mm 30,2 km/h (5 Bft) W 270 ° 0 min 0,000 mm 0,0 UV-I 0 W/m² 4,0 °C 4,2 °C 45,1 km/h (6 Bft)
16.03.2019 03:06 8,2 °C 75 % 1013,8 hPa 0,0 mm 14,2 km/h (3 Bft) W-NW 283 ° 0 min 0,000 mm 0,0 UV-I 0 W/m² 4,0 °C 5,8 °C 20,9 km/h (4 Bft)
16.03.2019 03:07 8,2 °C 75 % 1013,8 hPa 0,0 mm 19,8 km/h (3 Bft) W 268 ° 0 min 0,000 mm 0,0 UV-I 0 W/m² 4,0 °C 5,1 °C 25,7 km/h (4 Bft)
16.03.2019 03:08 8,2 °C 76 % 1013,8 hPa 0,0 mm 17,3 km/h (3 Bft) NW 311 ° 0 min 0,000 mm 0,0 UV-I 0 W/m² 4,2 °C 5,4 °C 25,7 km/h (4 Bft)
16.03.2019 03:09 8,2 °C 75 % 1013,9 hPa 0,0 mm 19,3 km/h (3 Bft) W-SW 249 ° 0 min 0,000 mm 0,0 UV-I 0 W/m² 4,0 °C 5,2 °C 33,8 km/h (5 Bft)
16.03.2019 03:10 8,1 °C 75 % 1013,7 hPa 0,0 mm 25,1 km/h (4 Bft) W 263 ° 0 min 0,000 mm 0,0 UV-I 0 W/m² 3,9 °C 4,5 °C 40,2 km/h (6 Bft)
16.03.2019 03:11 8,1 °C 75 % 1013,7 hPa 0,0 mm 21,3 km/h (4 Bft) NW 310 ° 0 min 0,000 mm 0,0 UV-I 0 W/m² 3,9 °C 4,8 °C 30,6 km/h (5 Bft)
16.03.2019 03:12 8,1 °C 75 % 1013,7 hPa 0,0 mm 23,5 km/h (4 Bft) W-NW 284 ° 0 min 0,000 mm 0,0 UV-I 0 W/m² 3,9 °C 4,6 °C 33,8 km/h (5 Bft)
16.03.2019 03:13 8,1 °C 76 % 1013,6 hPa 0,0 mm 19,4 km/h (3 Bft) W-SW 251 ° 0 min 0,000 mm 0,0 UV-I 0 W/m² 4,1 °C 5,0 °C 37,0 km/h (5 Bft)
16.03.2019 03:14 8,1 °C 76 % 1013,6 hPa 0,0 mm 22,3 km/h (4 Bft) W 260 ° 0 min 0,000 mm 0,0 UV-I 0 W/m² 4,1 °C 4,7 °C 30,6 km/h (5 Bft)
16.03.2019 03:15 8,1 °C 76 % 1013,7 hPa 0,0 mm 26,8 km/h (4 Bft) W 273 ° 0 min 0,000 mm 0,0 UV-I 0 W/m² 4,1 °C 4,3 °C 37,0 km/h (5 Bft)
16.03.2019 03:16 8,1 °C 75 % 1013,7 hPa 0,0 mm 25,1 km/h (4 Bft) W-SW 256 ° 0 min 0,000 mm 0,0 UV-I 0 W/m² 3,9 °C 4,5 °C 33,8 km/h (5 Bft)
16.03.2019 03:17 8,1 °C 76 % 1013,7 hPa 0,0 mm 24,4 km/h (4 Bft) W-NW 298 ° 0 min 0,000 mm 0,0 UV-I 0 W/m² 4,1 °C 4,6 °C 35,4 km/h (5 Bft)
16.03.2019 03:18 8,1 °C 76 % 1013,7 hPa 0,0 mm 23,9 km/h (4 Bft) NW 326 ° 0 min 0,000 mm 0,0 UV-I 0 W/m² 4,1 °C 4,6 °C 45,1 km/h (6 Bft)
16.03.2019 03:19 8,1 °C 76 % 1013,6 hPa 0,0 mm 20,9 km/h (4 Bft) W 265 ° 0 min 0,000 mm 0,0 UV-I 0 W/m² 4,1 °C 4,9 °C 32,2 km/h (5 Bft)
16.03.2019 03:20 8,1 °C 75 % 1013,7 hPa 0,0 mm 20,9 km/h (4 Bft) W-SW 248 ° 0 min 0,000 mm 0,0 UV-I 0 W/m² 3,9 °C 4,9 °C 27,4 km/h (4 Bft)
16.03.2019 03:21 8,1 °C 76 % 1013,6 hPa 0,0 mm 15,7 km/h (3 Bft) W-SW 245 ° 0 min 0,000 mm 0,0 UV-I 0 W/m² 4,1 °C 5,5 °C 20,9 km/h (4 Bft)
16.03.2019 03:22 8,1 °C 76 % 1013,6 hPa 0,0 mm 19,3 km/h (3 Bft) W-NW 296 ° 0 min 0,000 mm 0,0 UV-I 0 W/m² 4,1 °C 5,1 °C 30,6 km/h (5 Bft)
16.03.2019 03:23 8,1 °C 75 % 1013,6 hPa 0,0 mm 25,8 km/h (4 Bft) W-SW 240 ° 0 min 0,000 mm 0,0 UV-I 0 W/m² 3,9 °C 4,4 °C 41,8 km/h (6 Bft)
16.03.2019 03:24 8,1 °C 75 % 1013,6 hPa 0,0 mm 22,5 km/h (4 Bft) W 269 ° 0 min 0,000 mm 0,0 UV-I 0 W/m² 3,9 °C 4,7 °C 32,2 km/h (5 Bft)
16.03.2019 03:25 8,1 °C 75 % 1013,6 hPa 0,0 mm 28,5 km/h (4 Bft) W-NW 289 ° 0 min 0,000 mm 0,0 UV-I 0 W/m² 3,9 °C 4,2 °C 40,2 km/h (6 Bft)
16.03.2019 03:26 8,1 °C 75 % 1013,7 hPa 0,0 mm 25,3 km/h (4 Bft) W 271 ° 0 min 0,000 mm 0,0 UV-I 0 W/m² 3,9 °C 4,5 °C 40,2 km/h (6 Bft)
16.03.2019 03:27 8,1 °C 75 % 1013,7 hPa 0,0 mm 22,5 km/h (4 Bft) NW 304 ° 0 min 0,000 mm 0,0 UV-I 0 W/m² 3,9 °C 4,7 °C 33,8 km/h (5 Bft)
16.03.2019 03:28 8,1 °C 75 % 1013,6 hPa 0,0 mm 27,1 km/h (4 Bft) NW 306 ° 0 min 0,000 mm 0,0 UV-I 0 W/m² 3,9 °C 4,3 °C 45,1 km/h (6 Bft)
16.03.2019 03:29 8,1 °C 75 % 1013,6 hPa 0,0 mm 19,2 km/h (3 Bft) W-NW 287 ° 0 min 0,000 mm 0,0 UV-I 0 W/m² 3,9 °C 5,1 °C 32,2 km/h (5 Bft)
16.03.2019 03:30 8,1 °C 75 % 1013,6 hPa 0,0 mm 24,0 km/h (4 Bft) W-NW 287 ° 0 min 0,000 mm 0,0 UV-I 0 W/m² 3,9 °C 4,6 °C 40,2 km/h (6 Bft)
16.03.2019 03:31 8,1 °C 75 % 1013,6 hPa 0,0 mm 22,9 km/h (4 Bft) W-NW 297 ° 0 min 0,000 mm 0,0 UV-I 0 W/m² 3,9 °C 4,7 °C 29,0 km/h (5 Bft)
16.03.2019 03:32 8,1 °C 75 % 1013,6 hPa 0,0 mm 20,0 km/h (4 Bft) W 269 ° 0 min 0,000 mm 0,0 UV-I 0 W/m² 3,9 °C 5,0 °C 30,6 km/h (5 Bft)
16.03.2019 03:33 8,1 °C 75 % 1013,6 hPa 0,0 mm 18,8 km/h (3 Bft) S-SO 157 ° 0 min 0,000 mm 0,0 UV-I 0 W/m² 3,9 °C 5,1 °C 24,1 km/h (4 Bft)
16.03.2019 03:34 8,2 °C 75 % 1013,6 hPa 0,0 mm 24,5 km/h (4 Bft) W-SW 249 ° 0 min 0,000 mm 0,0 UV-I 0 W/m² 4,0 °C 4,7 °C 40,2 km/h (6 Bft)
16.03.2019 03:35 8,1 °C 75 % 1013,7 hPa 0,0 mm 30,6 km/h (5 Bft) W 265 ° 0 min 0,000 mm 0,0 UV-I 0 W/m² 3,9 °C 4,1 °C 45,1 km/h (6 Bft)
16.03.2019 03:36 8,2 °C 74 % 1013,7 hPa 0,0 mm 32,3 km/h (5 Bft) W 261 ° 0 min 0,000 mm 0,0 UV-I 0 W/m² 3,8 °C 4,1 °C 51,5 km/h (7 Bft)
16.03.2019 03:37 8,1 °C 74 % 1013,6 hPa 0,0 mm 25,8 km/h (4 Bft) SW 236 ° 0 min 0,000 mm 0,0 UV-I 0 W/m² 3,8 °C 4,4 °C 41,8 km/h (6 Bft)
16.03.2019 03:38 8,2 °C 74 % 1013,6 hPa 0,0 mm 30,4 km/h (5 Bft) W-SW 252 ° 0 min 0,000 mm 0,0 UV-I 0 W/m² 3,8 °C 4,2 °C 41,8 km/h (6 Bft)
16.03.2019 03:39 8,2 °C 74 % 1013,7 hPa 0,0 mm 19,4 km/h (3 Bft) W-SW 246 ° 0 min 0,000 mm 0,0 UV-I 0 W/m² 3,8 °C 5,2 °C 30,6 km/h (5 Bft)
16.03.2019 03:40 8,2 °C 74 % 1013,7 hPa 0,0 mm 22,0 km/h (4 Bft) W 272 ° 0 min 0,000 mm 0,0 UV-I 0 W/m² 3,8 °C 4,9 °C 30,6 km/h (5 Bft)
16.03.2019 03:41 8,2 °C 74 % 1013,6 hPa 0,0 mm 15,2 km/h (3 Bft) W 265 ° 0 min 0,000 mm 0,0 UV-I 0 W/m² 3,8 °C 5,7 °C 25,7 km/h (4 Bft)
16.03.2019 03:42 8,2 °C 74 % 1013,6 hPa 0,0 mm 15,4 km/h (3 Bft) W-NW 284 ° 0 min 0,000 mm 0,0 UV-I 0 W/m² 3,8 °C 5,6 °C 22,5 km/h (4 Bft)
16.03.2019 03:43 8,2 °C 74 % 1013,8 hPa 0,0 mm 24,4 km/h (4 Bft) W-SW 256 ° 0 min 0,000 mm 0,0 UV-I 0 W/m² 3,8 °C 4,7 °C 40,2 km/h (6 Bft)
16.03.2019 03:44 8,2 °C 74 % 1013,7 hPa 0,0 mm 23,7 km/h (4 Bft) W 269 ° 0 min 0,000 mm 0,0 UV-I 0 W/m² 3,8 °C 4,7 °C 37,0 km/h (5 Bft)
16.03.2019 03:45 8,2 °C 74 % 1013,7 hPa 0,0 mm 20,9 km/h (4 Bft) W 277 ° 0 min 0,000 mm 0,0 UV-I 0 W/m² 3,8 °C 5,0 °C 29,0 km/h (5 Bft)
16.03.2019 03:46 8,2 °C 74 % 1013,8 hPa 0,0 mm 20,8 km/h (4 Bft) W 263 ° 0 min 0,000 mm 0,0 UV-I 0 W/m² 3,8 °C 5,0 °C 30,6 km/h (5 Bft)
16.03.2019 03:47 8,2 °C 74 % 1013,6 hPa 0,0 mm 20,5 km/h (4 Bft) W 273 ° 0 min 0,000 mm 0,0 UV-I 0 W/m² 3,8 °C 5,1 °C 29,0 km/h (5 Bft)
16.03.2019 03:48 8,2 °C 74 % 1013,6 hPa 0,0 mm 20,3 km/h (4 Bft) W-NW 299 ° 0 min 0,000 mm 0,0 UV-I 0 W/m² 3,8 °C 5,1 °C 29,0 km/h (5 Bft)
16.03.2019 03:49 8,2 °C 74 % 1013,6 hPa 0,0 mm 22,7 km/h (4 Bft) W 266 ° 0 min 0,000 mm 0,0 UV-I 0 W/m² 3,8 °C 4,8 °C 32,2 km/h (5 Bft)
16.03.2019 03:50 8,2 °C 74 % 1013,6 hPa 0,0 mm 23,8 km/h (4 Bft) W 271 ° 0 min 0,000 mm 0,0 UV-I 0 W/m² 3,8 °C 4,7 °C 43,5 km/h (6 Bft)
16.03.2019 03:51 8,2 °C 74 % 1013,6 hPa 0,0 mm 20,9 km/h (4 Bft) W-SW 248 ° 0 min 0,000 mm 0,0 UV-I 0 W/m² 3,8 °C 5,0 °C 25,7 km/h (4 Bft)
16.03.2019 03:52 8,2 °C 74 % 1013,7 hPa 0,0 mm 26,2 km/h (4 Bft) W-NW 294 ° 0 min 0,000 mm 0,0 UV-I 0 W/m² 3,8 °C 4,5 °C 32,2 km/h (5 Bft)
16.03.2019 03:53 8,2 °C 74 % 1013,7 hPa 0,0 mm 19,8 km/h (3 Bft) W 261 ° 0 min 0,000 mm 0,0 UV-I 0 W/m² 3,8 °C 5,1 °C 25,7 km/h (4 Bft)
16.03.2019 03:54 8,2 °C 74 % 1013,7 hPa 0,0 mm 20,1 km/h (4 Bft) W 281 ° 0 min 0,000 mm 0,0 UV-I 0 W/m² 3,8 °C 5,1 °C 27,4 km/h (4 Bft)
16.03.2019 03:55 8,2 °C 73 % 1013,6 hPa 0,0 mm 33,6 km/h (5 Bft) W 269 ° 0 min 0,000 mm 0,0 UV-I 0 W/m² 3,7 °C 4,0 °C 46,7 km/h (6 Bft)
16.03.2019 03:56 8,3 °C 73 % 1013,7 hPa 0,0 mm 20,8 km/h (4 Bft) W 277 ° 0 min 0,000 mm 0,0 UV-I 0 W/m² 3,8 °C 5,1 °C 33,8 km/h (5 Bft)
16.03.2019 03:57 8,3 °C 73 % 1013,7 hPa 0,0 mm 23,5 km/h (4 Bft) W 274 ° 0 min 0,000 mm 0,0 UV-I 0 W/m² 3,8 °C 4,9 °C 30,6 km/h (5 Bft)
16.03.2019 03:58 8,2 °C 73 % 1013,7 hPa 0,0 mm 16,9 km/h (3 Bft) W 277 ° 0 min 0,000 mm 0,0 UV-I 0 W/m² 3,7 °C 5,5 °C 20,9 km/h (4 Bft)
16.03.2019 03:59 8,3 °C 73 % 1013,7 hPa 0,0 mm 22,3 km/h (4 Bft) W 269 ° 0 min 0,000 mm 0,0 UV-I 0 W/m² 3,8 °C 5,0 °C 38,6 km/h (5 Bft)
16.03.2019 04:00 8,3 °C 73 % 1013,7 hPa 0,0 mm 20,9 km/h (4 Bft) W 274 ° 0 min 0,051 mm 0,0 UV-I 0 W/m² 3,8 °C 5,1 °C 38,6 km/h (5 Bft)
16.03.2019 04:01 8,3 °C 73 % 1013,7 hPa 0,0 mm 30,7 km/h (5 Bft) W-NW 299 ° 0 min 0,000 mm 0,0 UV-I 0 W/m² 3,8 °C 4,3 °C 35,4 km/h (5 Bft)
16.03.2019 04:02 8,3 °C 73 % 1013,9 hPa 0,0 mm 21,7 km/h (4 Bft) W 263 ° 0 min 0,000 mm 0,0 UV-I 0 W/m² 3,8 °C 5,1 °C 33,8 km/h (5 Bft)
16.03.2019 04:03 8,3 °C 73 % 1013,9 hPa 0,0 mm 28,7 km/h (4 Bft) W-SW 247 ° 0 min 0,000 mm 0,0 UV-I 0 W/m² 3,8 °C 4,5 °C 41,8 km/h (6 Bft)
16.03.2019 04:04 8,3 °C 73 % 1014,0 hPa 0,0 mm 28,2 km/h (4 Bft) SW 235 ° 0 min 0,000 mm 0,0 UV-I 0 W/m² 3,8 °C 4,5 °C 40,2 km/h (6 Bft)
16.03.2019 04:05 8,3 °C 73 % 1013,9 hPa 0,0 mm 24,5 km/h (4 Bft) W 271 ° 0 min 0,000 mm 0,0 UV-I 0 W/m² 3,8 °C 4,8 °C 33,8 km/h (5 Bft)
16.03.2019 04:06 8,3 °C 73 % 1014,0 hPa 0,0 mm 23,2 km/h (4 Bft) W 278 ° 0 min 0,000 mm 0,0 UV-I 0 W/m² 3,8 °C 4,9 °C 32,2 km/h (5 Bft)
16.03.2019 04:07 8,3 °C 73 % 1014,0 hPa 0,0 mm 19,6 km/h (3 Bft) W 265 ° 0 min 0,000 mm 0,0 UV-I 0 W/m² 3,8 °C 5,3 °C 30,6 km/h (5 Bft)
16.03.2019 04:08 8,3 °C 73 % 1013,9 hPa 0,0 mm 19,0 km/h (3 Bft) W 273 ° 0 min 0,000 mm 0,0 UV-I 0 W/m² 3,8 °C 5,3 °C 27,4 km/h (4 Bft)
16.03.2019 04:09 8,3 °C 73 % 1013,9 hPa 0,0 mm 19,7 km/h (3 Bft) W 281 ° 0 min 0,000 mm 0,0 UV-I 0 W/m² 3,8 °C 5,3 °C 29,0 km/h (5 Bft)
16.03.2019 04:10 8,2 °C 73 % 1013,9 hPa 0,0 mm 23,1 km/h (4 Bft) W-NW 302 ° 0 min 0,000 mm 0,0 UV-I 0 W/m² 3,7 °C 4,8 °C 32,2 km/h (5 Bft)
16.03.2019 04:11 8,3 °C 74 % 1014,0 hPa 0,0 mm 17,4 km/h (3 Bft) W-SW 256 ° 0 min 0,000 mm 0,0 UV-I 0 W/m² 3,9 °C 5,5 °C 37,0 km/h (5 Bft)
16.03.2019 04:12 8,2 °C 74 % 1013,9 hPa 0,0 mm 26,6 km/h (4 Bft) W-SW 254 ° 0 min 0,000 mm 0,0 UV-I 0 W/m² 3,8 °C 4,5 °C 38,6 km/h (5 Bft)
16.03.2019 04:13 8,2 °C 73 % 1014,0 hPa 0,0 mm 19,6 km/h (3 Bft) SW 234 ° 0 min 0,000 mm 0,0 UV-I 0 W/m² 3,7 °C 5,1 °C 27,4 km/h (4 Bft)
16.03.2019 04:14 8,2 °C 73 % 1014,0 hPa 0,0 mm 22,4 km/h (4 Bft) W 264 ° 0 min 0,000 mm 0,0 UV-I 0 W/m² 3,7 °C 4,9 °C 32,2 km/h (5 Bft)
16.03.2019 04:15 8,2 °C 74 % 1013,9 hPa 0,0 mm 26,9 km/h (4 Bft) W 278 ° 0 min 0,000 mm 0,0 UV-I 0 W/m² 3,8 °C 4,5 °C 40,2 km/h (6 Bft)
16.03.2019 04:16 8,2 °C 73 % 1014,1 hPa 0,0 mm 31,5 km/h (5 Bft) NW 316 ° 0 min 0,000 mm 0,0 UV-I 0 W/m² 3,7 °C 4,1 °C 43,5 km/h (6 Bft)
16.03.2019 04:17 8,2 °C 73 % 1014,0 hPa 0,0 mm 24,6 km/h (4 Bft) W 269 ° 0 min 0,000 mm 0,0 UV-I 0 W/m² 3,7 °C 4,7 °C 38,6 km/h (5 Bft)
16.03.2019 04:18 8,2 °C 73 % 1013,9 hPa 0,0 mm 18,4 km/h (3 Bft) W 276 ° 0 min 0,000 mm 0,0 UV-I 0 W/m² 3,7 °C 5,3 °C 25,7 km/h (4 Bft)
16.03.2019 04:19 8,2 °C 73 % 1013,9 hPa 0,0 mm 20,9 km/h (4 Bft) W-NW 288 ° 0 min 0,000 mm 0,0 UV-I 0 W/m² 3,7 °C 5,0 °C 32,2 km/h (5 Bft)
16.03.2019 04:20 8,2 °C 73 % 1013,9 hPa 0,0 mm 31,6 km/h (5 Bft) W 260 ° 0 min 0,000 mm 0,0 UV-I 0 W/m² 3,7 °C 4,1 °C 49,9 km/h (6 Bft)
16.03.2019 04:21 8,3 °C 73 % 1014,1 hPa 0,0 mm 26,8 km/h (4 Bft) W 269 ° 0 min 0,000 mm 0,0 UV-I 0 W/m² 3,8 °C 4,6 °C 38,6 km/h (5 Bft)
16.03.2019 04:22 8,3 °C 73 % 1013,9 hPa 0,0 mm 23,7 km/h (4 Bft) W-NW 294 ° 0 min 0,000 mm 0,0 UV-I 0 W/m² 3,8 °C 4,9 °C 30,6 km/h (5 Bft)
16.03.2019 04:23 8,3 °C 73 % 1013,9 hPa 0,0 mm 20,7 km/h (4 Bft) W-SW 257 ° 0 min 0,000 mm 0,0 UV-I 0 W/m² 3,8 °C 5,2 °C 29,0 km/h (5 Bft)
16.03.2019 04:24 8,3 °C 73 % 1014,1 hPa 0,0 mm 19,7 km/h (3 Bft) W-SW 249 ° 0 min 0,000 mm 0,0 UV-I 0 W/m² 3,8 °C 5,3 °C 38,6 km/h (5 Bft)
16.03.2019 04:25 8,2 °C 73 % 1013,9 hPa 0,0 mm 22,9 km/h (4 Bft) W-NW 297 ° 0 min 0,000 mm 0,0 UV-I 0 W/m² 3,7 °C 4,8 °C 37,0 km/h (5 Bft)
16.03.2019 04:26 8,2 °C 73 % 1014,1 hPa 0,0 mm 18,5 km/h (3 Bft) W-SW 241 ° 0 min 0,000 mm 0,0 UV-I 0 W/m² 3,7 °C 5,3 °C 22,5 km/h (4 Bft)
16.03.2019 04:27 8,2 °C 73 % 1014,1 hPa 0,0 mm 22,1 km/h (4 Bft) W-SW 251 ° 0 min 0,000 mm 0,0 UV-I 0 W/m² 3,7 °C 4,9 °C 32,2 km/h (5 Bft)
16.03.2019 04:28 8,2 °C 73 % 1014,1 hPa 0,0 mm 25,9 km/h (4 Bft) W 261 ° 0 min 0,000 mm 0,0 UV-I 0 W/m² 3,7 °C 4,6 °C 35,4 km/h (5 Bft)
16.03.2019 04:29 8,2 °C 73 % 1014,1 hPa 0,0 mm 30,4 km/h (5 Bft) W-SW 242 ° 0 min 0,000 mm 0,0 UV-I 0 W/m² 3,7 °C 4,2 °C 37,0 km/h (5 Bft)
16.03.2019 04:30 8,2 °C 74 % 1014,2 hPa 0,0 mm 27,7 km/h (4 Bft) W 272 ° 0 min 0,000 mm 0,0 UV-I 0 W/m² 3,8 °C 4,4 °C 35,4 km/h (5 Bft)
16.03.2019 04:31 8,2 °C 73 % 1014,1 hPa 0,0 mm 23,9 km/h (4 Bft) W 264 ° 0 min 0,000 mm 0,0 UV-I 0 W/m² 3,7 °C 4,7 °C 32,2 km/h (5 Bft)
16.03.2019 04:32 8,2 °C 73 % 1014,1 hPa 0,0 mm 29,2 km/h (5 Bft) W 281 ° 0 min 0,000 mm 0,0 UV-I 0 W/m² 3,7 °C 4,3 °C 45,1 km/h (6 Bft)
16.03.2019 04:33 8,2 °C 73 % 1014,0 hPa 0,0 mm 31,6 km/h (5 Bft) W-NW 297 ° 0 min 0,000 mm 0,0 UV-I 0 W/m² 3,7 °C 4,1 °C 43,5 km/h (6 Bft)
16.03.2019 04:34 8,2 °C 73 % 1014,1 hPa 0,0 mm 20,9 km/h (4 Bft) W-SW 258 ° 0 min 0,000 mm 0,0 UV-I 0 W/m² 3,7 °C 5,0 °C 32,2 km/h (5 Bft)
16.03.2019 04:35 8,2 °C 73 % 1014,1 hPa 0,0 mm 25,1 km/h (4 Bft) W-SW 247 ° 0 min 0,000 mm 0,0 UV-I 0 W/m² 3,7 °C 4,6 °C 48,3 km/h (6 Bft)
16.03.2019 04:36 8,2 °C 73 % 1014,2 hPa 0,0 mm 23,9 km/h (4 Bft) W-NW 301 ° 0 min 0,000 mm 0,0 UV-I 0 W/m² 3,7 °C 4,7 °C 33,8 km/h (5 Bft)
16.03.2019 04:37 8,2 °C 73 % 1014,2 hPa 0,0 mm 21,3 km/h (4 Bft) W 274 ° 0 min 0,000 mm 0,0 UV-I 0 W/m² 3,7 °C 5,0 °C 29,0 km/h (5 Bft)
16.03.2019 04:38 8,2 °C 73 % 1014,2 hPa 0,0 mm 24,6 km/h (4 Bft) W-NW 290 ° 0 min 0,000 mm 0,0 UV-I 0 W/m² 3,7 °C 4,7 °C 41,8 km/h (6 Bft)
16.03.2019 04:39 8,2 °C 73 % 1014,2 hPa 0,0 mm 20,0 km/h (4 Bft) W-SW 257 ° 0 min 0,000 mm 0,0 UV-I 0 W/m² 3,7 °C 5,1 °C 29,0 km/h (5 Bft)
16.03.2019 04:40 8,3 °C 73 % 1014,1 hPa 0,0 mm 20,0 km/h (4 Bft) W-NW 286 ° 0 min 0,000 mm 0,0 UV-I 0 W/m² 3,8 °C 5,2 °C 32,2 km/h (5 Bft)
16.03.2019 04:41 8,2 °C 73 % 1014,1 hPa 0,0 mm 21,3 km/h (4 Bft) W-NW 283 ° 0 min 0,000 mm 0,0 UV-I 0 W/m² 3,7 °C 5,0 °C 33,8 km/h (5 Bft)
16.03.2019 04:42 8,2 °C 73 % 1014,2 hPa 0,0 mm 23,5 km/h (4 Bft) W 266 ° 0 min 0,000 mm 0,0 UV-I 0 W/m² 3,7 °C 4,8 °C 30,6 km/h (5 Bft)
16.03.2019 04:43 8,2 °C 73 % 1014,1 hPa 0,0 mm 21,1 km/h (4 Bft) W-SW 258 ° 0 min 0,000 mm 0,0 UV-I 0 W/m² 3,7 °C 5,0 °C 27,4 km/h (4 Bft)
16.03.2019 04:44 8,2 °C 73 % 1014,2 hPa 0,0 mm 25,1 km/h (4 Bft) W-SW 247 ° 0 min 0,000 mm 0,0 UV-I 0 W/m² 3,7 °C 4,6 °C 37,0 km/h (5 Bft)
16.03.2019 04:45 8,2 °C 73 % 1014,1 hPa 0,0 mm 19,4 km/h (3 Bft) W 276 ° 0 min 0,000 mm 0,0 UV-I 0 W/m² 3,7 °C 5,2 °C 29,0 km/h (5 Bft)
16.03.2019 04:46 8,2 °C 74 % 1014,1 hPa 0,0 mm 18,1 km/h (3 Bft) W 280 ° 0 min 0,000 mm 0,0 UV-I 0 W/m² 3,8 °C 5,3 °C 27,4 km/h (4 Bft)
16.03.2019 04:47 8,2 °C 74 % 1014,1 hPa 0,0 mm 23,0 km/h (4 Bft) W 281 ° 0 min 0,000 mm 0,0 UV-I 0 W/m² 3,8 °C 4,8 °C 30,6 km/h (5 Bft)
16.03.2019 04:48 8,1 °C 74 % 1014,2 hPa 0,0 mm 15,8 km/h (3 Bft) SW 224 ° 0 min 0,000 mm 0,0 UV-I 0 W/m² 3,8 °C 5,5 °C 24,1 km/h (4 Bft)
16.03.2019 04:49 8,1 °C 74 % 1014,2 hPa 0,0 mm 21,1 km/h (4 Bft) W-SW 252 ° 0 min 0,000 mm 0,0 UV-I 0 W/m² 3,8 °C 4,9 °C 29,0 km/h (5 Bft)
16.03.2019 04:50 8,1 °C 74 % 1014,1 hPa 0,0 mm 18,4 km/h (3 Bft) W 277 ° 0 min 0,000 mm 0,0 UV-I 0 W/m² 3,8 °C 5,2 °C 29,0 km/h (5 Bft)
16.03.2019 04:51 8,1 °C 74 % 1014,2 hPa 0,0 mm 24,3 km/h (4 Bft) W 279 ° 0 min 0,000 mm 0,0 UV-I 0 W/m² 3,8 °C 4,6 °C 35,4 km/h (5 Bft)
16.03.2019 04:52 8,1 °C 74 % 1014,2 hPa 0,0 mm 17,7 km/h (3 Bft) NW 308 ° 0 min 0,000 mm 0,0 UV-I 0 W/m² 3,8 °C 5,2 °C 22,5 km/h (4 Bft)
16.03.2019 04:53 8,1 °C 74 % 1014,2 hPa 0,0 mm 19,0 km/h (3 Bft) W 259 ° 0 min 0,000 mm 0,0 UV-I 0 W/m² 3,8 °C 5,1 °C 27,4 km/h (4 Bft)
16.03.2019 04:54 8,1 °C 74 % 1014,3 hPa 0,0 mm 18,2 km/h (3 Bft) SW 236 ° 0 min 0,000 mm 0,0 UV-I 0 W/m² 3,8 °C 5,2 °C 25,7 km/h (4 Bft)
16.03.2019 04:55 8,0 °C 74 % 1014,3 hPa 0,0 mm 21,2 km/h (4 Bft) W 270 ° 0 min 0,000 mm 0,0 UV-I 0 W/m² 3,7 °C 4,7 °C 29,0 km/h (5 Bft)
16.03.2019 04:56 8,0 °C 74 % 1014,2 hPa 0,0 mm 19,1 km/h (3 Bft) SW 229 ° 0 min 0,000 mm 0,0 UV-I 0 W/m² 3,7 °C 4,9 °C 24,1 km/h (4 Bft)
16.03.2019 04:57 8,0 °C 74 % 1014,2 hPa 0,0 mm 15,8 km/h (3 Bft) W 259 ° 0 min 0,000 mm 0,0 UV-I 0 W/m² 3,7 °C 5,3 °C 25,7 km/h (4 Bft)
16.03.2019 04:58 7,9 °C 74 % 1014,2 hPa 0,0 mm 26,0 km/h (4 Bft) W-NW 290 ° 0 min 0,000 mm 0,0 UV-I 0 W/m² 3,6 °C 4,2 °C 33,8 km/h (5 Bft)
16.03.2019 04:59 8,0 °C 74 % 1014,2 hPa 0,0 mm 18,5 km/h (3 Bft) W-SW 249 ° 0 min 0,000 mm 0,0 UV-I 0 W/m² 3,7 °C 5,0 °C 25,7 km/h (4 Bft)
16.03.2019 05:00 7,9 °C 74 % 1014,2 hPa 0,0 mm 14,3 km/h (3 Bft) SW 229 ° 0 min 0,051 mm 0,0 UV-I 0 W/m² 3,6 °C 5,4 °C 25,7 km/h (4 Bft)
16.03.2019 05:01 7,9 °C 74 % 1014,2 hPa 0,0 mm 16,2 km/h (3 Bft) W 270 ° 0 min 0,000 mm 0,0 UV-I 0 W/m² 3,6 °C 5,2 °C 25,7 km/h (4 Bft)
16.03.2019 05:02 7,9 °C 74 % 1014,3 hPa 0,0 mm 22,5 km/h (4 Bft) W 264 ° 0 min 0,000 mm 0,0 UV-I 0 W/m² 3,6 °C 4,5 °C 27,4 km/h (4 Bft)
16.03.2019 05:03 7,9 °C 74 % 1014,2 hPa 0,0 mm 22,5 km/h (4 Bft) W 274 ° 0 min 0,000 mm 0,0 UV-I 0 W/m² 3,6 °C 4,5 °C 32,2 km/h (5 Bft)
16.03.2019 05:04 7,9 °C 75 % 1014,1 hPa 0,0 mm 14,8 km/h (3 Bft) W-SW 246 ° 0 min 0,000 mm 0,0 UV-I 0 W/m² 3,7 °C 5,4 °C 20,9 km/h (4 Bft)
16.03.2019 05:05 7,9 °C 74 % 1014,3 hPa 0,0 mm 14,3 km/h (3 Bft) W 264 ° 0 min 0,000 mm 0,0 UV-I 0 W/m² 3,6 °C 5,4 °C 22,5 km/h (4 Bft)
16.03.2019 05:06 7,9 °C 75 % 1014,3 hPa 0,0 mm 17,7 km/h (3 Bft) W 273 ° 0 min 0,000 mm 0,0 UV-I 0 W/m² 3,7 °C 5,0 °C 25,7 km/h (4 Bft)
16.03.2019 05:07 7,8 °C 75 % 1014,3 hPa 0,0 mm 13,0 km/h (3 Bft) W-NW 289 ° 0 min 0,000 mm 0,0 UV-I 0 W/m² 3,7 °C 5,5 °C 19,3 km/h (3 Bft)
16.03.2019 05:08 7,8 °C 75 % 1014,3 hPa 0,0 mm 15,1 km/h (3 Bft) W-NW 298 ° 0 min 0,000 mm 0,0 UV-I 0 W/m² 3,7 °C 5,2 °C 20,9 km/h (4 Bft)
16.03.2019 05:09 7,8 °C 75 % 1014,3 hPa 0,0 mm 15,0 km/h (3 Bft) W-SW 250 ° 0 min 0,000 mm 0,0 UV-I 0 W/m² 3,7 °C 5,2 °C 19,3 km/h (3 Bft)
16.03.2019 05:10 7,8 °C 75 % 1014,4 hPa 0,0 mm 20,8 km/h (4 Bft) W 279 ° 0 min 0,000 mm 0,0 UV-I 0 W/m² 3,7 °C 4,5 °C 32,2 km/h (5 Bft)
16.03.2019 05:11 7,8 °C 75 % 1014,5 hPa 0,0 mm 16,5 km/h (3 Bft) W 277 ° 0 min 0,000 mm 0,0 UV-I 0 W/m² 3,7 °C 5,0 °C 25,7 km/h (4 Bft)
16.03.2019 05:12 7,8 °C 75 % 1014,4 hPa 0,0 mm 24,7 km/h (4 Bft) W-SW 248 ° 0 min 0,000 mm 0,0 UV-I 0 W/m² 3,7 °C 4,1 °C 35,4 km/h (5 Bft)
16.03.2019 05:13 7,8 °C 75 % 1014,5 hPa 0,0 mm 23,4 km/h (4 Bft) W 259 ° 0 min 0,000 mm 0,0 UV-I 0 W/m² 3,7 °C 4,3 °C 37,0 km/h (5 Bft)
16.03.2019 05:14 7,8 °C 75 % 1014,4 hPa 0,0 mm 25,3 km/h (4 Bft) W-SW 242 ° 0 min 0,000 mm 0,0 UV-I 0 W/m² 3,7 °C 4,1 °C 38,6 km/h (5 Bft)
16.03.2019 05:15 7,8 °C 75 % 1014,4 hPa 0,0 mm 32,7 km/h (5 Bft) W 277 ° 0 min 0,000 mm 0,0 UV-I 0 W/m² 3,7 °C 3,5 °C 45,1 km/h (6 Bft)
16.03.2019 05:16 7,8 °C 74 % 1014,4 hPa 0,0 mm 19,3 km/h (3 Bft) SW 235 ° 0 min 0,000 mm 0,0 UV-I 0 W/m² 3,5 °C 4,7 °C 32,2 km/h (5 Bft)
16.03.2019 05:17 7,9 °C 74 % 1014,5 hPa 0,0 mm 23,7 km/h (4 Bft) W-NW 287 ° 0 min 0,000 mm 0,0 UV-I 0 W/m² 3,6 °C 4,4 °C 38,6 km/h (5 Bft)
16.03.2019 05:18 7,9 °C 74 % 1014,5 hPa 0,0 mm 19,3 km/h (3 Bft) W-SW 254 ° 0 min 0,000 mm 0,0 UV-I 0 W/m² 3,6 °C 4,8 °C 27,4 km/h (4 Bft)
16.03.2019 05:19 7,9 °C 74 % 1014,6 hPa 0,0 mm 24,8 km/h (4 Bft) W-NW 294 ° 0 min 0,000 mm 0,0 UV-I 0 W/m² 3,6 °C 4,3 °C 40,2 km/h (6 Bft)
16.03.2019 05:20 8,0 °C 74 % 1014,5 hPa 0,0 mm 19,9 km/h (4 Bft) W-SW 247 ° 0 min 0,000 mm 0,0 UV-I 0 W/m² 3,7 °C 4,9 °C 27,4 km/h (4 Bft)
16.03.2019 05:21 8,0 °C 74 % 1014,6 hPa 0,0 mm 22,5 km/h (4 Bft) W-SW 243 ° 0 min 0,000 mm 0,0 UV-I 0 W/m² 3,7 °C 4,6 °C 33,8 km/h (5 Bft)
16.03.2019 05:22 8,0 °C 74 % 1014,6 hPa 0,0 mm 23,9 km/h (4 Bft) W-SW 254 ° 0 min 0,000 mm 0,0 UV-I 0 W/m² 3,7 °C 4,5 °C 37,0 km/h (5 Bft)
16.03.2019 05:23 7,9 °C 74 % 1014,5 hPa 0,0 mm 21,8 km/h (4 Bft) SW 232 ° 0 min 0,000 mm 0,0 UV-I 0 W/m² 3,6 °C 4,5 °C 32,2 km/h (5 Bft)
16.03.2019 05:24 8,0 °C 74 % 1014,5 hPa 0,0 mm 21,1 km/h (4 Bft) W 261 ° 0 min 0,000 mm 0,0 UV-I 0 W/m² 3,7 °C 4,7 °C 35,4 km/h (5 Bft)
16.03.2019 05:25 8,1 °C 74 % 1014,6 hPa 0,0 mm 17,3 km/h (3 Bft) W-SW 258 ° 0 min 0,000 mm 0,0 UV-I 0 W/m² 3,8 °C 5,3 °C 25,7 km/h (4 Bft)
16.03.2019 05:26 8,0 °C 74 % 1014,6 hPa 0,0 mm 15,7 km/h (3 Bft) W 279 ° 0 min 0,000 mm 0,0 UV-I 0 W/m² 3,7 °C 5,4 °C 20,9 km/h (4 Bft)
16.03.2019 05:27 8,0 °C 74 % 1014,6 hPa 0,0 mm 19,2 km/h (3 Bft) W-SW 254 ° 0 min 0,000 mm 0,0 UV-I 0 W/m² 3,7 °C 4,9 °C 24,1 km/h (4 Bft)
16.03.2019 05:28 8,0 °C 74 % 1014,5 hPa 0,0 mm 24,8 km/h (4 Bft) W-SW 251 ° 0 min 0,000 mm 0,0 UV-I 0 W/m² 3,7 °C 4,4 °C 37,0 km/h (5 Bft)
16.03.2019 05:29 8,1 °C 74 % 1014,6 hPa 0,0 mm 24,8 km/h (4 Bft) W 266 ° 0 min 0,000 mm 0,0 UV-I 0 W/m² 3,8 °C 4,5 °C 35,4 km/h (5 Bft)
16.03.2019 05:30 8,0 °C 74 % 1014,6 hPa 0,0 mm 20,6 km/h (4 Bft) W 274 ° 0 min 0,000 mm 0,0 UV-I 0 W/m² 3,7 °C 4,8 °C 37,0 km/h (5 Bft)
16.03.2019 05:31 8,0 °C 74 % 1014,6 hPa 0,0 mm 20,9 km/h (4 Bft) NW 313 ° 0 min 0,000 mm 0,0 UV-I 0 W/m² 3,7 °C 4,8 °C 25,7 km/h (4 Bft)
16.03.2019 05:32 8,0 °C 74 % 1014,6 hPa 0,0 mm 19,8 km/h (3 Bft) W-SW 246 ° 0 min 0,000 mm 0,0 UV-I 0 W/m² 3,7 °C 4,9 °C 32,2 km/h (5 Bft)
16.03.2019 05:33 8,0 °C 74 % 1014,5 hPa 0,0 mm 18,8 km/h (3 Bft) W 263 ° 0 min 0,000 mm 0,0 UV-I 0 W/m² 3,7 °C 5,0 °C 29,0 km/h (5 Bft)
16.03.2019 05:34 8,0 °C 74 % 1014,5 hPa 0,0 mm 18,5 km/h (3 Bft) W 277 ° 0 min 0,000 mm 0,0 UV-I 0 W/m² 3,7 °C 5,0 °C 25,7 km/h (4 Bft)
16.03.2019 05:35 7,9 °C 74 % 1014,5 hPa 0,0 mm 24,3 km/h (4 Bft) W-SW 250 ° 0 min 0,000 mm 0,0 UV-I 0 W/m² 3,6 °C 4,3 °C 27,4 km/h (4 Bft)
16.03.2019 05:36 7,9 °C 74 % 1014,4 hPa 0,0 mm 19,4 km/h (3 Bft) W-NW 290 ° 0 min 0,000 mm 0,0 UV-I 0 W/m² 3,6 °C 4,8 °C 25,7 km/h (4 Bft)
16.03.2019 05:37 7,9 °C 74 % 1014,5 hPa 0,0 mm 23,9 km/h (4 Bft) W-NW 286 ° 0 min 0,000 mm 0,0 UV-I 0 W/m² 3,6 °C 4,3 °C 37,0 km/h (5 Bft)
16.03.2019 05:38 7,9 °C 74 % 1014,4 hPa 0,0 mm 29,5 km/h (5 Bft) W-SW 258 ° 0 min 0,000 mm 0,0 UV-I 0 W/m² 3,6 °C 3,9 °C 43,5 km/h (6 Bft)
16.03.2019 05:39 7,9 °C 74 % 1014,5 hPa 0,0 mm 22,4 km/h (4 Bft) W 281 ° 0 min 0,000 mm 0,0 UV-I 0 W/m² 3,6 °C 4,5 °C 29,0 km/h (5 Bft)
16.03.2019 05:40 7,9 °C 74 % 1014,5 hPa 0,0 mm 23,1 km/h (4 Bft) W-SW 258 ° 0 min 0,000 mm 0,0 UV-I 0 W/m² 3,6 °C 4,4 °C 27,4 km/h (4 Bft)
16.03.2019 05:41 7,9 °C 74 % 1014,6 hPa 0,0 mm 20,0 km/h (4 Bft) W 263 ° 0 min 0,000 mm 0,0 UV-I 0 W/m² 3,6 °C 4,7 °C 32,2 km/h (5 Bft)
16.03.2019 05:42 7,9 °C 74 % 1014,6 hPa 0,0 mm 23,1 km/h (4 Bft) W-SW 251 ° 0 min 0,000 mm 0,0 UV-I 0 W/m² 3,6 °C 4,4 °C 33,8 km/h (5 Bft)
16.03.2019 05:43 7,9 °C 74 % 1014,4 hPa 0,0 mm 18,5 km/h (3 Bft) W 265 ° 0 min 0,000 mm 0,0 UV-I 0 W/m² 3,6 °C 4,9 °C 32,2 km/h (5 Bft)
16.03.2019 05:44 7,9 °C 74 % 1014,4 hPa 0,0 mm 18,8 km/h (3 Bft) W-NW 298 ° 0 min 0,000 mm 0,0 UV-I 0 W/m² 3,6 °C 4,9 °C 27,4 km/h (4 Bft)
16.03.2019 05:45 7,9 °C 74 % 1014,4 hPa 0,0 mm 21,5 km/h (4 Bft) W-SW 247 ° 0 min 0,000 mm 0,0 UV-I 0 W/m² 3,6 °C 4,6 °C 37,0 km/h (5 Bft)
16.03.2019 05:46 7,9 °C 74 % 1014,3 hPa 0,0 mm 19,1 km/h (3 Bft) W 263 ° 0 min 0,000 mm 0,0 UV-I 0 W/m² 3,6 °C 4,8 °C 25,7 km/h (4 Bft)
16.03.2019 05:47 7,9 °C 74 % 1014,2 hPa 0,0 mm 23,7 km/h (4 Bft) W-SW 254 ° 0 min 0,000 mm 0,0 UV-I 0 W/m² 3,6 °C 4,4 °C 37,0 km/h (5 Bft)
16.03.2019 05:48 7,9 °C 74 % 1014,3 hPa 0,0 mm 22,4 km/h (4 Bft) W 281 ° 0 min 0,000 mm 0,0 UV-I 0 W/m² 3,6 °C 4,5 °C 38,6 km/h (5 Bft)
16.03.2019 05:49 7,9 °C 73 % 1014,3 hPa 0,0 mm 28,1 km/h (4 Bft) W 259 ° 0 min 0,000 mm 0,0 UV-I 0 W/m² 3,4 °C 4,0 °C 38,6 km/h (5 Bft)
16.03.2019 05:50 7,9 °C 74 % 1014,4 hPa 0,0 mm 14,1 km/h (3 Bft) W 275 ° 0 min 0,000 mm 0,0 UV-I 0 W/m² 3,6 °C 5,4 °C 19,3 km/h (3 Bft)
16.03.2019 05:51 7,9 °C 74 % 1014,3 hPa 0,0 mm 14,3 km/h (3 Bft) W 270 ° 0 min 0,000 mm 0,0 UV-I 0 W/m² 3,6 °C 5,4 °C 19,3 km/h (3 Bft)
16.03.2019 05:52 7,9 °C 74 % 1014,3 hPa 0,0 mm 16,0 km/h (3 Bft) W 259 ° 0 min 0,000 mm 0,0 UV-I 0 W/m² 3,6 °C 5,2 °C 22,5 km/h (4 Bft)
16.03.2019 05:53 7,9 °C 74 % 1014,3 hPa 0,0 mm 23,9 km/h (4 Bft) W 280 ° 0 min 0,000 mm 0,0 UV-I 0 W/m² 3,6 °C 4,3 °C 33,8 km/h (5 Bft)
16.03.2019 05:54 7,9 °C 74 % 1014,3 hPa 0,0 mm 18,2 km/h (3 Bft) W 270 ° 0 min 0,000 mm 0,0 UV-I 0 W/m² 3,6 °C 4,9 °C 29,0 km/h (5 Bft)
16.03.2019 05:55 7,9 °C 73 % 1014,2 hPa 0,0 mm 21,0 km/h (4 Bft) W-NW 299 ° 0 min 0,000 mm 0,0 UV-I 0 W/m² 3,4 °C 4,6 °C 25,7 km/h (4 Bft)
16.03.2019 05:56 7,9 °C 73 % 1014,2 hPa 0,0 mm 17,1 km/h (3 Bft) W 271 ° 0 min 0,000 mm 0,0 UV-I 0 W/m² 3,4 °C 5,1 °C 27,4 km/h (4 Bft)
16.03.2019 05:57 7,8 °C 74 % 1014,1 hPa 0,0 mm 20,6 km/h (4 Bft) W-NW 293 ° 0 min 0,000 mm 0,0 UV-I 0 W/m² 3,5 °C 4,5 °C 29,0 km/h (5 Bft)
16.03.2019 05:58 7,8 °C 73 % 1014,0 hPa 0,0 mm 21,1 km/h (4 Bft) W 273 ° 0 min 0,000 mm 0,0 UV-I 0 W/m² 3,3 °C 4,5 °C 32,2 km/h (5 Bft)
16.03.2019 05:59 7,8 °C 74 % 1014,1 hPa 0,0 mm 23,5 km/h (4 Bft) W-SW 247 ° 0 min 0,000 mm 0,0 UV-I 0 W/m² 3,5 °C 4,3 °C 33,8 km/h (5 Bft)
16.03.2019 06:00 7,8 °C 73 % 1014,1 hPa 0,0 mm 24,1 km/h (4 Bft) W 264 ° 0 min 0,000 mm 0,0 UV-I 0 W/m² 3,3 °C 4,2 °C 33,8 km/h (5 Bft)
16.03.2019 06:01 7,8 °C 73 % 1014,1 hPa 0,0 mm 19,9 km/h (4 Bft) W 277 ° 0 min 0,051 mm 0,0 UV-I 0 W/m² 3,3 °C 4,6 °C 32,2 km/h (5 Bft)
16.03.2019 06:02 7,8 °C 73 % 1014,0 hPa 0,0 mm 22,2 km/h (4 Bft) SW 236 ° 0 min 0,000 mm 0,0 UV-I 0 W/m² 3,3 °C 4,4 °C 30,6 km/h (5 Bft)
16.03.2019 06:03 7,8 °C 73 % 1014,0 hPa 0,0 mm 15,2 km/h (3 Bft) W-SW 244 ° 0 min 0,000 mm 0,0 UV-I 0 W/m² 3,3 °C 5,2 °C 20,9 km/h (4 Bft)
16.03.2019 06:04 7,8 °C 73 % 1014,0 hPa 0,0 mm 19,3 km/h (3 Bft) W 274 ° 0 min 0,000 mm 0,0 UV-I 0 W/m² 3,3 °C 4,7 °C 32,2 km/h (5 Bft)
16.03.2019 06:05 7,8 °C 73 % 1014,1 hPa 0,0 mm 32,1 km/h (5 Bft) W 272 ° 0 min 0,000 mm 0,0 UV-I 0 W/m² 3,3 °C 3,5 °C 41,8 km/h (6 Bft)
16.03.2019 06:06 7,8 °C 73 % 1014,0 hPa 0,0 mm 36,8 km/h (5 Bft) W 275 ° 0 min 0,000 mm 0,0 UV-I 0 W/m² 3,3 °C 3,2 °C 54,7 km/h (7 Bft)
16.03.2019 06:07 7,8 °C 73 % 1013,9 hPa 0,0 mm 28,9 km/h (5 Bft) W-NW 284 ° 0 min 0,000 mm 0,0 UV-I 0 W/m² 3,3 °C 3,8 °C 43,5 km/h (6 Bft)
16.03.2019 06:08 7,8 °C 73 % 1014,0 hPa 0,0 mm 31,6 km/h (5 Bft) W-NW 291 ° 0 min 0,000 mm 0,0 UV-I 0 W/m² 3,3 °C 3,6 °C 38,6 km/h (5 Bft)
16.03.2019 06:09 7,8 °C 73 % 1014,0 hPa 0,0 mm 27,1 km/h (4 Bft) W 272 ° 0 min 0,000 mm 0,0 UV-I 0 W/m² 3,3 °C 3,9 °C 43,5 km/h (6 Bft)
16.03.2019 06:10 7,8 °C 73 % 1013,9 hPa 0,0 mm 20,9 km/h (4 Bft) W 263 ° 0 min 0,000 mm 0,0 UV-I 0 W/m² 3,3 °C 4,5 °C 30,6 km/h (5 Bft)
16.03.2019 06:11 7,9 °C 73 % 1013,9 hPa 0,0 mm 26,8 km/h (4 Bft) W 264 ° 0 min 0,000 mm 0,0 UV-I 0 W/m² 3,4 °C 4,1 °C 37,0 km/h (5 Bft)
16.03.2019 06:12 7,8 °C 73 % 1014,1 hPa 0,0 mm 25,1 km/h (4 Bft) W 276 ° 0 min 0,000 mm 0,0 UV-I 0 W/m² 3,3 °C 4,1 °C 45,1 km/h (6 Bft)
16.03.2019 06:13 7,8 °C 73 % 1014,0 hPa 0,0 mm 26,8 km/h (4 Bft) W 280 ° 0 min 0,000 mm 0,0 UV-I 0 W/m² 3,3 °C 4,0 °C 41,8 km/h (6 Bft)
16.03.2019 06:14 7,9 °C 72 % 1014,0 hPa 0,0 mm 25,3 km/h (4 Bft) W-SW 250 ° 0 min 0,000 mm 0,0 UV-I 0 W/m² 3,2 °C 4,2 °C 37,0 km/h (5 Bft)
16.03.2019 06:15 7,9 °C 73 % 1014,0 hPa 0,0 mm 38,1 km/h (5 Bft) W 262 ° 0 min 0,000 mm 0,0 UV-I 0 W/m² 3,4 °C 3,3 °C 56,3 km/h (7 Bft)
16.03.2019 06:16 7,9 °C 72 % 1013,9 hPa 0,0 mm 32,2 km/h (5 Bft) W-NW 302 ° 0 min 0,000 mm 0,0 UV-I 0 W/m² 3,2 °C 3,7 °C 46,7 km/h (6 Bft)
16.03.2019 06:17 7,9 °C 73 % 1013,9 hPa 0,0 mm 19,5 km/h (3 Bft) W-SW 254 ° 0 min 0,000 mm 0,0 UV-I 0 W/m² 3,4 °C 4,8 °C 25,7 km/h (4 Bft)
16.03.2019 06:18 7,9 °C 73 % 1013,9 hPa 0,0 mm 18,6 km/h (3 Bft) W 276 ° 0 min 0,000 mm 0,0 UV-I 0 W/m² 3,4 °C 4,9 °C 29,0 km/h (5 Bft)
16.03.2019 06:19 7,9 °C 73 % 1013,9 hPa 0,0 mm 24,2 km/h (4 Bft) W-SW 249 ° 0 min 0,000 mm 0,0 UV-I 0 W/m² 3,4 °C 4,3 °C 41,8 km/h (6 Bft)
16.03.2019 06:20 7,9 °C 73 % 1014,0 hPa 0,0 mm 23,2 km/h (4 Bft) W-SW 249 ° 0 min 0,000 mm 0,0 UV-I 0 W/m² 3,4 °C 4,4 °C 43,5 km/h (6 Bft)
16.03.2019 06:21 7,9 °C 73 % 1014,0 hPa 0,0 mm 19,7 km/h (3 Bft) W-NW 286 ° 0 min 0,000 mm 0,0 UV-I 0 W/m² 3,4 °C 4,8 °C 27,4 km/h (4 Bft)
16.03.2019 06:22 7,8 °C 73 % 1014,0 hPa 0,0 mm 23,9 km/h (4 Bft) W-SW 253 ° 0 min 0,000 mm 0,0 UV-I 0 W/m² 3,3 °C 4,2 °C 33,8 km/h (5 Bft)
16.03.2019 06:23 7,9 °C 72 % 1014,0 hPa 0,0 mm 26,6 km/h (4 Bft) W-NW 299 ° 0 min 0,000 mm 0,0 UV-I 0 W/m² 3,2 °C 4,1 °C 30,6 km/h (5 Bft)
16.03.2019 06:24 7,9 °C 72 % 1014,0 hPa 0,0 mm 29,5 km/h (5 Bft) W-SW 255 ° 0 min 0,000 mm 0,0 UV-I 0 W/m² 3,2 °C 3,9 °C 40,2 km/h (6 Bft)
16.03.2019 06:25 7,9 °C 72 % 1014,0 hPa 0,0 mm 17,8 km/h (3 Bft) W 263 ° 0 min 0,000 mm 0,0 UV-I 0 W/m² 3,2 °C 5,0 °C 29,0 km/h (5 Bft)
16.03.2019 06:26 7,9 °C 72 % 1014,0 hPa 0,0 mm 21,0 km/h (4 Bft) W 266 ° 0 min 0,000 mm 0,0 UV-I 0 W/m² 3,2 °C 4,6 °C 37,0 km/h (5 Bft)
16.03.2019 06:27 7,8 °C 72 % 1014,0 hPa 0,0 mm 18,2 km/h (3 Bft) W-SW 248 ° 0 min 0,000 mm 0,0 UV-I 0 W/m² 3,1 °C 4,8 °C 24,1 km/h (4 Bft)
16.03.2019 06:28 7,8 °C 72 % 1014,0 hPa 0,0 mm 19,6 km/h (3 Bft) W 261 ° 0 min 0,000 mm 0,0 UV-I 0 W/m² 3,1 °C 4,6 °C 32,2 km/h (5 Bft)
16.03.2019 06:29 7,8 °C 73 % 1013,9 hPa 0,0 mm 24,7 km/h (4 Bft) W 266 ° 0 min 0,000 mm 0,0 UV-I 0 W/m² 3,3 °C 4,1 °C 35,4 km/h (5 Bft)
16.03.2019 06:30 7,8 °C 73 % 1013,9 hPa 0,0 mm 26,8 km/h (4 Bft) W-NW 285 ° 0 min 0,000 mm 0,0 UV-I 0 W/m² 3,3 °C 4,0 °C 35,4 km/h (5 Bft)
16.03.2019 06:31 7,8 °C 73 % 1013,9 hPa 0,0 mm 23,2 km/h (4 Bft) W 273 ° 0 min 0,000 mm 0,0 UV-I 0 W/m² 3,3 °C 4,3 °C 32,2 km/h (5 Bft)
16.03.2019 06:32 7,8 °C 73 % 1013,9 hPa 0,0 mm 24,0 km/h (4 Bft) W-NW 299 ° 0 min 0,000 mm 0,0 UV-I 0 W/m² 3,3 °C 4,2 °C 30,6 km/h (5 Bft)
16.03.2019 06:33 7,8 °C 72 % 1013,9 hPa 0,0 mm 27,9 km/h (4 Bft) W 263 ° 0 min 0,000 mm 0,0 UV-I 0 W/m² 3,1 °C 3,9 °C 45,1 km/h (6 Bft)
16.03.2019 06:34 7,8 °C 73 % 1013,9 hPa 0,0 mm 23,0 km/h (4 Bft) W 279 ° 0 min 0,000 mm 0,0 UV-I 0 W/m² 3,3 °C 4,3 °C 35,4 km/h (5 Bft)
16.03.2019 06:35 7,8 °C 73 % 1013,9 hPa 0,0 mm 18,3 km/h (3 Bft) W-SW 250 ° 0 min 0,000 mm 0,0 UV-I 0 W/m² 3,3 °C 4,8 °C 24,1 km/h (4 Bft)
16.03.2019 06:36 7,8 °C 73 % 1013,9 hPa 0,0 mm 21,8 km/h (4 Bft) W 274 ° 0 min 0,000 mm 0,0 UV-I 0 W/m² 3,3 °C 4,4 °C 29,0 km/h (5 Bft)
16.03.2019 06:37 7,7 °C 73 % 1013,8 hPa 0,0 mm 25,9 km/h (4 Bft) W 269 ° 0 min 0,000 mm 0,0 UV-I 0 W/m² 3,2 °C 3,9 °C 41,8 km/h (6 Bft)
16.03.2019 06:38 7,7 °C 73 % 1013,9 hPa 0,0 mm 24,7 km/h (4 Bft) W-SW 252 ° 0 min 0,000 mm 0,0 UV-I 0 W/m² 3,2 °C 4,0 °C 43,5 km/h (6 Bft)
16.03.2019 06:39 7,7 °C 73 % 1013,9 hPa 0,0 mm 25,1 km/h (4 Bft) W 259 ° 0 min 0,000 mm 0,0 UV-I 5 W/m² 3,2 °C 4,0 °C 37,0 km/h (5 Bft)
16.03.2019 06:40 7,7 °C 72 % 1013,9 hPa 0,0 mm 24,3 km/h (4 Bft) SW 218 ° 0 min 0,000 mm 0,0 UV-I 5 W/m² 3,0 °C 4,0 °C 38,6 km/h (5 Bft)
16.03.2019 06:41 7,7 °C 72 % 1013,8 hPa 0,0 mm 23,0 km/h (4 Bft) W 260 ° 0 min 0,000 mm 0,0 UV-I 5 W/m² 3,0 °C 4,2 °C 33,8 km/h (5 Bft)
16.03.2019 06:42 7,7 °C 73 % 1013,8 hPa 0,0 mm 21,9 km/h (4 Bft) W 277 ° 0 min 0,000 mm 0,0 UV-I 5 W/m² 3,2 °C 4,3 °C 29,0 km/h (5 Bft)
16.03.2019 06:43 7,7 °C 73 % 1013,8 hPa 0,0 mm 20,2 km/h (4 Bft) SW 218 ° 0 min 0,000 mm 0,0 UV-I 5 W/m² 3,2 °C 4,5 °C 24,1 km/h (4 Bft)
16.03.2019 06:44 7,7 °C 73 % 1013,8 hPa 0,0 mm 25,6 km/h (4 Bft) W-NW 286 ° 0 min 0,000 mm 0,0 UV-I 5 W/m² 3,2 °C 3,9 °C 37,0 km/h (5 Bft)
16.03.2019 06:45 7,7 °C 73 % 1013,9 hPa 0,0 mm 28,2 km/h (4 Bft) W 263 ° 0 min 0,000 mm 0,0 UV-I 5 W/m² 3,2 °C 3,7 °C 43,5 km/h (6 Bft)
16.03.2019 06:46 7,7 °C 73 % 1014,0 hPa 0,0 mm 25,9 km/h (4 Bft) W 270 ° 0 min 0,000 mm 0,0 UV-I 7 W/m² 3,2 °C 3,9 °C 35,4 km/h (5 Bft)
16.03.2019 06:47 7,7 °C 73 % 1013,9 hPa 0,0 mm 20,9 km/h (4 Bft) W-NW 288 ° 0 min 0,000 mm 0,0 UV-I 7 W/m² 3,2 °C 4,4 °C 37,0 km/h (5 Bft)
16.03.2019 06:48 7,7 °C 73 % 1013,8 hPa 0,0 mm 23,6 km/h (4 Bft) W 265 ° 0 min 0,000 mm 0,0 UV-I 7 W/m² 3,2 °C 4,1 °C 40,2 km/h (6 Bft)
16.03.2019 06:49 7,7 °C 73 % 1014,0 hPa 0,0 mm 32,7 km/h (5 Bft) W 279 ° 0 min 0,000 mm 0,0 UV-I 7 W/m² 3,2 °C 3,4 °C 51,5 km/h (7 Bft)
16.03.2019 06:50 7,7 °C 73 % 1013,9 hPa 0,0 mm 19,8 km/h (3 Bft) SW 230 ° 0 min 0,000 mm 0,0 UV-I 7 W/m² 3,2 °C 4,5 °C 33,8 km/h (5 Bft)
16.03.2019 06:51 7,7 °C 73 % 1013,9 hPa 0,0 mm 24,8 km/h (4 Bft) W 275 ° 0 min 0,000 mm 0,0 UV-I 7 W/m² 3,2 °C 4,0 °C 38,6 km/h (5 Bft)
16.03.2019 06:52 7,7 °C 73 % 1013,9 hPa 0,0 mm 19,0 km/h (3 Bft) W 265 ° 0 min 0,000 mm 0,0 UV-I 7 W/m² 3,2 °C 4,6 °C 30,6 km/h (5 Bft)
16.03.2019 06:53 7,7 °C 73 % 1013,9 hPa 0,0 mm 15,8 km/h (3 Bft) S 191 ° 0 min 0,000 mm 0,0 UV-I 9 W/m² 3,2 °C 5,0 °C 25,7 km/h (4 Bft)
16.03.2019 06:54 7,7 °C 73 % 1013,9 hPa 0,0 mm 24,5 km/h (4 Bft) W 265 ° 0 min 0,000 mm 0,0 UV-I 9 W/m² 3,2 °C 4,0 °C 30,6 km/h (5 Bft)
16.03.2019 06:55 7,7 °C 73 % 1013,8 hPa 0,0 mm 19,2 km/h (3 Bft) W 273 ° 0 min 0,000 mm 0,0 UV-I 9 W/m² 3,2 °C 4,6 °C 25,7 km/h (4 Bft)
16.03.2019 06:56 7,7 °C 73 % 1013,8 hPa 0,0 mm 27,5 km/h (4 Bft) W-SW 248 ° 0 min 0,000 mm 0,0 UV-I 9 W/m² 3,2 °C 3,8 °C 51,5 km/h (7 Bft)
16.03.2019 06:57 7,7 °C 73 % 1013,9 hPa 0,0 mm 22,5 km/h (4 Bft) W 274 ° 0 min 0,000 mm 0,0 UV-I 9 W/m² 3,2 °C 4,2 °C 33,8 km/h (5 Bft)
16.03.2019 06:58 7,7 °C 73 % 1013,9 hPa 0,0 mm 26,0 km/h (4 Bft) SW 220 ° 0 min 0,000 mm 0,0 UV-I 11 W/m² 3,2 °C 3,9 °C 35,4 km/h (5 Bft)
16.03.2019 06:59 7,7 °C 73 % 1013,9 hPa 0,0 mm 18,8 km/h (3 Bft) W-SW 238 ° 0 min 0,000 mm 0,0 UV-I 11 W/m² 3,2 °C 4,6 °C 27,4 km/h (4 Bft)
16.03.2019 07:00 7,7 °C 73 % 1013,9 hPa 0,0 mm 25,2 km/h (4 Bft) W-SW 244 ° 0 min 0,000 mm 0,0 UV-I 11 W/m² 3,2 °C 4,0 °C 37,0 km/h (5 Bft)
16.03.2019 07:01 7,7 °C 73 % 1013,9 hPa 0,0 mm 26,2 km/h (4 Bft) W 262 ° 0 min 0,076 mm 0,0 UV-I 11 W/m² 3,2 °C 3,9 °C 43,5 km/h (6 Bft)
16.03.2019 07:02 7,7 °C 73 % 1013,9 hPa 0,0 mm 25,5 km/h (4 Bft) W-NW 296 ° 0 min 0,000 mm 0,0 UV-I 11 W/m² 3,2 °C 3,9 °C 43,5 km/h (6 Bft)
16.03.2019 07:03 7,7 °C 73 % 1014,0 hPa 0,0 mm 25,0 km/h (4 Bft) W 261 ° 0 min 0,000 mm 0,0 UV-I 11 W/m² 3,2 °C 4,0 °C 32,2 km/h (5 Bft)
16.03.2019 07:04 7,7 °C 73 % 1013,9 hPa 0,0 mm 16,4 km/h (3 Bft) SW 231 ° 0 min 0,000 mm 0,0 UV-I 12 W/m² 3,2 °C 4,9 °C 32,2 km/h (5 Bft)
16.03.2019 07:05 7,7 °C 73 % 1013,9 hPa 0,0 mm 26,1 km/h (4 Bft) W-SW 251 ° 0 min 0,000 mm 0,0 UV-I 12 W/m² 3,2 °C 3,9 °C 49,9 km/h (6 Bft)
16.03.2019 07:06 7,7 °C 73 % 1014,0 hPa 0,0 mm 21,8 km/h (4 Bft) W-NW 297 ° 0 min 0,000 mm 0,0 UV-I 14 W/m² 3,2 °C 4,3 °C 35,4 km/h (5 Bft)
16.03.2019 07:07 7,7 °C 73 % 1013,9 hPa 0,0 mm 17,8 km/h (3 Bft) W-SW 258 ° 0 min 0,000 mm 0,0 UV-I 14 W/m² 3,2 °C 4,7 °C 25,7 km/h (4 Bft)
16.03.2019 07:08 7,7 °C 73 % 1014,0 hPa 0,0 mm 25,6 km/h (4 Bft) W 262 ° 0 min 0,000 mm 0,0 UV-I 14 W/m² 3,2 °C 3,9 °C 35,4 km/h (5 Bft)
16.03.2019 07:09 7,7 °C 73 % 1014,0 hPa 0,0 mm 17,2 km/h (3 Bft) W-SW 252 ° 0 min 0,000 mm 0,0 UV-I 14 W/m² 3,2 °C 4,8 °C 30,6 km/h (5 Bft)
16.03.2019 07:10 7,7 °C 73 % 1014,0 hPa 0,0 mm 20,7 km/h (4 Bft) W-SW 244 ° 0 min 0,000 mm 0,0 UV-I 16 W/m² 3,2 °C 4,4 °C 30,6 km/h (5 Bft)
16.03.2019 07:11 7,7 °C 73 % 1014,1 hPa 0,0 mm 20,0 km/h (4 Bft) W-SW 242 ° 0 min 0,000 mm 0,0 UV-I 16 W/m² 3,2 °C 4,5 °C 29,0 km/h (5 Bft)
16.03.2019 07:12 7,7 °C 73 % 1014,1 hPa 0,0 mm 21,1 km/h (4 Bft) W 262 ° 0 min 0,000 mm 0,0 UV-I 16 W/m² 3,2 °C 4,4 °C 41,8 km/h (6 Bft)
16.03.2019 07:13 7,7 °C 72 % 1014,1 hPa 0,0 mm 23,8 km/h (4 Bft) W 273 ° 0 min 0,000 mm 0,0 UV-I 16 W/m² 3,0 °C 4,1 °C 45,1 km/h (6 Bft)
16.03.2019 07:14 7,7 °C 73 % 1014,1 hPa 0,0 mm 23,3 km/h (4 Bft) W-SW 248 ° 0 min 0,000 mm 0,0 UV-I 18 W/m² 3,2 °C 4,1 °C 33,8 km/h (5 Bft)
16.03.2019 07:15 7,7 °C 73 % 1014,1 hPa 0,0 mm 18,8 km/h (3 Bft) W-SW 256 ° 0 min 0,000 mm 0,0 UV-I 18 W/m² 3,2 °C 4,6 °C 24,1 km/h (4 Bft)
16.03.2019 07:16 7,7 °C 73 % 1014,2 hPa 0,0 mm 21,1 km/h (4 Bft) W 271 ° 0 min 0,000 mm 0,0 UV-I 18 W/m² 3,2 °C 4,4 °C 32,2 km/h (5 Bft)
16.03.2019 07:17 7,7 °C 73 % 1014,2 hPa 0,0 mm 23,5 km/h (4 Bft) W-SW 252 ° 0 min 0,000 mm 0,0 UV-I 18 W/m² 3,2 °C 4,1 °C 30,6 km/h (5 Bft)
16.03.2019 07:18 7,7 °C 73 % 1014,2 hPa 0,0 mm 27,0 km/h (4 Bft) W-SW 248 ° 0 min 0,000 mm 0,0 UV-I 18 W/m² 3,2 °C 3,8 °C 41,8 km/h (6 Bft)
16.03.2019 07:19 7,7 °C 73 % 1014,2 hPa 0,0 mm 21,5 km/h (4 Bft) W 273 ° 0 min 0,000 mm 0,0 UV-I 18 W/m² 3,2 °C 4,3 °C 30,6 km/h (5 Bft)
16.03.2019 07:20 7,7 °C 73 % 1014,2 hPa 0,0 mm 20,1 km/h (4 Bft) NW 305 ° 0 min 0,000 mm 0,0 UV-I 19 W/m² 3,2 °C 4,5 °C 30,6 km/h (5 Bft)
16.03.2019 07:21 7,7 °C 73 % 1014,2 hPa 0,0 mm 19,9 km/h (4 Bft) W-NW 293 ° 0 min 0,000 mm 0,0 UV-I 21 W/m² 3,2 °C 4,5 °C 27,4 km/h (4 Bft)
16.03.2019 07:22 7,7 °C 72 % 1014,2 hPa 0,0 mm 18,9 km/h (3 Bft) W 270 ° 0 min 0,000 mm 0,0 UV-I 21 W/m² 3,0 °C 4,6 °C 25,7 km/h (4 Bft)
16.03.2019 07:23 7,7 °C 72 % 1014,2 hPa 0,0 mm 19,6 km/h (3 Bft) W 275 ° 0 min 0,000 mm 0,0 UV-I 23 W/m² 3,0 °C 4,5 °C 30,6 km/h (5 Bft)
16.03.2019 07:24 7,7 °C 72 % 1014,1 hPa 0,0 mm 22,2 km/h (4 Bft) W-NW 295 ° 0 min 0,000 mm 0,0 UV-I 25 W/m² 3,0 °C 4,2 °C 32,2 km/h (5 Bft)
16.03.2019 07:25 7,7 °C 72 % 1014,1 hPa 0,0 mm 22,0 km/h (4 Bft) W-SW 246 ° 0 min 0,000 mm 0,0 UV-I 25 W/m² 3,0 °C 4,3 °C 37,0 km/h (5 Bft)
16.03.2019 07:26 7,7 °C 72 % 1014,1 hPa 0,0 mm 18,5 km/h (3 Bft) W 272 ° 0 min 0,000 mm 0,0 UV-I 25 W/m² 3,0 °C 4,6 °C 33,8 km/h (5 Bft)
16.03.2019 07:27 7,7 °C 72 % 1014,1 hPa 0,0 mm 21,1 km/h (4 Bft) W 276 ° 0 min 0,000 mm 0,0 UV-I 26 W/m² 3,0 °C 4,4 °C 33,8 km/h (5 Bft)
16.03.2019 07:28 7,7 °C 72 % 1014,2 hPa 0,0 mm 22,0 km/h (4 Bft) W-SW 252 ° 0 min 0,000 mm 0,0 UV-I 26 W/m² 3,0 °C 4,3 °C 46,7 km/h (6 Bft)
16.03.2019 07:29 7,7 °C 72 % 1014,1 hPa 0,0 mm 20,3 km/h (4 Bft) W-NW 284 ° 0 min 0,000 mm 0,0 UV-I 30 W/m² 3,0 °C 4,4 °C 27,4 km/h (4 Bft)
16.03.2019 07:30 7,7 °C 72 % 1014,2 hPa 0,0 mm 18,8 km/h (3 Bft) W 261 ° 0 min 0,000 mm 0,0 UV-I 32 W/m² 3,0 °C 4,6 °C 25,7 km/h (4 Bft)
16.03.2019 07:31 7,8 °C 72 % 1014,2 hPa 0,0 mm 20,6 km/h (4 Bft) W-NW 290 ° 0 min 0,000 mm 0,0 UV-I 33 W/m² 3,1 °C 4,5 °C 35,4 km/h (5 Bft)
16.03.2019 07:32 7,7 °C 72 % 1014,2 hPa 0,0 mm 18,8 km/h (3 Bft) W-NW 302 ° 0 min 0,000 mm 0,0 UV-I 35 W/m² 3,0 °C 4,6 °C 25,7 km/h (4 Bft)
16.03.2019 07:33 7,7 °C 72 % 1014,2 hPa 0,0 mm 24,8 km/h (4 Bft) W-SW 258 ° 0 min 0,000 mm 0,0 UV-I 39 W/m² 3,0 °C 4,0 °C 30,6 km/h (5 Bft)
16.03.2019 07:34 7,8 °C 72 % 1014,2 hPa 0,0 mm 22,1 km/h (4 Bft) W-NW 296 ° 0 min 0,000 mm 0,0 UV-I 39 W/m² 3,1 °C 4,4 °C 29,0 km/h (5 Bft)
16.03.2019 07:35 7,8 °C 72 % 1014,2 hPa 0,0 mm 20,0 km/h (4 Bft) W-NW 302 ° 0 min 0,000 mm 0,0 UV-I 39 W/m² 3,1 °C 4,6 °C 33,8 km/h (5 Bft)
16.03.2019 07:36 7,8 °C 72 % 1014,2 hPa 0,0 mm 23,8 km/h (4 Bft) W 273 ° 0 min 0,000 mm 0,0 UV-I 40 W/m² 3,1 °C 4,2 °C 33,8 km/h (5 Bft)
16.03.2019 07:37 7,8 °C 72 % 1014,2 hPa 0,0 mm 22,4 km/h (4 Bft) W 276 ° 0 min 0,000 mm 0,0 UV-I 46 W/m² 3,1 °C 4,4 °C 30,6 km/h (5 Bft)
16.03.2019 07:38 7,8 °C 72 % 1014,1 hPa 0,0 mm 26,2 km/h (4 Bft) W-SW 242 ° 0 min 0,000 mm 0,0 UV-I 54 W/m² 3,1 °C 4,0 °C 49,9 km/h (6 Bft)
16.03.2019 07:39 7,9 °C 71 % 1014,2 hPa 0,0 mm 24,9 km/h (4 Bft) W-NW 284 ° 0 min 0,000 mm 0,5 UV-I 46 W/m² 3,0 °C 4,3 °C 33,8 km/h (5 Bft)
16.03.2019 07:40 7,9 °C 71 % 1014,2 hPa 0,0 mm 23,3 km/h (4 Bft) SW 236 ° 0 min 0,000 mm 0,0 UV-I 39 W/m² 3,0 °C 4,4 °C 32,2 km/h (5 Bft)
16.03.2019 07:41 7,9 °C 71 % 1014,2 hPa 0,0 mm 25,7 km/h (4 Bft) W-SW 258 ° 0 min 0,000 mm 0,0 UV-I 42 W/m² 3,0 °C 4,2 °C 33,8 km/h (5 Bft)
16.03.2019 07:42 7,9 °C 71 % 1014,2 hPa 0,0 mm 27,1 km/h (4 Bft) W 276 ° 0 min 0,000 mm 0,0 UV-I 49 W/m² 3,0 °C 4,1 °C 38,6 km/h (5 Bft)
16.03.2019 07:43 7,9 °C 71 % 1014,2 hPa 0,0 mm 23,3 km/h (4 Bft) W-SW 240 ° 0 min 0,000 mm 0,0 UV-I 44 W/m² 3,0 °C 4,4 °C 35,4 km/h (5 Bft)
16.03.2019 07:44 7,9 °C 71 % 1014,2 hPa 0,0 mm 14,3 km/h (3 Bft) W 267 ° 0 min 0,000 mm 0,0 UV-I 35 W/m² 3,0 °C 5,4 °C 22,5 km/h (4 Bft)
16.03.2019 07:45 7,9 °C 71 % 1014,1 hPa 0,0 mm 19,2 km/h (3 Bft) W 277 ° 0 min 0,000 mm 0,0 UV-I 49 W/m² 3,0 °C 4,8 °C 24,1 km/h (4 Bft)
16.03.2019 07:46 7,9 °C 71 % 1014,1 hPa 0,0 mm 23,7 km/h (4 Bft) W 261 ° 0 min 0,000 mm 0,0 UV-I 53 W/m² 3,0 °C 4,4 °C 37,0 km/h (5 Bft)
16.03.2019 07:47 7,9 °C 71 % 1014,1 hPa 0,0 mm 31,5 km/h (5 Bft) W-SW 255 ° 0 min 0,000 mm 0,0 UV-I 51 W/m² 3,0 °C 3,7 °C 43,5 km/h (6 Bft)
16.03.2019 07:48 7,9 °C 71 % 1014,1 hPa 0,0 mm 14,6 km/h (3 Bft) W 281 ° 0 min 0,000 mm 0,0 UV-I 51 W/m² 3,0 °C 5,4 °C 20,9 km/h (4 Bft)
16.03.2019 07:49 8,0 °C 71 % 1014,1 hPa 0,0 mm 21,6 km/h (4 Bft) W 275 ° 0 min 0,000 mm 0,0 UV-I 49 W/m² 3,1 °C 4,7 °C 27,4 km/h (4 Bft)
16.03.2019 07:50 8,0 °C 71 % 1014,1 hPa 0,0 mm 25,1 km/h (4 Bft) W 271 ° 0 min 0,000 mm 0,0 UV-I 46 W/m² 3,1 °C 4,4 °C 37,0 km/h (5 Bft)
16.03.2019 07:51 8,0 °C 71 % 1014,1 hPa 0,0 mm 19,2 km/h (3 Bft) W 268 ° 0 min 0,000 mm 0,0 UV-I 46 W/m² 3,1 °C 4,9 °C 25,7 km/h (4 Bft)
16.03.2019 07:52 8,0 °C 71 % 1014,1 hPa 0,0 mm 21,4 km/h (4 Bft) W 265 ° 0 min 0,000 mm 0,0 UV-I 44 W/m² 3,1 °C 4,7 °C 33,8 km/h (5 Bft)
16.03.2019 07:53 8,0 °C 71 % 1014,1 hPa 0,0 mm 18,0 km/h (3 Bft) W 261 ° 0 min 0,000 mm 0,0 UV-I 44 W/m² 3,1 °C 5,1 °C 24,1 km/h (4 Bft)
16.03.2019 07:54 8,1 °C 71 % 1014,2 hPa 0,0 mm 27,0 km/h (4 Bft) W-SW 252 ° 0 min 0,000 mm 0,0 UV-I 46 W/m² 3,2 °C 4,3 °C 38,6 km/h (5 Bft)
16.03.2019 07:55 8,1 °C 71 % 1014,2 hPa 0,0 mm 27,2 km/h (4 Bft) W 259 ° 0 min 0,000 mm 0,0 UV-I 47 W/m² 3,2 °C 4,3 °C 40,2 km/h (6 Bft)
16.03.2019 07:56 8,1 °C 71 % 1014,1 hPa 0,0 mm 24,0 km/h (4 Bft) W 276 ° 0 min 0,000 mm 0,0 UV-I 49 W/m² 3,2 °C 4,6 °C 33,8 km/h (5 Bft)
16.03.2019 07:57 8,1 °C 70 % 1014,1 hPa 0,0 mm 19,3 km/h (3 Bft) W 267 ° 0 min 0,000 mm 0,0 UV-I 47 W/m² 3,0 °C 5,1 °C 24,1 km/h (4 Bft)
16.03.2019 07:58 8,1 °C 71 % 1014,2 hPa 0,0 mm 24,1 km/h (4 Bft) W-SW 244 ° 0 min 0,000 mm 0,0 UV-I 47 W/m² 3,2 °C 4,6 °C 33,8 km/h (5 Bft)
16.03.2019 07:59 8,1 °C 70 % 1014,0 hPa 0,0 mm 15,8 km/h (3 Bft) W 259 ° 0 min 0,000 mm 0,0 UV-I 49 W/m² 3,0 °C 5,5 °C 20,9 km/h (4 Bft)
16.03.2019 08:00 8,1 °C 70 % 1014,1 hPa 0,0 mm 17,4 km/h (3 Bft) W 273 ° 0 min 0,076 mm 0,0 UV-I 53 W/m² 3,0 °C 5,3 °C 22,5 km/h (4 Bft)
16.03.2019 08:01 8,1 °C 70 % 1014,1 hPa 0,0 mm 17,6 km/h (3 Bft) W 261 ° 0 min 0,000 mm 0,6 UV-I 56 W/m² 3,0 °C 5,2 °C 33,8 km/h (5 Bft)
16.03.2019 08:02 8,1 °C 71 % 1014,0 hPa 0,0 mm 22,5 km/h (4 Bft) W 279 ° 0 min 0,000 mm 0,6 UV-I 63 W/m² 3,2 °C 4,7 °C 30,6 km/h (5 Bft)
16.03.2019 08:03 8,1 °C 70 % 1014,0 hPa 0,0 mm 14,9 km/h (3 Bft) W 275 ° 0 min 0,000 mm 0,6 UV-I 65 W/m² 3,0 °C 5,6 °C 27,4 km/h (4 Bft)
16.03.2019 08:04 8,2 °C 70 % 1014,1 hPa 0,0 mm 17,6 km/h (3 Bft) W 271 ° 0 min 0,000 mm 0,6 UV-I 67 W/m² 3,1 °C 5,4 °C 30,6 km/h (5 Bft)
16.03.2019 08:05 8,2 °C 70 % 1014,1 hPa 0,0 mm 22,0 km/h (4 Bft) W 261 ° 0 min 0,000 mm 0,6 UV-I 65 W/m² 3,1 °C 4,9 °C 33,8 km/h (5 Bft)
16.03.2019 08:06 8,2 °C 70 % 1014,1 hPa 0,0 mm 20,4 km/h (4 Bft) SW 229 ° 0 min 0,000 mm 0,6 UV-I 67 W/m² 3,1 °C 5,1 °C 27,4 km/h (4 Bft)
16.03.2019 08:07 8,2 °C 70 % 1014,0 hPa 0,0 mm 23,2 km/h (4 Bft) W-SW 238 ° 0 min 0,000 mm 0,6 UV-I 67 W/m² 3,1 °C 4,8 °C 38,6 km/h (5 Bft)
16.03.2019 08:08 8,2 °C 70 % 1014,2 hPa 0,0 mm 22,1 km/h (4 Bft) W-SW 252 ° 0 min 0,000 mm 0,6 UV-I 67 W/m² 3,1 °C 4,9 °C 32,2 km/h (5 Bft)
16.03.2019 08:09 8,3 °C 70 % 1014,2 hPa 0,0 mm 14,8 km/h (3 Bft) W-SW 255 ° 0 min 0,000 mm 0,6 UV-I 69 W/m² 3,2 °C 5,8 °C 19,3 km/h (3 Bft)
16.03.2019 08:10 8,3 °C 70 % 1014,1 hPa 0,0 mm 19,2 km/h (3 Bft) W-SW 256 ° 0 min 0,000 mm 0,6 UV-I 69 W/m² 3,2 °C 5,3 °C 25,7 km/h (4 Bft)
16.03.2019 08:11 8,3 °C 70 % 1014,3 hPa 0,0 mm 28,5 km/h (4 Bft) W 274 ° 0 min 0,000 mm 0,6 UV-I 69 W/m² 3,2 °C 4,5 °C 40,2 km/h (6 Bft)
16.03.2019 08:12 8,3 °C 70 % 1014,2 hPa 0,0 mm 27,7 km/h (4 Bft) W 260 ° 0 min 0,000 mm 0,6 UV-I 69 W/m² 3,2 °C 4,5 °C 41,8 km/h (6 Bft)
16.03.2019 08:13 8,3 °C 70 % 1014,2 hPa 0,0 mm 16,8 km/h (3 Bft) SW 215 ° 0 min 0,000 mm 0,6 UV-I 69 W/m² 3,2 °C 5,6 °C 27,4 km/h (4 Bft)
16.03.2019 08:14 8,3 °C 70 % 1014,2 hPa 0,0 mm 21,0 km/h (4 Bft) W 267 ° 0 min 0,000 mm 0,7 UV-I 72 W/m² 3,2 °C 5,1 °C 33,8 km/h (5 Bft)
16.03.2019 08:15 8,3 °C 69 % 1014,1 hPa 0,0 mm 16,1 km/h (3 Bft) W-SW 249 ° 0 min 0,000 mm 0,7 UV-I 74 W/m² 3,0 °C 5,7 °C 22,5 km/h (4 Bft)
16.03.2019 08:16 8,3 °C 70 % 1014,2 hPa 0,0 mm 18,4 km/h (3 Bft) W 265 ° 0 min 0,000 mm 0,7 UV-I 76 W/m² 3,2 °C 5,4 °C 25,7 km/h (4 Bft)
16.03.2019 08:17 8,3 °C 70 % 1014,2 hPa 0,0 mm 19,7 km/h (3 Bft) NW 305 ° 0 min 0,000 mm 0,7 UV-I 77 W/m² 3,2 °C 5,3 °C 27,4 km/h (4 Bft)
16.03.2019 08:18 8,3 °C 70 % 1014,3 hPa 0,0 mm 17,4 km/h (3 Bft) W-SW 246 ° 0 min 0,000 mm 0,7 UV-I 79 W/m² 3,2 °C 5,5 °C 27,4 km/h (4 Bft)
16.03.2019 08:19 8,3 °C 70 % 1014,3 hPa 0,0 mm 21,9 km/h (4 Bft) W-SW 257 ° 0 min 0,000 mm 0,7 UV-I 77 W/m² 3,2 °C 5,0 °C 38,6 km/h (5 Bft)
16.03.2019 08:20 8,4 °C 69 % 1014,3 hPa 0,0 mm 19,2 km/h (3 Bft) W-SW 257 ° 0 min 0,000 mm 0,7 UV-I 79 W/m² 3,0 °C 5,4 °C 27,4 km/h (4 Bft)
16.03.2019 08:21 8,4 °C 69 % 1014,3 hPa 0,0 mm 23,6 km/h (4 Bft) W 261 ° 0 min 0,000 mm 0,7 UV-I 81 W/m² 3,0 °C 5,0 °C 41,8 km/h (6 Bft)
16.03.2019 08:22 8,4 °C 69 % 1014,2 hPa 0,0 mm 22,7 km/h (4 Bft) W-SW 258 ° 0 min 0,000 mm 0,7 UV-I 81 W/m² 3,0 °C 5,1 °C 30,6 km/h (5 Bft)
16.03.2019 08:23 8,4 °C 70 % 1014,2 hPa 0,0 mm 22,5 km/h (4 Bft) SW 234 ° 0 min 0,000 mm 0,8 UV-I 83 W/m² 3,3 °C 5,1 °C 33,8 km/h (5 Bft)
16.03.2019 08:24 8,4 °C 69 % 1014,3 hPa 0,0 mm 21,5 km/h (4 Bft) W 262 ° 0 min 0,000 mm 0,8 UV-I 84 W/m² 3,0 °C 5,2 °C 30,6 km/h (5 Bft)
16.03.2019 08:25 8,4 °C 69 % 1014,3 hPa 0,0 mm 19,5 km/h (3 Bft) W-NW 286 ° 0 min 0,000 mm 0,8 UV-I 90 W/m² 3,0 °C 5,4 °C 29,0 km/h (5 Bft)
16.03.2019 08:26 8,4 °C 69 % 1014,3 hPa 0,0 mm 16,0 km/h (3 Bft) W-SW 243 ° 0 min 0,000 mm 0,8 UV-I 93 W/m² 3,0 °C 5,8 °C 24,1 km/h (4 Bft)
16.03.2019 08:27 8,4 °C 69 % 1014,3 hPa 0,0 mm 27,5 km/h (4 Bft) W 263 ° 0 min 0,000 mm 0,8 UV-I 97 W/m² 3,0 °C 4,7 °C 40,2 km/h (6 Bft)
16.03.2019 08:28 8,5 °C 69 % 1014,3 hPa 0,0 mm 20,9 km/h (4 Bft) W 265 ° 0 min 0,000 mm 0,8 UV-I 100 W/m² 3,1 °C 5,4 °C 25,7 km/h (4 Bft)
16.03.2019 08:29 8,5 °C 69 % 1014,1 hPa 0,0 mm 21,5 km/h (4 Bft) W 263 ° 0 min 0,000 mm 0,9 UV-I 104 W/m² 3,1 °C 5,3 °C 35,4 km/h (5 Bft)
16.03.2019 08:30 8,5 °C 69 % 1014,2 hPa 0,0 mm 19,9 km/h (4 Bft) W 269 ° 0 min 0,000 mm 0,9 UV-I 107 W/m² 3,1 °C 5,5 °C 30,6 km/h (5 Bft)
16.03.2019 08:31 8,5 °C 69 % 1014,2 hPa 0,0 mm 22,5 km/h (4 Bft) W 267 ° 0 min 0,000 mm 0,9 UV-I 113 W/m² 3,1 °C 5,2 °C 38,6 km/h (5 Bft)
16.03.2019 08:32 8,6 °C 68 % 1014,2 hPa 0,0 mm 22,8 km/h (4 Bft) W-SW 246 ° 0 min 0,000 mm 0,9 UV-I 125 W/m² 3,0 °C 5,3 °C 30,6 km/h (5 Bft)
16.03.2019 08:33 8,6 °C 69 % 1014,3 hPa 0,0 mm 18,6 km/h (3 Bft) W-SW 254 ° 0 min 0,000 mm 0,9 UV-I 128 W/m² 3,2 °C 5,8 °C 27,4 km/h (4 Bft)
16.03.2019 08:34 8,6 °C 68 % 1014,3 hPa 0,0 mm 21,1 km/h (4 Bft) S-SW 200 ° 0 min 0,000 mm 1,0 UV-I 132 W/m² 3,0 °C 5,5 °C 29,0 km/h (5 Bft)
16.03.2019 08:35 8,7 °C 69 % 1014,2 hPa 0,0 mm 16,7 km/h (3 Bft) W 266 ° 0 min 0,000 mm 1,0 UV-I 130 W/m² 3,3 °C 6,1 °C 25,7 km/h (4 Bft)
16.03.2019 08:36 8,7 °C 68 % 1014,2 hPa 0,0 mm 23,2 km/h (4 Bft) W 263 ° 0 min 0,000 mm 1,0 UV-I 132 W/m² 3,1 °C 5,4 °C 29,0 km/h (5 Bft)
16.03.2019 08:37 8,7 °C 68 % 1014,3 hPa 0,0 mm 32,3 km/h (5 Bft) W 275 ° 0 min 0,000 mm 1,0 UV-I 141 W/m² 3,1 °C 4,7 °C 48,3 km/h (6 Bft)
16.03.2019 08:38 8,7 °C 68 % 1014,2 hPa 0,0 mm 25,2 km/h (4 Bft) W 279 ° 0 min 0,000 mm 1,0 UV-I 148 W/m² 3,1 °C 5,3 °C 35,4 km/h (5 Bft)
16.03.2019 08:39 8,7 °C 68 % 1014,3 hPa 0,0 mm 18,1 km/h (3 Bft) W-SW 256 ° 0 min 0,000 mm 1,1 UV-I 158 W/m² 3,1 °C 5,9 °C 25,7 km/h (4 Bft)
16.03.2019 08:40 8,8 °C 68 % 1014,2 hPa 0,0 mm 28,4 km/h (4 Bft) W-NW 282 ° 0 min 0,000 mm 1,1 UV-I 176 W/m² 3,2 °C 5,1 °C 40,2 km/h (6 Bft)
16.03.2019 08:41 8,8 °C 68 % 1014,2 hPa 0,0 mm 21,5 km/h (4 Bft) W 267 ° 0 min 0,000 mm 1,2 UV-I 199 W/m² 3,2 °C 5,7 °C 33,8 km/h (5 Bft)
16.03.2019 08:42 8,9 °C 68 % 1014,2 hPa 0,0 mm 26,2 km/h (4 Bft) W-SW 257 ° 0 min 0,000 mm 1,3 UV-I 239 W/m² 3,3 °C 5,4 °C 41,8 km/h (6 Bft)
16.03.2019 08:43 8,9 °C 68 % 1014,2 hPa 0,0 mm 17,0 km/h (3 Bft) W-SW 255 ° 0 min 0,000 mm 1,2 UV-I 200 W/m² 3,3 °C 6,3 °C 25,7 km/h (4 Bft)
16.03.2019 08:44 8,9 °C 67 % 1014,1 hPa 0,0 mm 10,1 km/h (2 Bft) W-NW 291 ° 0 min 0,000 mm 1,2 UV-I 181 W/m² 3,1 °C 7,3 °C 14,5 km/h (3 Bft)
16.03.2019 08:45 9,0 °C 68 % 1014,3 hPa 0,0 mm 7,3 km/h (2 Bft) W 281 ° 0 min 0,000 mm 1,3 UV-I 221 W/m² 3,4 °C 8,0 °C 12,9 km/h (3 Bft)
16.03.2019 08:46 9,1 °C 69 % 1014,2 hPa 0,0 mm 12,2 km/h (2 Bft) W-SW 252 ° 0 min 0,000 mm 1,3 UV-I 264 W/m² 3,7 °C 7,2 °C 19,3 km/h (3 Bft)
16.03.2019 08:47 9,2 °C 68 % 1014,3 hPa 0,0 mm 9,6 km/h (2 Bft) SW 223 ° 0 min 0,000 mm 1,2 UV-I 229 W/m² 3,6 °C 7,7 °C 17,7 km/h (3 Bft)
16.03.2019 08:48 9,2 °C 67 % 1014,3 hPa 0,0 mm 19,8 km/h (3 Bft) W 276 ° 0 min 0,000 mm 1,3 UV-I 251 W/m² 3,4 °C 6,4 °C 33,8 km/h (5 Bft)
16.03.2019 08:49 9,3 °C 67 % 1014,2 hPa 0,0 mm 15,2 km/h (3 Bft) W-SW 242 ° 0 min 0,000 mm 1,3 UV-I 220 W/m² 3,5 °C 7,0 °C 25,7 km/h (4 Bft)
16.03.2019 08:50 9,3 °C 68 % 1014,2 hPa 0,0 mm 13,4 km/h (3 Bft) W 279 ° 0 min 0,000 mm 1,3 UV-I 213 W/m² 3,7 °C 7,3 °C 17,7 km/h (3 Bft)
16.03.2019 08:51 9,3 °C 67 % 1014,2 hPa 0,0 mm 16,4 km/h (3 Bft) W-SW 253 ° 0 min 0,000 mm 1,4 UV-I 236 W/m² 3,5 °C 6,9 °C 27,4 km/h (4 Bft)
16.03.2019 08:52 9,3 °C 67 % 1014,2 hPa 0,0 mm 16,5 km/h (3 Bft) SW 219 ° 0 min 0,000 mm 1,5 UV-I 313 W/m² 3,5 °C 6,9 °C 24,1 km/h (4 Bft)
16.03.2019 08:53 9,4 °C 66 % 1014,2 hPa 0,0 mm 12,4 km/h (3 Bft) S 186 ° 0 min 0,000 mm 1,5 UV-I 350 W/m² 3,4 °C 7,5 °C 19,3 km/h (3 Bft)
16.03.2019 08:54 9,4 °C 67 % 1014,1 hPa 0,0 mm 20,3 km/h (4 Bft) W 269 ° 0 min 0,000 mm 1,5 UV-I 323 W/m² 3,6 °C 6,6 °C 25,7 km/h (4 Bft)
16.03.2019 08:55 9,6 °C 68 % 1014,2 hPa 0,0 mm 17,4 km/h (3 Bft) W-NW 290 ° 0 min 0,000 mm 1,5 UV-I 304 W/m² 4,0 °C 7,1 °C 22,5 km/h (4 Bft)
16.03.2019 08:56 9,6 °C 67 % 1014,2 hPa 0,0 mm 23,5 km/h (4 Bft) W 270 ° 0 min 0,000 mm 1,4 UV-I 276 W/m² 3,8 °C 6,6 °C 35,4 km/h (5 Bft)
16.03.2019 08:57 9,6 °C 66 % 1014,1 hPa 0,0 mm 25,5 km/h (4 Bft) W-SW 247 ° 0 min 0,000 mm 1,5 UV-I 285 W/m² 3,6 °C 6,4 °C 37,0 km/h (5 Bft)
16.03.2019 08:58 9,6 °C 66 % 1014,1 hPa 0,0 mm 20,3 km/h (4 Bft) W-NW 288 ° 0 min 0,000 mm 1,5 UV-I 279 W/m² 3,6 °C 6,8 °C 37,0 km/h (5 Bft)
16.03.2019 08:59 9,6 °C 66 % 1014,1 hPa 0,0 mm 17,4 km/h (3 Bft) W-SW 251 ° 0 min 0,000 mm 1,5 UV-I 325 W/m² 3,6 °C 7,1 °C 22,5 km/h (4 Bft)
16.03.2019 09:00 9,7 °C 67 % 1014,2 hPa 0,0 mm 13,6 km/h (3 Bft) S-SW 197 ° 0 min 0,127 mm 1,6 UV-I 392 W/m² 3,9 °C 7,7 °C 17,7 km/h (3 Bft)
16.03.2019 09:01 9,7 °C 66 % 1014,2 hPa 0,0 mm 22,1 km/h (4 Bft) W 268 ° 0 min 0,000 mm 1,7 UV-I 411 W/m² 3,7 °C 6,8 °C 29,0 km/h (5 Bft)
16.03.2019 09:02 9,8 °C 66 % 1014,4 hPa 0,0 mm 21,7 km/h (4 Bft) SW 219 ° 0 min 0,000 mm 1,8 UV-I 422 W/m² 3,8 °C 7,0 °C 32,2 km/h (5 Bft)
16.03.2019 09:03 9,8 °C 65 % 1014,2 hPa 0,0 mm 17,0 km/h (3 Bft) W-SW 242 ° 0 min 0,000 mm 1,8 UV-I 436 W/m² 3,5 °C 7,4 °C 33,8 km/h (5 Bft)
16.03.2019 09:04 9,8 °C 65 % 1014,3 hPa 0,0 mm 18,8 km/h (3 Bft) W-SW 248 ° 0 min 0,000 mm 1,7 UV-I 369 W/m² 3,5 °C 7,2 °C 25,7 km/h (4 Bft)
16.03.2019 09:05 9,8 °C 65 % 1014,4 hPa 0,0 mm 10,6 km/h (2 Bft) S-SO 168 ° 0 min 0,000 mm 1,8 UV-I 392 W/m² 3,5 °C 8,3 °C 19,3 km/h (3 Bft)
16.03.2019 09:06 9,8 °C 65 % 1014,3 hPa 0,0 mm 13,3 km/h (3 Bft) W-NW 290 ° 0 min 0,000 mm 1,8 UV-I 411 W/m² 3,5 °C 7,9 °C 17,7 km/h (3 Bft)
16.03.2019 09:07 9,8 °C 66 % 1014,4 hPa 0,0 mm 9,2 km/h (2 Bft) SW 223 ° 0 min 0,000 mm 1,4 UV-I 192 W/m² 3,8 °C 8,5 °C 16,1 km/h (3 Bft)
16.03.2019 09:08 9,8 °C 66 % 1014,4 hPa 0,0 mm 10,4 km/h (2 Bft) W-NW 283 ° 0 min 0,000 mm 1,4 UV-I 223 W/m² 3,8 °C 8,3 °C 14,5 km/h (3 Bft)
16.03.2019 09:09 9,8 °C 66 % 1014,4 hPa 0,0 mm 11,5 km/h (2 Bft) S-SW 202 ° 0 min 0,000 mm 1,4 UV-I 218 W/m² 3,8 °C 8,1 °C 17,7 km/h (3 Bft)
16.03.2019 09:10 9,7 °C 66 % 1014,4 hPa 0,0 mm 10,3 km/h (2 Bft) SW 227 ° 0 min 0,000 mm 1,3 UV-I 195 W/m² 3,7 °C 8,2 °C 19,3 km/h (3 Bft)
16.03.2019 09:11 9,7 °C 66 % 1014,6 hPa 0,0 mm 11,3 km/h (2 Bft) W 263 ° 0 min 0,000 mm 1,4 UV-I 197 W/m² 3,7 °C 8,1 °C 17,7 km/h (3 Bft)
16.03.2019 09:12 9,7 °C 65 % 1014,6 hPa 0,0 mm 14,4 km/h (3 Bft) W 274 ° 0 min 0,000 mm 1,5 UV-I 209 W/m² 3,4 °C 7,6 °C 20,9 km/h (4 Bft)
16.03.2019 09:13 9,6 °C 65 % 1014,5 hPa 0,0 mm 14,0 km/h (3 Bft) W 271 ° 0 min 0,000 mm 1,7 UV-I 279 W/m² 3,4 °C 7,5 °C 20,9 km/h (4 Bft)
16.03.2019 09:14 9,7 °C 66 % 1014,6 hPa 0,0 mm 9,9 km/h (2 Bft) S-SW 197 ° 0 min 0,000 mm 1,7 UV-I 330 W/m² 3,7 °C 8,3 °C 16,1 km/h (3 Bft)
16.03.2019 09:15 9,7 °C 67 % 1014,7 hPa 0,0 mm 8,8 km/h (2 Bft) W-SW 244 ° 0 min 0,000 mm 1,7 UV-I 292 W/m² 3,9 °C 8,5 °C 11,3 km/h (2 Bft)
16.03.2019 09:16 9,8 °C 66 % 1014,7 hPa 0,0 mm 10,9 km/h (2 Bft) N-NW 329 ° 0 min 0,000 mm 1,8 UV-I 292 W/m² 3,8 °C 8,2 °C 19,3 km/h (3 Bft)
16.03.2019 09:17 9,8 °C 67 % 1014,6 hPa 0,0 mm 6,8 km/h (2 Bft) W-NW 291 ° 0 min 0,000 mm 1,9 UV-I 401 W/m² 4,0 °C 9,0 °C 14,5 km/h (3 Bft)
16.03.2019 09:18 9,9 °C 66 % 1014,6 hPa 0,0 mm 15,0 km/h (3 Bft) W 261 ° 0 min 0,000 mm 1,9 UV-I 415 W/m² 3,9 °C 7,8 °C 19,3 km/h (3 Bft)
16.03.2019 09:19 9,9 °C 66 % 1014,7 hPa 0,0 mm 15,4 km/h (3 Bft) W-NW 293 ° 0 min 0,000 mm 2,0 UV-I 399 W/m² 3,9 °C 7,7 °C 22,5 km/h (4 Bft)
16.03.2019 09:20 10,1 °C 67 % 1014,7 hPa 0,0 mm 17,0 km/h (3 Bft) SW 236 ° 0 min 0,000 mm 2,0 UV-I 353 W/m² 4,3 °C 10,1 °C 27,4 km/h (4 Bft)
16.03.2019 09:21 10,1 °C 65 % 1014,7 hPa 0,0 mm 23,7 km/h (4 Bft) W 268 ° 0 min 0,000 mm 1,9 UV-I 404 W/m² 3,8 °C 10,1 °C 35,4 km/h (5 Bft)
16.03.2019 09:22 10,2 °C 66 % 1014,6 hPa 0,0 mm 15,8 km/h (3 Bft) W 265 ° 0 min 0,000 mm 1,9 UV-I 397 W/m² 4,1 °C 10,2 °C 19,3 km/h (3 Bft)
16.03.2019 09:23 10,2 °C 64 % 1014,6 hPa 0,0 mm 18,2 km/h (3 Bft) SW 232 ° 0 min 0,000 mm 2,0 UV-I 353 W/m² 3,7 °C 10,2 °C 27,4 km/h (4 Bft)
16.03.2019 09:24 10,2 °C 64 % 1014,7 hPa 0,0 mm 10,2 km/h (2 Bft) SW 229 ° 0 min 0,000 mm 1,8 UV-I 332 W/m² 3,7 °C 10,2 °C 22,5 km/h (4 Bft)
16.03.2019 09:25 10,2 °C 65 % 1014,7 hPa 0,0 mm 13,6 km/h (3 Bft) W-NW 283 ° 0 min 0,000 mm 2,1 UV-I 425 W/m² 3,9 °C 10,2 °C 19,3 km/h (3 Bft)
16.03.2019 09:26 10,2 °C 66 % 1014,7 hPa 0,0 mm 14,0 km/h (3 Bft) W-SW 250 ° 0 min 0,000 mm 2,0 UV-I 425 W/m² 4,1 °C 10,2 °C 25,7 km/h (4 Bft)
16.03.2019 09:27 10,2 °C 65 % 1014,8 hPa 0,0 mm 14,6 km/h (3 Bft) N 360 ° 0 min 0,000 mm 1,8 UV-I 380 W/m² 3,9 °C 10,2 °C 27,4 km/h (4 Bft)
16.03.2019 09:28 10,2 °C 65 % 1014,7 hPa 0,0 mm 5,7 km/h (1 Bft) W 268 ° 0 min 0,000 mm 2,1 UV-I 397 W/m² 3,9 °C 10,2 °C 14,5 km/h (3 Bft)
16.03.2019 09:29 10,1 °C 64 % 1014,7 hPa 0,0 mm 15,7 km/h (3 Bft) W-NW 300 ° 0 min 0,000 mm 2,1 UV-I 438 W/m² 3,6 °C 10,1 °C 20,9 km/h (4 Bft)
16.03.2019 09:30 10,1 °C 64 % 1014,8 hPa 0,0 mm 16,8 km/h (3 Bft) NW 314 ° 0 min 0,000 mm 2,4 UV-I 452 W/m² 3,6 °C 10,1 °C 22,5 km/h (4 Bft)
16.03.2019 09:31 10,1 °C 65 % 1014,8 hPa 0,0 mm 17,2 km/h (3 Bft) W 271 ° 0 min 0,000 mm 2,2 UV-I 468 W/m² 3,8 °C 10,1 °C 27,4 km/h (4 Bft)
16.03.2019 09:32 10,2 °C 66 % 1014,8 hPa 0,0 mm 10,6 km/h (2 Bft) W-SW 244 ° 0 min 0,000 mm 2,2 UV-I 432 W/m² 4,1 °C 10,2 °C 16,1 km/h (3 Bft)
16.03.2019 09:33 10,2 °C 65 % 1014,8 hPa 0,0 mm 10,4 km/h (2 Bft) W-NW 285 ° 0 min 0,000 mm 2,2 UV-I 422 W/m² 3,9 °C 10,2 °C 14,5 km/h (3 Bft)
16.03.2019 09:34 10,2 °C 65 % 1014,8 hPa 0,0 mm 8,0 km/h (2 Bft) W-SW 254 ° 0 min 0,000 mm 2,6 UV-I 501 W/m² 3,9 °C 10,2 °C 12,9 km/h (3 Bft)
16.03.2019 09:35 10,2 °C 65 % 1014,8 hPa 0,0 mm 16,9 km/h (3 Bft) W-SW 254 ° 0 min 0,000 mm 2,3 UV-I 406 W/m² 3,9 °C 10,2 °C 30,6 km/h (5 Bft)
16.03.2019 09:36 10,2 °C 65 % 1014,8 hPa 0,0 mm 9,1 km/h (2 Bft) SW 229 ° 0 min 0,000 mm 2,2 UV-I 422 W/m² 3,9 °C 10,2 °C 14,5 km/h (3 Bft)
16.03.2019 09:37 10,2 °C 64 % 1014,8 hPa 0,0 mm 14,2 km/h (3 Bft) W-SW 247 ° 0 min 0,000 mm 2,3 UV-I 452 W/m² 3,7 °C 10,2 °C 22,5 km/h (4 Bft)
16.03.2019 09:38 10,3 °C 65 % 1014,8 hPa 0,0 mm 8,5 km/h (2 Bft) S 174 ° 0 min 0,000 mm 2,3 UV-I 390 W/m² 4,0 °C 10,3 °C 16,1 km/h (3 Bft)
16.03.2019 09:39 10,3 °C 64 % 1014,8 hPa 0,0 mm 11,7 km/h (2 Bft) W-NW 298 ° 0 min 0,000 mm 2,3 UV-I 443 W/m² 3,8 °C 10,3 °C 20,9 km/h (4 Bft)
16.03.2019 09:40 10,3 °C 64 % 1014,7 hPa 0,0 mm 21,0 km/h (4 Bft) W-SW 248 ° 0 min 0,000 mm 2,3 UV-I 417 W/m² 3,8 °C 10,3 °C 32,2 km/h (5 Bft)
16.03.2019 09:41 10,3 °C 64 % 1014,7 hPa 0,0 mm 15,4 km/h (3 Bft) SW 236 ° 0 min 0,000 mm 2,3 UV-I 410 W/m² 3,8 °C 10,3 °C 27,4 km/h (4 Bft)
16.03.2019 09:42 10,3 °C 64 % 1014,7 hPa 0,0 mm 17,9 km/h (3 Bft) W-NW 284 ° 0 min 0,000 mm 2,2 UV-I 397 W/m² 3,8 °C 10,3 °C 20,9 km/h (4 Bft)
16.03.2019 09:43 10,3 °C 64 % 1014,8 hPa 0,0 mm 12,5 km/h (3 Bft) W-NW 284 ° 0 min 0,000 mm 2,0 UV-I 373 W/m² 3,8 °C 10,3 °C 22,5 km/h (4 Bft)
16.03.2019 09:44 10,3 °C 65 % 1014,8 hPa 0,0 mm 12,7 km/h (3 Bft) W 274 ° 0 min 0,000 mm 2,1 UV-I 316 W/m² 4,0 °C 10,3 °C 17,7 km/h (3 Bft)
16.03.2019 09:45 10,4 °C 65 % 1014,8 hPa 0,0 mm 8,9 km/h (2 Bft) NW 315 ° 0 min 0,000 mm 2,2 UV-I 383 W/m² 4,1 °C 10,4 °C 17,7 km/h (3 Bft)
16.03.2019 09:46 10,3 °C 64 % 1014,7 hPa 0,0 mm 11,4 km/h (2 Bft) W 263 ° 0 min 0,000 mm 2,1 UV-I 353 W/m² 3,8 °C 10,3 °C 14,5 km/h (3 Bft)
16.03.2019 09:47 10,3 °C 64 % 1014,8 hPa 0,0 mm 10,9 km/h (2 Bft) SW 236 ° 0 min 0,000 mm 2,2 UV-I 381 W/m² 3,8 °C 10,3 °C 16,1 km/h (3 Bft)
16.03.2019 09:48 10,4 °C 66 % 1014,7 hPa 0,0 mm 12,2 km/h (2 Bft) W-NW 284 ° 0 min 0,000 mm 2,2 UV-I 334 W/m² 4,3 °C 10,4 °C 20,9 km/h (4 Bft)
16.03.2019 09:49 10,3 °C 64 % 1014,7 hPa 0,0 mm 24,3 km/h (4 Bft) W 265 ° 0 min 0,000 mm 2,1 UV-I 292 W/m² 3,8 °C 10,3 °C 37,0 km/h (5 Bft)
16.03.2019 09:50 10,3 °C 64 % 1014,8 hPa 0,0 mm 19,7 km/h (3 Bft) W 278 ° 0 min 0,000 mm 2,0 UV-I 285 W/m² 3,8 °C 10,3 °C 32,2 km/h (5 Bft)
16.03.2019 09:51 10,3 °C 64 % 1014,8 hPa 0,0 mm 13,4 km/h (3 Bft) W 278 ° 0 min 0,000 mm 2,0 UV-I 313 W/m² 3,8 °C 10,3 °C 24,1 km/h (4 Bft)
16.03.2019 09:52 10,2 °C 65 % 1014,8 hPa 0,0 mm 14,6 km/h (3 Bft) S 191 ° 0 min 0,000 mm 2,2 UV-I 301 W/m² 3,9 °C 10,2 °C 17,7 km/h (3 Bft)
16.03.2019 09:53 10,2 °C 65 % 1014,8 hPa 0,0 mm 10,2 km/h (2 Bft) W 277 ° 0 min 0,000 mm 2,2 UV-I 325 W/m² 3,9 °C 10,2 °C 14,5 km/h (3 Bft)
16.03.2019 09:54 10,2 °C 65 % 1014,9 hPa 0,0 mm 12,7 km/h (3 Bft) W 259 ° 0 min 0,000 mm 2,3 UV-I 388 W/m² 3,9 °C 10,2 °C 17,7 km/h (3 Bft)
16.03.2019 09:55 10,2 °C 65 % 1015,0 hPa 0,0 mm 8,5 km/h (2 Bft) S-SW 212 ° 0 min 0,000 mm 2,5 UV-I 417 W/m² 3,9 °C 10,2 °C 12,9 km/h (3 Bft)
16.03.2019 09:56 10,3 °C 65 % 1014,8 hPa 0,0 mm 12,5 km/h (3 Bft) SW 219 ° 0 min 0,000 mm 2,4 UV-I 359 W/m² 4,0 °C 10,3 °C 20,9 km/h (4 Bft)
16.03.2019 09:57 10,2 °C 64 % 1014,9 hPa 0,0 mm 21,8 km/h (4 Bft) NW 306 ° 0 min 0,000 mm 2,5 UV-I 359 W/m² 3,7 °C 10,2 °C 32,2 km/h (5 Bft)
16.03.2019 09:58 10,2 °C 64 % 1014,9 hPa 0,0 mm 17,0 km/h (3 Bft) W-NW 300 ° 0 min 0,000 mm 2,7 UV-I 492 W/m² 3,7 °C 10,2 °C 25,7 km/h (4 Bft)
16.03.2019 09:59 10,2 °C 64 % 1014,8 hPa 0,0 mm 15,3 km/h (3 Bft) W-NW 300 ° 0 min 0,000 mm 2,7 UV-I 448 W/m² 3,7 °C 10,2 °C 20,9 km/h (4 Bft)
16.03.2019 10:00 10,2 °C 65 % 1014,9 hPa 0,0 mm 13,3 km/h (3 Bft) W-SW 257 ° 0 min 0,229 mm 2,6 UV-I 454 W/m² 3,9 °C 10,2 °C 19,3 km/h (3 Bft)
16.03.2019 10:01 10,3 °C 65 % 1014,9 hPa 0,0 mm 19,6 km/h (3 Bft) NW 317 ° 0 min 0,000 mm 2,2 UV-I 367 W/m² 4,0 °C 10,3 °C 30,6 km/h (5 Bft)
16.03.2019 10:02 10,3 °C 65 % 1014,8 hPa 0,0 mm 15,1 km/h (3 Bft) NW 314 ° 0 min 0,000 mm 3,0 UV-I 371 W/m² 4,0 °C 10,3 °C 24,1 km/h (4 Bft)
16.03.2019 10:03 10,3 °C 65 % 1014,8 hPa 0,0 mm 19,6 km/h (3 Bft) W-NW 286 ° 0 min 0,000 mm 2,9 UV-I 371 W/m² 4,0 °C 10,3 °C 24,1 km/h (4 Bft)
16.03.2019 10:04 10,3 °C 65 % 1014,8 hPa 0,0 mm 17,3 km/h (3 Bft) W-NW 289 ° 0 min 0,000 mm 2,6 UV-I 371 W/m² 4,0 °C 10,3 °C 24,1 km/h (4 Bft)
16.03.2019 10:05 10,2 °C 65 % 1014,8 hPa 0,0 mm 18,6 km/h (3 Bft) W 264 ° 0 min 0,000 mm 2,5 UV-I 371 W/m² 3,9 °C 10,2 °C 27,4 km/h (4 Bft)
16.03.2019 10:06 10,2 °C 64 % 1014,8 hPa 0,0 mm 12,3 km/h (3 Bft) W 274 ° 0 min 0,000 mm 3,0 UV-I 513 W/m² 3,7 °C 10,2 °C 17,7 km/h (3 Bft)
16.03.2019 10:07 10,2 °C 65 % 1014,8 hPa 0,0 mm 18,5 km/h (3 Bft) W-SW 254 ° 0 min 0,000 mm 3,0 UV-I 513 W/m² 3,9 °C 10,2 °C 27,4 km/h (4 Bft)
16.03.2019 10:08 10,2 °C 65 % 1014,8 hPa 0,0 mm 16,6 km/h (3 Bft) W 281 ° 0 min 0,000 mm 3,1 UV-I 513 W/m² 3,9 °C 10,2 °C 24,1 km/h (4 Bft)
16.03.2019 10:09 10,3 °C 65 % 1014,8 hPa 0,0 mm 22,3 km/h (4 Bft) W 279 ° 0 min 0,000 mm 3,1 UV-I 513 W/m² 4,0 °C 10,3 °C 29,0 km/h (5 Bft)
16.03.2019 10:10 10,3 °C 64 % 1014,7 hPa 0,0 mm 20,3 km/h (4 Bft) W 261 ° 1 min 0,000 mm 3,2 UV-I 652 W/m² 3,8 °C 10,3 °C 32,2 km/h (5 Bft)
16.03.2019 10:11 10,3 °C 65 % 1014,6 hPa 0,0 mm 22,0 km/h (4 Bft) W 277 ° 1 min 0,000 mm 3,3 UV-I 701 W/m² 4,0 °C 10,3 °C 32,2 km/h (5 Bft)
16.03.2019 10:12 10,3 °C 64 % 1014,6 hPa 0,0 mm 23,2 km/h (4 Bft) W 259 ° 1 min 0,000 mm 3,3 UV-I 737 W/m² 3,8 °C 10,3 °C 30,6 km/h (5 Bft)
16.03.2019 10:13 10,4 °C 65 % 1014,6 hPa 0,0 mm 19,1 km/h (3 Bft) W-NW 298 ° 1 min 0,000 mm 2,6 UV-I 737 W/m² 4,1 °C 10,4 °C 32,2 km/h (5 Bft)
16.03.2019 10:14 10,4 °C 64 % 1014,6 hPa 0,0 mm 19,9 km/h (4 Bft) W-NW 284 ° 1 min 0,000 mm 2,7 UV-I 737 W/m² 3,9 °C 10,4 °C 29,0 km/h (5 Bft)
16.03.2019 10:15 10,4 °C 64 % 1014,7 hPa 0,0 mm 20,2 km/h (4 Bft) W 277 ° 0 min 0,000 mm 2,5 UV-I 394 W/m² 3,9 °C 10,4 °C 25,7 km/h (4 Bft)
16.03.2019 10:16 10,4 °C 65 % 1014,7 hPa 0,0 mm 12,3 km/h (3 Bft) SW 232 ° 0 min 0,000 mm 2,3 UV-I 350 W/m² 4,1 °C 10,4 °C 17,7 km/h (3 Bft)
16.03.2019 10:17 10,3 °C 65 % 1014,6 hPa 0,0 mm 12,9 km/h (3 Bft) W-SW 249 ° 0 min 0,000 mm 2,3 UV-I 281 W/m² 4,0 °C 10,3 °C 22,5 km/h (4 Bft)
16.03.2019 10:18 10,3 °C 65 % 1014,6 hPa 0,0 mm 12,7 km/h (3 Bft) W 275 ° 0 min 0,000 mm 2,3 UV-I 311 W/m² 4,0 °C 10,3 °C 19,3 km/h (3 Bft)
16.03.2019 10:19 10,3 °C 64 % 1014,6 hPa 0,0 mm 15,2 km/h (3 Bft) W 273 ° 0 min 0,000 mm 2,6 UV-I 374 W/m² 3,8 °C 10,3 °C 20,9 km/h (4 Bft)
16.03.2019 10:20 10,3 °C 65 % 1014,6 hPa 0,0 mm 9,0 km/h (2 Bft) W-NW 300 ° 0 min 0,000 mm 2,7 UV-I 374 W/m² 4,0 °C 10,3 °C 16,1 km/h (3 Bft)
16.03.2019 10:21 10,3 °C 65 % 1014,6 hPa 0,0 mm 14,1 km/h (3 Bft) W-NW 283 ° 0 min 0,000 mm 2,8 UV-I 374 W/m² 4,0 °C 10,3 °C 25,7 km/h (4 Bft)
16.03.2019 10:22 10,3 °C 66 % 1014,6 hPa 0,0 mm 11,7 km/h (2 Bft) W-NW 298 ° 0 min 0,000 mm 3,4 UV-I 374 W/m² 4,2 °C 10,3 °C 14,5 km/h (3 Bft)
16.03.2019 10:23 10,4 °C 65 % 1014,6 hPa 0,0 mm 8,9 km/h (2 Bft) W-NW 294 ° 0 min 0,000 mm 3,1 UV-I 374 W/m² 4,1 °C 10,4 °C 14,5 km/h (3 Bft)
16.03.2019 10:24 10,4 °C 65 % 1014,7 hPa 0,0 mm 15,9 km/h (3 Bft) W-SW 257 ° 0 min 0,000 mm 2,5 UV-I 338 W/m² 4,1 °C 10,4 °C 20,9 km/h (4 Bft)
16.03.2019 10:25 10,3 °C 65 % 1014,6 hPa 0,0 mm 14,6 km/h (3 Bft) N-NW 330 ° 0 min 0,000 mm 2,7 UV-I 338 W/m² 4,0 °C 10,3 °C 27,4 km/h (4 Bft)
16.03.2019 10:26 10,3 °C 65 % 1014,8 hPa 0,0 mm 15,5 km/h (3 Bft) W-SW 251 ° 0 min 0,000 mm 2,3 UV-I 353 W/m² 4,0 °C 10,3 °C 19,3 km/h (3 Bft)
16.03.2019 10:27 10,3 °C 65 % 1014,7 hPa 0,0 mm 17,4 km/h (3 Bft) W 266 ° 0 min 0,000 mm 2,2 UV-I 297 W/m² 4,0 °C 10,3 °C 33,8 km/h (5 Bft)
16.03.2019 10:28 10,3 °C 66 % 1014,7 hPa 0,0 mm 17,1 km/h (3 Bft) W 273 ° 0 min 0,000 mm 2,3 UV-I 297 W/m² 4,2 °C 10,3 °C 25,7 km/h (4 Bft)
16.03.2019 10:29 10,2 °C 65 % 1014,7 hPa 0,0 mm 9,7 km/h (2 Bft) N-NW 344 ° 0 min 0,000 mm 2,7 UV-I 297 W/m² 3,9 °C 10,2 °C 22,5 km/h (4 Bft)
16.03.2019 10:30 10,2 °C 66 % 1014,7 hPa 0,0 mm 9,3 km/h (2 Bft) W 281 ° 0 min 0,000 mm 2,5 UV-I 297 W/m² 4,1 °C 10,2 °C 12,9 km/h (3 Bft)
16.03.2019 10:31 10,3 °C 66 % 1014,7 hPa 0,0 mm 8,6 km/h (2 Bft) NW 316 ° 0 min 0,000 mm 3,0 UV-I 297 W/m² 4,2 °C 10,3 °C 14,5 km/h (3 Bft)
16.03.2019 10:32 10,3 °C 65 % 1014,5 hPa 0,0 mm 15,4 km/h (3 Bft) N-NW 330 ° 0 min 0,000 mm 3,4 UV-I 599 W/m² 4,0 °C 10,3 °C 33,8 km/h (5 Bft)
16.03.2019 10:33 10,4 °C 66 % 1014,5 hPa 0,0 mm 17,2 km/h (3 Bft) SW 232 ° 1 min 0,000 mm 3,3 UV-I 636 W/m² 4,3 °C 10,4 °C 32,2 km/h (5 Bft)
16.03.2019 10:34 10,4 °C 64 % 1014,7 hPa 0,0 mm 10,7 km/h (2 Bft) W-NW 300 ° 1 min 0,000 mm 3,3 UV-I 636 W/m² 3,9 °C 10,4 °C 16,1 km/h (3 Bft)
16.03.2019 10:35 10,6 °C 65 % 1014,7 hPa 0,0 mm 5,0 km/h (1 Bft) W-NW 283 ° 1 min 0,000 mm 3,3 UV-I 621 W/m² 4,3 °C 10,6 °C 9,7 km/h (2 Bft)
16.03.2019 10:36 10,7 °C 66 % 1014,7 hPa 0,0 mm 6,4 km/h (2 Bft) W-NW 294 ° 1 min 0,000 mm 3,3 UV-I 606 W/m² 4,6 °C 10,7 °C 9,7 km/h (2 Bft)
16.03.2019 10:37 10,8 °C 64 % 1014,6 hPa 0,0 mm 8,7 km/h (2 Bft) W 267 ° 0 min 0,000 mm 3,2 UV-I 594 W/m² 4,3 °C 10,8 °C 14,5 km/h (3 Bft)
16.03.2019 10:38 10,8 °C 64 % 1014,7 hPa 0,0 mm 12,3 km/h (3 Bft) W-SW 243 ° 0 min 0,000 mm 3,2 UV-I 578 W/m² 4,3 °C 10,8 °C 20,9 km/h (4 Bft)
16.03.2019 10:39 10,8 °C 64 % 1014,7 hPa 0,0 mm 17,2 km/h (3 Bft) W 269 ° 0 min 0,000 mm 3,2 UV-I 577 W/m² 4,3 °C 10,8 °C 29,0 km/h (5 Bft)
16.03.2019 10:40 10,8 °C 64 % 1014,7 hPa 0,0 mm 7,5 km/h (2 Bft) W 277 ° 1 min 0,000 mm 3,3 UV-I 603 W/m² 4,3 °C 10,8 °C 17,7 km/h (3 Bft)
16.03.2019 10:41 10,8 °C 65 % 1014,7 hPa 0,0 mm 10,1 km/h (2 Bft) W-NW 298 ° 1 min 0,000 mm 3,3 UV-I 605 W/m² 4,5 °C 10,8 °C 16,1 km/h (3 Bft)
16.03.2019 10:42 10,9 °C 65 % 1014,6 hPa 0,0 mm 16,9 km/h (3 Bft) NW 315 ° 0 min 0,000 mm 3,3 UV-I 596 W/m² 4,6 °C 10,9 °C 24,1 km/h (4 Bft)
16.03.2019 10:43 10,9 °C 64 % 1014,6 hPa 0,0 mm 12,7 km/h (3 Bft) W 259 ° 0 min 0,000 mm 3,3 UV-I 596 W/m² 4,4 °C 10,9 °C 16,1 km/h (3 Bft)
16.03.2019 10:44 10,8 °C 63 % 1014,8 hPa 0,0 mm 18,5 km/h (3 Bft) W-NW 288 ° 0 min 0,000 mm 3,5 UV-I 596 W/m² 4,0 °C 10,8 °C 29,0 km/h (5 Bft)
16.03.2019 10:45 10,8 °C 63 % 1014,6 hPa 0,0 mm 20,4 km/h (4 Bft) W-SW 238 ° 0 min 0,000 mm 3,0 UV-I 596 W/m² 4,0 °C 10,8 °C 29,0 km/h (5 Bft)
16.03.2019 10:46 10,7 °C 63 % 1014,6 hPa 0,0 mm 22,7 km/h (4 Bft) S-SW 205 ° 1 min 0,000 mm 2,3 UV-I 605 W/m² 3,9 °C 10,7 °C 35,4 km/h (5 Bft)
16.03.2019 10:47 10,7 °C 64 % 1014,6 hPa 0,0 mm 16,5 km/h (3 Bft) W-NW 282 ° 1 min 0,000 mm 3,4 UV-I 605 W/m² 4,2 °C 10,7 °C 30,6 km/h (5 Bft)
16.03.2019 10:48 10,6 °C 63 % 1014,7 hPa 0,0 mm 15,9 km/h (3 Bft) W-SW 255 ° 0 min 0,000 mm 3,4 UV-I 594 W/m² 3,9 °C 10,6 °C 24,1 km/h (4 Bft)
16.03.2019 10:49 10,6 °C 64 % 1014,7 hPa 0,0 mm 11,6 km/h (2 Bft) W 276 ° 0 min 0,000 mm 3,3 UV-I 592 W/m² 4,1 °C 10,6 °C 19,3 km/h (3 Bft)
16.03.2019 10:50 10,7 °C 65 % 1014,6 hPa 0,0 mm 15,7 km/h (3 Bft) W-NW 289 ° 0 min 0,000 mm 3,2 UV-I 552 W/m² 4,4 °C 10,7 °C 19,3 km/h (3 Bft)
16.03.2019 10:51 10,7 °C 64 % 1014,6 hPa 0,0 mm 10,1 km/h (2 Bft) W-NW 293 ° 0 min 0,000 mm 3,4 UV-I 552 W/m² 4,2 °C 10,7 °C 17,7 km/h (3 Bft)
16.03.2019 10:52 10,8 °C 64 % 1014,6 hPa 0,0 mm 12,0 km/h (2 Bft) W-NW 297 ° 0 min 0,000 mm 2,5 UV-I 552 W/m² 4,3 °C 10,8 °C 24,1 km/h (4 Bft)
16.03.2019 10:53 10,7 °C 64 % 1014,7 hPa 0,0 mm 15,2 km/h (3 Bft) N-NW 346 ° 0 min 0,000 mm 3,1 UV-I 552 W/m² 4,2 °C 10,7 °C 24,1 km/h (4 Bft)
16.03.2019 10:54 10,7 °C 63 % 1014,6 hPa 0,0 mm 17,5 km/h (3 Bft) W 262 ° 0 min 0,000 mm 3,4 UV-I 552 W/m² 3,9 °C 10,7 °C 25,7 km/h (4 Bft)
16.03.2019 10:55 10,7 °C 64 % 1014,6 hPa 0,0 mm 12,8 km/h (3 Bft) W 269 ° 1 min 0,000 mm 3,4 UV-I 601 W/m² 4,2 °C 10,7 °C 24,1 km/h (4 Bft)
16.03.2019 10:56 10,7 °C 66 % 1014,6 hPa 0,0 mm 12,7 km/h (3 Bft) W 260 ° 1 min 0,000 mm 3,4 UV-I 603 W/m² 4,6 °C 10,7 °C 19,3 km/h (3 Bft)
16.03.2019 10:57 10,8 °C 64 % 1014,6 hPa 0,0 mm 8,4 km/h (2 Bft) W-SW 256 ° 0 min 0,000 mm 3,4 UV-I 596 W/m² 4,3 °C 10,8 °C 12,9 km/h (3 Bft)
16.03.2019 10:58 10,8 °C 64 % 1014,6 hPa 0,0 mm 9,6 km/h (2 Bft) W-SW 250 ° 0 min 0,000 mm 3,4 UV-I 578 W/m² 4,3 °C 10,8 °C 16,1 km/h (3 Bft)
16.03.2019 10:59 10,8 °C 64 % 1014,6 hPa 0,0 mm 12,1 km/h (2 Bft) W 260 ° 0 min 0,000 mm 3,2 UV-I 548 W/m² 4,3 °C 10,8 °C 16,1 km/h (3 Bft)
16.03.2019 11:00 10,8 °C 64 % 1014,6 hPa 0,0 mm 10,6 km/h (2 Bft) NW 318 ° 0 min 0,000 mm 3,4 UV-I 573 W/m² 4,3 °C 10,8 °C 14,5 km/h (3 Bft)
16.03.2019 11:01 10,8 °C 64 % 1014,7 hPa 0,0 mm 8,5 km/h (2 Bft) W 270 ° 0 min 0,279 mm 3,4 UV-I 573 W/m² 4,3 °C 10,8 °C 12,9 km/h (3 Bft)
16.03.2019 11:02 10,9 °C 65 % 1014,7 hPa 0,0 mm 9,1 km/h (2 Bft) W 261 ° 0 min 0,000 mm 3,3 UV-I 566 W/m² 4,6 °C 10,9 °C 22,5 km/h (4 Bft)
16.03.2019 11:03 10,9 °C 65 % 1014,6 hPa 0,0 mm 14,8 km/h (3 Bft) W-SW 250 ° 0 min 0,000 mm 3,3 UV-I 571 W/m² 4,6 °C 10,9 °C 22,5 km/h (4 Bft)
16.03.2019 11:04 10,9 °C 64 % 1014,7 hPa 0,0 mm 16,5 km/h (3 Bft) W-SW 248 ° 0 min 0,000 mm 3,4 UV-I 578 W/m² 4,4 °C 10,9 °C 24,1 km/h (4 Bft)
16.03.2019 11:05 10,9 °C 65 % 1014,7 hPa 0,0 mm 17,2 km/h (3 Bft) W 279 ° 0 min 0,000 mm 3,4 UV-I 577 W/m² 4,6 °C 10,9 °C 25,7 km/h (4 Bft)
16.03.2019 11:06 10,8 °C 64 % 1014,7 hPa 0,0 mm 15,8 km/h (3 Bft) W-NW 288 ° 0 min 0,000 mm 3,5 UV-I 594 W/m² 4,3 °C 10,8 °C 22,5 km/h (4 Bft)
16.03.2019 11:07 10,8 °C 65 % 1014,7 hPa 0,0 mm 11,8 km/h (2 Bft) SW 235 ° 0 min 0,000 mm 3,5 UV-I 591 W/m² 4,5 °C 10,8 °C 16,1 km/h (3 Bft)
16.03.2019 11:08 10,8 °C 65 % 1014,7 hPa 0,0 mm 10,7 km/h (2 Bft) NW 319 ° 0 min 0,000 mm 3,5 UV-I 596 W/m² 4,5 °C 10,8 °C 14,5 km/h (3 Bft)
16.03.2019 11:09 10,8 °C 64 % 1014,7 hPa 0,0 mm 15,0 km/h (3 Bft) W-NW 285 ° 1 min 0,000 mm 3,5 UV-I 601 W/m² 4,3 °C 10,8 °C 19,3 km/h (3 Bft)
16.03.2019 11:10 10,8 °C 64 % 1014,7 hPa 0,0 mm 10,5 km/h (2 Bft) W 267 ° 1 min 0,000 mm 3,6 UV-I 626 W/m² 4,3 °C 10,8 °C 14,5 km/h (3 Bft)
16.03.2019 11:11 10,8 °C 65 % 1014,7 hPa 0,0 mm 7,4 km/h (2 Bft) NW 304 ° 1 min 0,000 mm 3,6 UV-I 617 W/m² 4,5 °C 10,8 °C 9,7 km/h (2 Bft)
16.03.2019 11:12 10,9 °C 66 % 1014,6 hPa 0,0 mm 8,7 km/h (2 Bft) W-NW 290 ° 1 min 0,000 mm 3,6 UV-I 624 W/m² 4,8 °C 10,9 °C 14,5 km/h (3 Bft)
16.03.2019 11:13 11,1 °C 67 % 1014,6 hPa 0,0 mm 9,5 km/h (2 Bft) S-SW 212 ° 1 min 0,000 mm 3,6 UV-I 626 W/m² 5,2 °C 11,1 °C 19,3 km/h (3 Bft)
16.03.2019 11:14 11,2 °C 64 % 1014,6 hPa 0,0 mm 20,4 km/h (4 Bft) W-NW 293 ° 1 min 0,000 mm 3,6 UV-I 621 W/m² 4,6 °C 11,2 °C 24,1 km/h (4 Bft)
16.03.2019 11:15 11,2 °C 64 % 1014,7 hPa 0,0 mm 7,9 km/h (2 Bft) S 175 ° 1 min 0,000 mm 3,6 UV-I 635 W/m² 4,6 °C 11,2 °C 16,1 km/h (3 Bft)
16.03.2019 11:16 11,2 °C 64 % 1014,6 hPa 0,0 mm 6,5 km/h (2 Bft) W 267 ° 1 min 0,000 mm 3,6 UV-I 615 W/m² 4,6 °C 11,2 °C 14,5 km/h (3 Bft)
16.03.2019 11:17 11,2 °C 63 % 1014,7 hPa 0,0 mm 9,3 km/h (2 Bft) W 260 ° 1 min 0,000 mm 3,5 UV-I 603 W/m² 4,4 °C 11,2 °C 16,1 km/h (3 Bft)
16.03.2019 11:18 11,2 °C 64 % 1014,6 hPa 0,0 mm 16,1 km/h (3 Bft) W 263 ° 0 min 0,000 mm 3,6 UV-I 599 W/m² 4,6 °C 11,2 °C 22,5 km/h (4 Bft)
16.03.2019 11:19 11,3 °C 64 % 1014,6 hPa 0,0 mm 11,5 km/h (2 Bft) W-NW 282 ° 0 min 0,000 mm 3,5 UV-I 594 W/m² 4,7 °C 11,3 °C 14,5 km/h (3 Bft)
16.03.2019 11:20 11,3 °C 63 % 1014,6 hPa 0,0 mm 10,9 km/h (2 Bft) W 276 ° 0 min 0,000 mm 3,5 UV-I 592 W/m² 4,5 °C 11,3 °C 12,9 km/h (3 Bft)
16.03.2019 11:21 11,3 °C 65 % 1014,6 hPa 0,0 mm 6,1 km/h (2 Bft) W 263 ° 0 min 0,000 mm 3,5 UV-I 573 W/m² 5,0 °C 11,3 °C 11,3 km/h (2 Bft)
16.03.2019 11:22 11,3 °C 63 % 1014,6 hPa 0,0 mm 4,5 km/h (1 Bft) W 268 ° 0 min 0,000 mm 3,6 UV-I 598 W/m² 4,5 °C 11,3 °C 6,4 km/h (2 Bft)
16.03.2019 11:23 11,3 °C 62 % 1014,6 hPa 0,0 mm 11,7 km/h (2 Bft) SW 229 ° 0 min 0,000 mm 3,5 UV-I 587 W/m² 4,3 °C 11,3 °C 16,1 km/h (3 Bft)
16.03.2019 11:24 11,3 °C 62 % 1014,6 hPa 0,0 mm 16,6 km/h (3 Bft) W 279 ° 1 min 0,000 mm 3,6 UV-I 601 W/m² 4,3 °C 11,3 °C 20,9 km/h (4 Bft)
16.03.2019 11:25 11,2 °C 62 % 1014,6 hPa 0,0 mm 12,5 km/h (3 Bft) W 259 ° 0 min 0,000 mm 3,6 UV-I 596 W/m² 4,2 °C 11,2 °C 19,3 km/h (3 Bft)
16.03.2019 11:26 11,2 °C 64 % 1014,6 hPa 0,0 mm 9,4 km/h (2 Bft) W 273 ° 1 min 0,000 mm 3,7 UV-I 601 W/m² 4,6 °C 11,2 °C 14,5 km/h (3 Bft)
16.03.2019 11:27 11,3 °C 63 % 1014,6 hPa 0,0 mm 5,4 km/h (1 Bft) W 265 ° 1 min 0,000 mm 3,4 UV-I 626 W/m² 4,5 °C 11,3 °C 9,7 km/h (2 Bft)
16.03.2019 11:28 11,3 °C 63 % 1014,6 hPa 0,0 mm 14,1 km/h (3 Bft) W-NW 302 ° 1 min 0,000 mm 3,8 UV-I 652 W/m² 4,5 °C 11,3 °C 17,7 km/h (3 Bft)
16.03.2019 11:29 11,3 °C 63 % 1014,6 hPa 0,0 mm 12,1 km/h (2 Bft) W-NW 287 ° 1 min 0,000 mm 3,6 UV-I 606 W/m² 4,5 °C 11,3 °C 16,1 km/h (3 Bft)
16.03.2019 11:30 11,3 °C 63 % 1014,6 hPa 0,0 mm 7,0 km/h (2 Bft) S 178 ° 1 min 0,000 mm 3,6 UV-I 606 W/m² 4,5 °C 11,3 °C 16,1 km/h (3 Bft)
16.03.2019 11:31 11,3 °C 62 % 1014,5 hPa 0,0 mm 8,5 km/h (2 Bft) W-SW 254 ° 0 min 0,000 mm 3,6 UV-I 555 W/m² 4,3 °C 11,3 °C 12,9 km/h (3 Bft)
16.03.2019 11:32 11,3 °C 63 % 1014,5 hPa 0,0 mm 17,9 km/h (3 Bft) W 277 ° 0 min 0,000 mm 3,7 UV-I 578 W/m² 4,5 °C 11,3 °C 24,1 km/h (4 Bft)
16.03.2019 11:33 11,3 °C 63 % 1014,5 hPa 0,0 mm 13,7 km/h (3 Bft) W 276 ° 0 min 0,000 mm 3,6 UV-I 533 W/m² 4,5 °C 11,3 °C 20,9 km/h (4 Bft)
16.03.2019 11:34 11,3 °C 64 % 1014,5 hPa 0,0 mm 18,2 km/h (3 Bft) W-SW 244 ° 0 min 0,000 mm 3,5 UV-I 573 W/m² 4,7 °C 11,3 °C 25,7 km/h (4 Bft)
16.03.2019 11:35 11,4 °C 63 % 1014,5 hPa 0,0 mm 9,0 km/h (2 Bft) W 259 ° 0 min 0,000 mm 3,7 UV-I 519 W/m² 4,6 °C 11,4 °C 14,5 km/h (3 Bft)
16.03.2019 11:36 11,4 °C 63 % 1014,6 hPa 0,0 mm 13,7 km/h (3 Bft) W 259 ° 0 min 0,000 mm 3,7 UV-I 519 W/m² 4,6 °C 11,4 °C 25,7 km/h (4 Bft)
16.03.2019 11:37 11,5 °C 62 % 1014,6 hPa 0,0 mm 17,8 km/h (3 Bft) SW 234 ° 1 min 0,000 mm 3,8 UV-I 679 W/m² 4,5 °C 11,5 °C 25,7 km/h (4 Bft)
16.03.2019 11:38 11,5 °C 62 % 1014,6 hPa 0,0 mm 17,3 km/h (3 Bft) W 269 ° 1 min 0,000 mm 3,7 UV-I 621 W/m² 4,5 °C 11,5 °C 24,1 km/h (4 Bft)
16.03.2019 11:39 11,4 °C 61 % 1014,6 hPa 0,0 mm 15,2 km/h (3 Bft) NW 320 ° 0 min 0,000 mm 3,7 UV-I 592 W/m² 4,2 °C 11,4 °C 24,1 km/h (4 Bft)
16.03.2019 11:40 11,4 °C 62 % 1014,6 hPa 0,0 mm 12,1 km/h (2 Bft) SW 220 ° 0 min 0,000 mm 3,9 UV-I 559 W/m² 4,4 °C 11,4 °C 17,7 km/h (3 Bft)
16.03.2019 11:41 11,4 °C 63 % 1014,6 hPa 0,0 mm 11,5 km/h (2 Bft) NW 316 ° 1 min 0,000 mm 3,7 UV-I 622 W/m² 4,6 °C 11,4 °C 25,7 km/h (4 Bft)
16.03.2019 11:42 11,4 °C 62 % 1014,6 hPa 0,0 mm 16,0 km/h (3 Bft) W-SW 257 ° 1 min 0,000 mm 3,8 UV-I 612 W/m² 4,4 °C 11,4 °C 24,1 km/h (4 Bft)
16.03.2019 11:43 11,4 °C 62 % 1014,6 hPa 0,0 mm 12,8 km/h (3 Bft) SW 231 ° 0 min 0,000 mm 3,7 UV-I 541 W/m² 4,4 °C 11,4 °C 22,5 km/h (4 Bft)
16.03.2019 11:44 11,4 °C 63 % 1014,5 hPa 0,0 mm 12,3 km/h (3 Bft) NW 321 ° 0 min 0,000 mm 3,9 UV-I 541 W/m² 4,6 °C 11,4 °C 19,3 km/h (3 Bft)
16.03.2019 11:45 11,4 °C 63 % 1014,6 hPa 0,0 mm 19,4 km/h (3 Bft) W-NW 287 ° 1 min 0,000 mm 3,9 UV-I 668 W/m² 4,6 °C 11,4 °C 25,7 km/h (4 Bft)
16.03.2019 11:46 11,4 °C 63 % 1014,5 hPa 0,0 mm 14,9 km/h (3 Bft) NW 308 ° 1 min 0,000 mm 4,0 UV-I 682 W/m² 4,6 °C 11,4 °C 20,9 km/h (4 Bft)
16.03.2019 11:47 11,5 °C 63 % 1014,4 hPa 0,0 mm 13,2 km/h (3 Bft) W-NW 294 ° 1 min 0,000 mm 4,0 UV-I 691 W/m² 4,7 °C 11,5 °C 25,7 km/h (4 Bft)
16.03.2019 11:48 11,6 °C 64 % 1014,4 hPa 0,0 mm 15,6 km/h (3 Bft) NW 311 ° 1 min 0,000 mm 4,0 UV-I 698 W/m² 5,0 °C 11,6 °C 19,3 km/h (3 Bft)
16.03.2019 11:49 11,6 °C 64 % 1014,4 hPa 0,0 mm 13,1 km/h (3 Bft) NW 323 ° 1 min 0,000 mm 4,0 UV-I 698 W/m² 5,0 °C 11,6 °C 20,9 km/h (4 Bft)
16.03.2019 11:50 11,7 °C 64 % 1014,4 hPa 0,0 mm 16,2 km/h (3 Bft) NW 305 ° 1 min 0,000 mm 3,9 UV-I 652 W/m² 5,1 °C 11,7 °C 20,9 km/h (4 Bft)
16.03.2019 11:51 11,6 °C 62 % 1014,4 hPa 0,0 mm 16,2 km/h (3 Bft) W-NW 302 ° 1 min 0,000 mm 4,0 UV-I 693 W/m² 4,6 °C 11,6 °C 24,1 km/h (4 Bft)
16.03.2019 11:52 11,6 °C 62 % 1014,4 hPa 0,0 mm 9,1 km/h (2 Bft) NW 314 ° 1 min 0,000 mm 4,0 UV-I 701 W/m² 4,6 °C 11,6 °C 17,7 km/h (3 Bft)
16.03.2019 11:53 11,6 °C 63 % 1014,4 hPa 0,0 mm 10,4 km/h (2 Bft) W 263 ° 1 min 0,000 mm 4,0 UV-I 701 W/m² 4,8 °C 11,6 °C 19,3 km/h (3 Bft)
16.03.2019 11:54 11,7 °C 62 % 1014,4 hPa 0,0 mm 10,4 km/h (2 Bft) W 279 ° 1 min 0,000 mm 4,0 UV-I 728 W/m² 4,7 °C 11,7 °C 14,5 km/h (3 Bft)
16.03.2019 11:55 11,8 °C 63 % 1014,3 hPa 0,0 mm 12,3 km/h (3 Bft) S-SW 205 ° 1 min 0,000 mm 4,2 UV-I 733 W/m² 5,0 °C 11,8 °C 29,0 km/h (5 Bft)
16.03.2019 11:56 11,8 °C 60 % 1014,3 hPa 0,0 mm 12,4 km/h (3 Bft) SW 223 ° 1 min 0,000 mm 3,9 UV-I 733 W/m² 4,3 °C 11,8 °C 19,3 km/h (3 Bft)
16.03.2019 11:57 11,8 °C 62 % 1014,3 hPa 0,0 mm 8,4 km/h (2 Bft) SW 234 ° 1 min 0,000 mm 4,0 UV-I 733 W/m² 4,8 °C 11,8 °C 17,7 km/h (3 Bft)
16.03.2019 11:58 11,6 °C 59 % 1014,3 hPa 0,0 mm 8,9 km/h (2 Bft) NW 308 ° 0 min 0,000 mm 3,9 UV-I 582 W/m² 3,9 °C 11,6 °C 12,9 km/h (3 Bft)
16.03.2019 11:59 11,6 °C 60 % 1014,1 hPa 0,0 mm 5,0 km/h (1 Bft) NW 304 ° 0 min 0,000 mm 2,8 UV-I 582 W/m² 4,1 °C 11,6 °C 6,4 km/h (2 Bft)
16.03.2019 12:00 11,7 °C 63 % 1014,1 hPa 0,0 mm 8,0 km/h (2 Bft) W 261 ° 0 min 0,000 mm 3,0 UV-I 315 W/m² 4,9 °C 11,7 °C 20,9 km/h (4 Bft)
16.03.2019 12:01 11,7 °C 62 % 1014,2 hPa 0,0 mm 19,1 km/h (3 Bft) W-NW 286 ° 0 min 0,330 mm 3,3 UV-I 315 W/m² 4,7 °C 11,7 °C 27,4 km/h (4 Bft)
16.03.2019 12:02 11,7 °C 62 % 1014,2 hPa 0,0 mm 13,5 km/h (3 Bft) W-NW 285 ° 0 min 0,000 mm 3,7 UV-I 315 W/m² 4,7 °C 11,7 °C 17,7 km/h (3 Bft)
16.03.2019 12:03 11,6 °C 62 % 1014,1 hPa 0,0 mm 13,5 km/h (3 Bft) W-NW 284 ° 0 min 0,000 mm 3,9 UV-I 315 W/m² 4,6 °C 11,6 °C 19,3 km/h (3 Bft)
16.03.2019 12:04 11,7 °C 63 % 1014,1 hPa 0,0 mm 16,7 km/h (3 Bft) W 261 ° 0 min 0,000 mm 3,0 UV-I 318 W/m² 4,9 °C 11,7 °C 22,5 km/h (4 Bft)
16.03.2019 12:05 11,7 °C 62 % 1014,1 hPa 0,0 mm 14,9 km/h (3 Bft) W 266 ° 0 min 0,000 mm 3,1 UV-I 334 W/m² 4,7 °C 11,7 °C 22,5 km/h (4 Bft)
16.03.2019 12:06 11,6 °C 61 % 1014,0 hPa 0,0 mm 9,9 km/h (2 Bft) W-NW 286 ° 0 min 0,000 mm 2,7 UV-I 334 W/m² 4,3 °C 11,6 °C 14,5 km/h (3 Bft)
16.03.2019 12:07 11,5 °C 63 % 1014,0 hPa 0,0 mm 10,0 km/h (2 Bft) W 271 ° 0 min 0,000 mm 3,1 UV-I 436 W/m² 4,7 °C 11,5 °C 16,1 km/h (3 Bft)
16.03.2019 12:08 11,6 °C 64 % 1014,0 hPa 0,0 mm 8,7 km/h (2 Bft) N-NW 327 ° 0 min 0,000 mm 3,4 UV-I 452 W/m² 5,0 °C 11,6 °C 12,9 km/h (3 Bft)
16.03.2019 12:09 11,5 °C 62 % 1014,1 hPa 0,0 mm 13,1 km/h (3 Bft) NW 321 ° 0 min 0,000 mm 3,2 UV-I 410 W/m² 4,5 °C 11,5 °C 27,4 km/h (4 Bft)
16.03.2019 12:10 11,6 °C 62 % 1014,0 hPa 0,0 mm 11,1 km/h (2 Bft) W 271 ° 0 min 0,000 mm 3,2 UV-I 427 W/m² 4,6 °C 11,6 °C 17,7 km/h (3 Bft)
16.03.2019 12:11 11,6 °C 63 % 1014,0 hPa 0,0 mm 12,1 km/h (2 Bft) W 269 ° 0 min 0,000 mm 4,1 UV-I 427 W/m² 4,8 °C 11,6 °C 14,5 km/h (3 Bft)
16.03.2019 12:12 11,7 °C 62 % 1013,9 hPa 0,0 mm 9,9 km/h (2 Bft) S 187 ° 1 min 0,000 mm 4,1 UV-I 721 W/m² 4,7 °C 11,7 °C 16,1 km/h (3 Bft)
16.03.2019 12:13 11,7 °C 60 % 1013,8 hPa 0,0 mm 8,3 km/h (2 Bft) W-NW 298 ° 1 min 0,000 mm 4,0 UV-I 701 W/m² 4,2 °C 11,7 °C 14,5 km/h (3 Bft)
16.03.2019 12:14 11,7 °C 62 % 1013,8 hPa 0,0 mm 16,1 km/h (3 Bft) W-SW 252 ° 1 min 0,000 mm 4,0 UV-I 666 W/m² 4,7 °C 11,7 °C 20,9 km/h (4 Bft)
16.03.2019 12:15 11,8 °C 63 % 1013,8 hPa 0,0 mm 13,9 km/h (3 Bft) W 267 ° 1 min 0,000 mm 3,8 UV-I 626 W/m² 5,0 °C 11,8 °C 17,7 km/h (3 Bft)
16.03.2019 12:16 11,8 °C 62 % 1013,7 hPa 0,0 mm 13,3 km/h (3 Bft) W 270 ° 1 min 0,000 mm 3,6 UV-I 628 W/m² 4,8 °C 11,8 °C 20,9 km/h (4 Bft)
16.03.2019 12:17 11,8 °C 61 % 1013,7 hPa 0,0 mm 18,8 km/h (3 Bft) W 273 ° 1 min 0,000 mm 4,0 UV-I 682 W/m² 4,5 °C 11,8 °C 25,7 km/h (4 Bft)
16.03.2019 12:18 11,8 °C 61 % 1013,6 hPa 0,0 mm 11,7 km/h (2 Bft) W 269 ° 1 min 0,000 mm 4,0 UV-I 671 W/m² 4,5 °C 11,8 °C 16,1 km/h (3 Bft)
16.03.2019 12:19 11,9 °C 62 % 1013,7 hPa 0,0 mm 14,9 km/h (3 Bft) W 274 ° 1 min 0,000 mm 4,1 UV-I 717 W/m² 4,9 °C 11,9 °C 24,1 km/h (4 Bft)
16.03.2019 12:20 12,0 °C 61 % 1013,6 hPa 0,0 mm 13,1 km/h (3 Bft) W 276 ° 1 min 0,000 mm 4,1 UV-I 694 W/m² 4,7 °C 12,0 °C 16,1 km/h (3 Bft)
16.03.2019 12:21 12,2 °C 63 % 1013,7 hPa 0,0 mm 12,1 km/h (2 Bft) W 264 ° 1 min 0,000 mm 4,1 UV-I 694 W/m² 5,4 °C 12,2 °C 22,5 km/h (4 Bft)
16.03.2019 12:22 12,3 °C 62 % 1013,6 hPa 0,0 mm 13,3 km/h (3 Bft) W 269 ° 1 min 0,000 mm 4,0 UV-I 673 W/m² 5,2 °C 12,3 °C 20,9 km/h (4 Bft)
16.03.2019 12:23 12,3 °C 60 % 1013,6 hPa 0,0 mm 11,5 km/h (2 Bft) W-SW 248 ° 1 min 0,000 mm 4,0 UV-I 679 W/m² 4,8 °C 12,3 °C 16,1 km/h (3 Bft)
16.03.2019 12:24 12,4 °C 61 % 1013,5 hPa 0,0 mm 8,8 km/h (2 Bft) W-SW 243 ° 1 min 0,000 mm 4,0 UV-I 680 W/m² 5,1 °C 12,4 °C 20,9 km/h (4 Bft)
16.03.2019 12:25 12,4 °C 61 % 1013,5 hPa 0,0 mm 9,5 km/h (2 Bft) W-SW 258 ° 1 min 0,000 mm 4,0 UV-I 686 W/m² 5,1 °C 12,4 °C 19,3 km/h (3 Bft)
16.03.2019 12:26 12,4 °C 61 % 1013,5 hPa 0,0 mm 10,5 km/h (2 Bft) SW 214 ° 1 min 0,000 mm 4,1 UV-I 701 W/m² 5,1 °C 12,4 °C 16,1 km/h (3 Bft)
16.03.2019 12:27 12,3 °C 60 % 1013,4 hPa 0,0 mm 8,8 km/h (2 Bft) S-SW 207 ° 1 min 0,000 mm 4,1 UV-I 707 W/m² 4,8 °C 12,3 °C 17,7 km/h (3 Bft)
16.03.2019 12:28 12,3 °C 61 % 1013,5 hPa 0,0 mm 14,5 km/h (3 Bft) W 266 ° 1 min 0,000 mm 4,1 UV-I 705 W/m² 5,0 °C 12,3 °C 19,3 km/h (3 Bft)
16.03.2019 12:29 12,3 °C 61 % 1013,2 hPa 0,0 mm 12,1 km/h (2 Bft) W-SW 238 ° 1 min 0,000 mm 4,1 UV-I 657 W/m² 5,0 °C 12,3 °C 20,9 km/h (4 Bft)
16.03.2019 12:30 12,2 °C 61 % 1013,2 hPa 0,0 mm 15,1 km/h (3 Bft) W 277 ° 1 min 0,000 mm 4,1 UV-I 682 W/m² 4,9 °C 12,2 °C 22,5 km/h (4 Bft)
16.03.2019 12:31 12,2 °C 60 % 1013,2 hPa 0,0 mm 12,3 km/h (3 Bft) W-SW 254 ° 1 min 0,000 mm 4,1 UV-I 696 W/m² 4,7 °C 12,2 °C 17,7 km/h (3 Bft)
16.03.2019 12:32 12,1 °C 60 % 1013,1 hPa 0,0 mm 16,6 km/h (3 Bft) W-NW 301 ° 1 min 0,000 mm 4,1 UV-I 677 W/m² 4,6 °C 12,1 °C 20,9 km/h (4 Bft)
16.03.2019 12:33 12,1 °C 60 % 1013,1 hPa 0,0 mm 9,7 km/h (2 Bft) W 271 ° 1 min 0,000 mm 4,0 UV-I 707 W/m² 4,6 °C 12,1 °C 14,5 km/h (3 Bft)
16.03.2019 12:34 12,2 °C 61 % 1013,2 hPa 0,0 mm 13,1 km/h (3 Bft) W 260 ° 1 min 0,000 mm 4,1 UV-I 710 W/m² 4,9 °C 12,2 °C 17,7 km/h (3 Bft)
16.03.2019 12:35 12,2 °C 61 % 1013,1 hPa 0,0 mm 14,5 km/h (3 Bft) W 276 ° 1 min 0,000 mm 4,1 UV-I 707 W/m² 4,9 °C 12,2 °C 20,9 km/h (4 Bft)
16.03.2019 12:36 12,3 °C 60 % 1013,2 hPa 0,0 mm 12,1 km/h (2 Bft) W-NW 284 ° 1 min 0,000 mm 4,1 UV-I 698 W/m² 4,8 °C 12,3 °C 17,7 km/h (3 Bft)
16.03.2019 12:37 12,4 °C 62 % 1013,1 hPa 0,0 mm 8,8 km/h (2 Bft) W 270 ° 1 min 0,000 mm 4,1 UV-I 698 W/m² 5,3 °C 12,4 °C 12,9 km/h (3 Bft)
16.03.2019 12:38 12,5 °C 61 % 1013,1 hPa 0,0 mm 16,8 km/h (3 Bft) S-SW 205 ° 1 min 0,000 mm 4,0 UV-I 696 W/m² 5,2 °C 12,5 °C 24,1 km/h (4 Bft)
16.03.2019 12:39 12,6 °C 60 % 1013,0 hPa 0,0 mm 12,9 km/h (3 Bft) SW 229 ° 1 min 0,000 mm 4,1 UV-I 698 W/m² 5,0 °C 12,6 °C 25,7 km/h (4 Bft)
16.03.2019 12:40 12,5 °C 60 % 1013,0 hPa 0,0 mm 14,3 km/h (3 Bft) NW 326 ° 1 min 0,000 mm 4,1 UV-I 700 W/m² 5,0 °C 12,5 °C 17,7 km/h (3 Bft)
16.03.2019 12:41 12,5 °C 61 % 1013,0 hPa 0,0 mm 12,3 km/h (3 Bft) W-NW 291 ° 1 min 0,000 mm 3,9 UV-I 693 W/m² 5,2 °C 12,5 °C 19,3 km/h (3 Bft)
16.03.2019 12:42 12,5 °C 60 % 1013,1 hPa 0,0 mm 12,2 km/h (2 Bft) W-NW 287 ° 1 min 0,000 mm 4,0 UV-I 671 W/m² 5,0 °C 12,5 °C 19,3 km/h (3 Bft)
16.03.2019 12:43 12,5 °C 60 % 1012,9 hPa 0,0 mm 9,9 km/h (2 Bft) NW 311 ° 1 min 0,000 mm 4,0 UV-I 666 W/m² 5,0 °C 12,5 °C 14,5 km/h (3 Bft)
16.03.2019 12:44 12,5 °C 60 % 1013,0 hPa 0,0 mm 17,6 km/h (3 Bft) NW 325 ° 1 min 0,000 mm 4,0 UV-I 671 W/m² 5,0 °C 12,5 °C 27,4 km/h (4 Bft)
16.03.2019 12:45 12,5 °C 59 % 1013,0 hPa 0,0 mm 15,6 km/h (3 Bft) W-SW 257 ° 1 min 0,000 mm 4,0 UV-I 696 W/m² 4,7 °C 12,5 °C 22,5 km/h (4 Bft)
16.03.2019 12:46 12,5 °C 60 % 1013,0 hPa 0,0 mm 18,4 km/h (3 Bft) NW 304 ° 1 min 0,000 mm 4,0 UV-I 652 W/m² 5,0 °C 12,5 °C 25,7 km/h (4 Bft)
16.03.2019 12:47 12,4 °C 59 % 1013,1 hPa 0,0 mm 15,3 km/h (3 Bft) W 274 ° 1 min 0,000 mm 4,0 UV-I 687 W/m² 4,6 °C 12,4 °C 20,9 km/h (4 Bft)
16.03.2019 12:48 12,4 °C 60 % 1013,1 hPa 0,0 mm 15,8 km/h (3 Bft) W 267 ° 1 min 0,000 mm 4,0 UV-I 682 W/m² 4,9 °C 12,4 °C 25,7 km/h (4 Bft)
16.03.2019 12:49 12,4 °C 61 % 1013,0 hPa 0,0 mm 15,3 km/h (3 Bft) W 271 ° 1 min 0,000 mm 4,0 UV-I 684 W/m² 5,1 °C 12,4 °C 20,9 km/h (4 Bft)
16.03.2019 12:50 12,5 °C 61 % 1013,0 hPa 0,0 mm 14,1 km/h (3 Bft) W-SW 258 ° 1 min 0,000 mm 4,0 UV-I 680 W/m² 5,2 °C 12,5 °C 20,9 km/h (4 Bft)
16.03.2019 12:51 12,5 °C 60 % 1013,0 hPa 0,0 mm 13,4 km/h (3 Bft) W 267 ° 1 min 0,000 mm 4,0 UV-I 677 W/m² 5,0 °C 12,5 °C 19,3 km/h (3 Bft)
16.03.2019 12:52 12,6 °C 60 % 1013,0 hPa 0,0 mm 12,2 km/h (2 Bft) W 272 ° 1 min 0,000 mm 4,0 UV-I 671 W/m² 5,0 °C 12,6 °C 16,1 km/h (3 Bft)
16.03.2019 12:53 12,6 °C 60 % 1012,9 hPa 0,0 mm 12,9 km/h (3 Bft) W 261 ° 1 min 0,000 mm 3,9 UV-I 657 W/m² 5,0 °C 12,6 °C 20,9 km/h (4 Bft)
16.03.2019 12:54 12,6 °C 61 % 1012,9 hPa 0,0 mm 8,9 km/h (2 Bft) W-NW 288 ° 1 min 0,000 mm 4,0 UV-I 664 W/m² 5,3 °C 12,6 °C 12,9 km/h (3 Bft)
16.03.2019 12:55 12,7 °C 60 % 1012,9 hPa 0,0 mm 9,6 km/h (2 Bft) W 260 ° 1 min 0,000 mm 3,9 UV-I 656 W/m² 5,1 °C 12,7 °C 16,1 km/h (3 Bft)
16.03.2019 12:56 12,7 °C 59 % 1012,9 hPa 0,0 mm 12,4 km/h (3 Bft) W 269 ° 0 min 0,000 mm 4,0 UV-I 592 W/m² 4,9 °C 12,7 °C 14,5 km/h (3 Bft)
16.03.2019 12:57 12,8 °C 60 % 1013,0 hPa 0,0 mm 14,2 km/h (3 Bft) W-NW 284 ° 1 min 0,000 mm 4,0 UV-I 679 W/m² 5,2 °C 12,8 °C 20,9 km/h (4 Bft)
16.03.2019 12:58 12,9 °C 61 % 1012,8 hPa 0,0 mm 12,5 km/h (3 Bft) SW 224 ° 1 min 0,000 mm 4,0 UV-I 679 W/m² 5,6 °C 12,9 °C 19,3 km/h (3 Bft)
16.03.2019 12:59 12,9 °C 59 % 1012,8 hPa 0,0 mm 9,8 km/h (2 Bft) W 273 ° 1 min 0,000 mm 4,0 UV-I 675 W/m² 5,1 °C 12,9 °C 14,5 km/h (3 Bft)
16.03.2019 13:00 12,9 °C 60 % 1012,8 hPa 0,0 mm 12,3 km/h (3 Bft) NW 321 ° 1 min 0,381 mm 4,0 UV-I 675 W/m² 5,3 °C 12,9 °C 19,3 km/h (3 Bft)
16.03.2019 13:01 13,1 °C 60 % 1012,8 hPa 0,0 mm 14,1 km/h (3 Bft) W-NW 297 ° 1 min 0,000 mm 4,0 UV-I 680 W/m² 5,5 °C 13,1 °C 17,7 km/h (3 Bft)
16.03.2019 13:02 13,1 °C 60 % 1012,8 hPa 0,0 mm 8,2 km/h (2 Bft) W 259 ° 1 min 0,000 mm 4,0 UV-I 682 W/m² 5,5 °C 13,1 °C 14,5 km/h (3 Bft)
16.03.2019 13:03 13,1 °C 58 % 1012,9 hPa 0,0 mm 15,5 km/h (3 Bft) W-NW 284 ° 1 min 0,000 mm 4,0 UV-I 694 W/m² 5,0 °C 13,1 °C 19,3 km/h (3 Bft)
16.03.2019 13:04 13,1 °C 59 % 1012,9 hPa 0,0 mm 12,7 km/h (3 Bft) W-SW 257 ° 1 min 0,000 mm 4,0 UV-I 691 W/m² 5,3 °C 13,1 °C 22,5 km/h (4 Bft)
16.03.2019 13:05 13,2 °C 59 % 1012,8 hPa 0,0 mm 13,1 km/h (3 Bft) W-NW 286 ° 1 min 0,000 mm 4,0 UV-I 696 W/m² 5,4 °C 13,2 °C 19,3 km/h (3 Bft)
16.03.2019 13:06 13,2 °C 58 % 1012,9 hPa 0,0 mm 10,0 km/h (2 Bft) W-SW 237 ° 1 min 0,000 mm 4,0 UV-I 693 W/m² 5,1 °C 13,2 °C 14,5 km/h (3 Bft)
16.03.2019 13:07 13,2 °C 59 % 1012,8 hPa 0,0 mm 21,5 km/h (4 Bft) W 269 ° 1 min 0,000 mm 4,0 UV-I 705 W/m² 5,4 °C 13,2 °C 30,6 km/h (5 Bft)
16.03.2019 13:08 13,2 °C 59 % 1012,8 hPa 0,0 mm 15,8 km/h (3 Bft) W 276 ° 1 min 0,000 mm 4,1 UV-I 717 W/m² 5,4 °C 13,2 °C 22,5 km/h (4 Bft)
16.03.2019 13:09 13,2 °C 58 % 1012,8 hPa 0,0 mm 15,8 km/h (3 Bft) W-NW 301 ° 1 min 0,000 mm 4,1 UV-I 724 W/m² 5,1 °C 13,2 °C 24,1 km/h (4 Bft)
16.03.2019 13:10 13,2 °C 58 % 1012,7 hPa 0,0 mm 12,1 km/h (2 Bft) W 279 ° 1 min 0,000 mm 3,4 UV-I 629 W/m² 5,1 °C 13,2 °C 20,9 km/h (4 Bft)
16.03.2019 13:11 13,2 °C 58 % 1012,7 hPa 0,0 mm 13,5 km/h (3 Bft) W 275 ° 1 min 0,000 mm 3,6 UV-I 626 W/m² 5,1 °C 13,2 °C 20,9 km/h (4 Bft)
16.03.2019 13:12 13,1 °C 58 % 1012,7 hPa 0,0 mm 10,7 km/h (2 Bft) W 279 ° 1 min 0,000 mm 4,1 UV-I 606 W/m² 5,0 °C 13,1 °C 16,1 km/h (3 Bft)
16.03.2019 13:13 13,2 °C 58 % 1012,7 hPa 0,0 mm 16,0 km/h (3 Bft) W-SW 257 ° 1 min 0,000 mm 4,3 UV-I 752 W/m² 5,1 °C 13,2 °C 22,5 km/h (4 Bft)
16.03.2019 13:14 13,2 °C 58 % 1012,6 hPa 0,0 mm 15,1 km/h (3 Bft) W 262 ° 1 min 0,000 mm 4,3 UV-I 752 W/m² 5,1 °C 13,2 °C 22,5 km/h (4 Bft)
16.03.2019 13:15 13,3 °C 59 % 1012,5 hPa 0,0 mm 18,6 km/h (3 Bft) W 259 ° 1 min 0,000 mm 4,3 UV-I 791 W/m² 5,5 °C 13,3 °C 27,4 km/h (4 Bft)
16.03.2019 13:16 13,3 °C 58 % 1012,5 hPa 0,0 mm 15,7 km/h (3 Bft) SW 224 ° 1 min 0,000 mm 4,3 UV-I 810 W/m² 5,2 °C 13,3 °C 24,1 km/h (4 Bft)
16.03.2019 13:17 13,4 °C 57 % 1012,4 hPa 0,0 mm 14,6 km/h (3 Bft) N-NW 329 ° 1 min 0,000 mm 4,4 UV-I 810 W/m² 5,1 °C 13,4 °C 19,3 km/h (3 Bft)
16.03.2019 13:18 13,4 °C 57 % 1012,4 hPa 0,0 mm 16,4 km/h (3 Bft) W-NW 292 ° 1 min 0,000 mm 4,2 UV-I 795 W/m² 5,1 °C 13,4 °C 24,1 km/h (4 Bft)
16.03.2019 13:19 13,5 °C 58 % 1012,4 hPa 0,0 mm 7,4 km/h (2 Bft) W 262 ° 1 min 0,000 mm 4,3 UV-I 761 W/m² 5,4 °C 13,5 °C 12,9 km/h (3 Bft)
16.03.2019 13:20 13,5 °C 57 % 1012,3 hPa 0,0 mm 9,5 km/h (2 Bft) W-SW 242 ° 1 min 0,000 mm 4,4 UV-I 802 W/m² 5,2 °C 13,5 °C 16,1 km/h (3 Bft)
16.03.2019 13:21 13,6 °C 58 % 1012,2 hPa 0,0 mm 6,8 km/h (2 Bft) S-SW 198 ° 1 min 0,000 mm 4,4 UV-I 807 W/m² 5,5 °C 13,6 °C 12,9 km/h (3 Bft)
16.03.2019 13:22 13,9 °C 59 % 1012,2 hPa 0,0 mm 10,9 km/h (2 Bft) W 271 ° 1 min 0,000 mm 4,5 UV-I 814 W/m² 6,0 °C 13,9 °C 14,5 km/h (3 Bft)
16.03.2019 13:23 14,1 °C 57 % 1012,3 hPa 0,0 mm 17,0 km/h (3 Bft) W-NW 289 ° 1 min 0,000 mm 4,5 UV-I 819 W/m² 5,7 °C 14,1 °C 22,5 km/h (4 Bft)
16.03.2019 13:24 14,0 °C 56 % 1012,2 hPa 0,0 mm 15,9 km/h (3 Bft) W-NW 294 ° 1 min 0,000 mm 4,4 UV-I 833 W/m² 5,4 °C 14,0 °C 24,1 km/h (4 Bft)
16.03.2019 13:25 14,0 °C 57 % 1012,2 hPa 0,0 mm 13,3 km/h (3 Bft) W-SW 241 ° 1 min 0,000 mm 4,5 UV-I 835 W/m² 5,6 °C 14,0 °C 20,9 km/h (4 Bft)
16.03.2019 13:26 13,9 °C 56 % 1012,1 hPa 0,0 mm 11,5 km/h (2 Bft) W-NW 301 ° 1 min 0,000 mm 3,7 UV-I 835 W/m² 5,3 °C 13,9 °C 19,3 km/h (3 Bft)
16.03.2019 13:27 13,9 °C 56 % 1012,1 hPa 0,0 mm 10,8 km/h (2 Bft) W 272 ° 1 min 0,000 mm 4,5 UV-I 675 W/m² 5,3 °C 13,9 °C 14,5 km/h (3 Bft)
16.03.2019 13:28 13,9 °C 58 % 1012,1 hPa 0,0 mm 13,7 km/h (3 Bft) W 272 ° 1 min 0,000 mm 3,7 UV-I 650 W/m² 5,8 °C 13,9 °C 19,3 km/h (3 Bft)
16.03.2019 13:29 14,1 °C 58 % 1012,1 hPa 0,0 mm 14,3 km/h (3 Bft) W 266 ° 1 min 0,000 mm 4,5 UV-I 650 W/m² 6,0 °C 14,1 °C 19,3 km/h (3 Bft)
16.03.2019 13:30 14,1 °C 56 % 1012,1 hPa 0,0 mm 10,8 km/h (2 Bft) W-NW 292 ° 1 min 0,000 mm 3,8 UV-I 650 W/m² 5,5 °C 14,1 °C 14,5 km/h (3 Bft)
16.03.2019 13:31 14,1 °C 56 % 1012,1 hPa 0,0 mm 8,7 km/h (2 Bft) NW 311 ° 0 min 0,000 mm 2,9 UV-I 397 W/m² 5,5 °C 14,1 °C 14,5 km/h (3 Bft)
16.03.2019 13:32 14,0 °C 57 % 1012,1 hPa 0,0 mm 12,6 km/h (3 Bft) W 259 ° 0 min 0,000 mm 2,7 UV-I 316 W/m² 5,6 °C 14,0 °C 17,7 km/h (3 Bft)
16.03.2019 13:33 13,9 °C 57 % 1012,2 hPa 0,0 mm 16,0 km/h (3 Bft) W-NW 294 ° 0 min 0,000 mm 2,9 UV-I 316 W/m² 5,5 °C 13,9 °C 25,7 km/h (4 Bft)
16.03.2019 13:34 13,8 °C 56 % 1012,2 hPa 0,0 mm 11,5 km/h (2 Bft) W-NW 300 ° 0 min 0,000 mm 3,0 UV-I 385 W/m² 5,2 °C 13,8 °C 16,1 km/h (3 Bft)
16.03.2019 13:35 13,8 °C 58 % 1012,2 hPa 0,0 mm 10,4 km/h (2 Bft) NW 307 ° 0 min 0,000 mm 4,5 UV-I 385 W/m² 5,7 °C 13,8 °C 16,1 km/h (3 Bft)
16.03.2019 13:36 13,9 °C 58 % 1012,2 hPa 0,0 mm 17,2 km/h (3 Bft) W 281 ° 0 min 0,000 mm 4,3 UV-I 568 W/m² 5,8 °C 13,9 °C 27,4 km/h (4 Bft)
16.03.2019 13:37 13,9 °C 58 % 1012,2 hPa 0,0 mm 12,9 km/h (3 Bft) W 262 ° 0 min 0,000 mm 4,5 UV-I 568 W/m² 5,8 °C 13,9 °C 19,3 km/h (3 Bft)
16.03.2019 13:38 14,1 °C 58 % 1012,2 hPa 0,0 mm 16,6 km/h (3 Bft) W 277 ° 0 min 0,000 mm 3,4 UV-I 568 W/m² 6,0 °C 14,1 °C 22,5 km/h (4 Bft)
16.03.2019 13:39 14,1 °C 58 % 1012,2 hPa 0,0 mm 9,6 km/h (2 Bft) W 275 ° 0 min 0,000 mm 3,8 UV-I 568 W/m² 6,0 °C 14,1 °C 16,1 km/h (3 Bft)
16.03.2019 13:40 14,2 °C 57 % 1012,2 hPa 0,0 mm 12,9 km/h (3 Bft) W 273 ° 0 min 0,000 mm 3,6 UV-I 568 W/m² 5,8 °C 14,2 °C 17,7 km/h (3 Bft)
16.03.2019 13:41 14,3 °C 58 % 1012,2 hPa 0,0 mm 12,3 km/h (3 Bft) W-NW 292 ° 0 min 0,000 mm 4,6 UV-I 568 W/m² 6,2 °C 14,3 °C 17,7 km/h (3 Bft)
16.03.2019 13:42 14,4 °C 56 % 1012,1 hPa 0,0 mm 16,5 km/h (3 Bft) NW 313 ° 1 min 0,000 mm 3,9 UV-I 717 W/m² 5,7 °C 14,4 °C 25,7 km/h (4 Bft)
16.03.2019 13:43 14,5 °C 56 % 1012,1 hPa 0,0 mm 8,2 km/h (2 Bft) W-SW 238 ° 1 min 0,000 mm 3,6 UV-I 717 W/m² 5,8 °C 14,5 °C 14,5 km/h (3 Bft)
16.03.2019 13:44 14,4 °C 55 % 1012,0 hPa 0,0 mm 12,4 km/h (3 Bft) W-NW 298 ° 1 min 0,000 mm 2,6 UV-I 717 W/m² 5,5 °C 14,4 °C 16,1 km/h (3 Bft)
16.03.2019 13:45 14,4 °C 55 % 1012,0 hPa 0,0 mm 10,2 km/h (2 Bft) NW 312 ° 1 min 0,000 mm 3,4 UV-I 717 W/m² 5,5 °C 14,4 °C 12,9 km/h (3 Bft)
16.03.2019 13:46 14,4 °C 56 % 1012,0 hPa 0,0 mm 11,1 km/h (2 Bft) NW 324 ° 1 min 0,000 mm 4,6 UV-I 717 W/m² 5,7 °C 14,4 °C 16,1 km/h (3 Bft)
16.03.2019 13:47 14,6 °C 55 % 1012,0 hPa 0,0 mm 15,8 km/h (3 Bft) W-SW 257 ° 1 min 0,000 mm 2,8 UV-I 925 W/m² 5,7 °C 14,6 °C 22,5 km/h (4 Bft)
16.03.2019 13:48 14,6 °C 54 % 1011,9 hPa 0,0 mm 11,1 km/h (2 Bft) W-NW 299 ° 1 min 0,000 mm 3,2 UV-I 925 W/m² 5,4 °C 14,6 °C 16,1 km/h (3 Bft)
16.03.2019 13:49 14,6 °C 56 % 1011,9 hPa 0,0 mm 17,6 km/h (3 Bft) W-NW 283 ° 0 min 0,000 mm 3,2 UV-I 427 W/m² 5,9 °C 14,6 °C 29,0 km/h (5 Bft)
16.03.2019 13:50 14,7 °C 56 % 1011,9 hPa 0,0 mm 12,4 km/h (3 Bft) W 276 ° 0 min 0,000 mm 3,4 UV-I 427 W/m² 6,0 °C 14,7 °C 19,3 km/h (3 Bft)
16.03.2019 13:51 14,7 °C 53 % 1011,9 hPa 0,0 mm 12,9 km/h (3 Bft) W 269 ° 0 min 0,000 mm 4,4 UV-I 427 W/m² 5,2 °C 14,7 °C 16,1 km/h (3 Bft)
16.03.2019 13:52 14,7 °C 54 % 1011,9 hPa 0,0 mm 11,8 km/h (2 Bft) W-NW 296 ° 1 min 0,000 mm 4,7 UV-I 844 W/m² 5,5 °C 14,7 °C 17,7 km/h (3 Bft)
16.03.2019 13:53 14,8 °C 55 % 1011,9 hPa 0,0 mm 10,1 km/h (2 Bft) W 279 ° 1 min 0,000 mm 3,7 UV-I 844 W/m² 5,8 °C 14,8 °C 12,9 km/h (3 Bft)
16.03.2019 13:54 14,9 °C 55 % 1011,9 hPa 0,0 mm 9,2 km/h (2 Bft) W-SW 250 ° 1 min 0,000 mm 4,4 UV-I 923 W/m² 5,9 °C 14,9 °C 12,9 km/h (3 Bft)
16.03.2019 13:55 14,9 °C 53 % 1012,0 hPa 0,0 mm 13,2 km/h (3 Bft) W 269 ° 1 min 0,000 mm 4,5 UV-I 923 W/m² 5,4 °C 14,9 °C 19,3 km/h (3 Bft)
16.03.2019 13:56 14,9 °C 52 % 1012,0 hPa 0,0 mm 12,2 km/h (2 Bft) W 270 ° 1 min 0,000 mm 4,4 UV-I 814 W/m² 5,1 °C 14,9 °C 16,1 km/h (3 Bft)
16.03.2019 13:57 15,0 °C 53 % 1011,8 hPa 0,0 mm 5,2 km/h (1 Bft) N-NW 335 ° 1 min 0,000 mm 3,2 UV-I 814 W/m² 5,5 °C 15,0 °C 9,7 km/h (2 Bft)
16.03.2019 13:58 15,1 °C 53 % 1011,8 hPa 0,0 mm 8,0 km/h (2 Bft) N-NW 330 ° 1 min 0,000 mm 4,3 UV-I 814 W/m² 5,6 °C 15,1 °C 12,9 km/h (3 Bft)
16.03.2019 13:59 15,1 °C 54 % 1011,8 hPa 0,0 mm 9,1 km/h (2 Bft) W-NW 288 ° 0 min 0,000 mm 3,2 UV-I 533 W/m² 5,9 °C 15,1 °C 14,5 km/h (3 Bft)
16.03.2019 14:00 15,1 °C 52 % 1011,8 hPa 0,0 mm 14,2 km/h (3 Bft) NW 319 ° 0 min 0,000 mm 4,3 UV-I 580 W/m² 5,3 °C 15,1 °C 17,7 km/h (3 Bft)
16.03.2019 14:01 15,1 °C 52 % 1011,7 hPa 0,0 mm 17,0 km/h (3 Bft) W-NW 289 ° 0 min 0,407 mm 3,2 UV-I 580 W/m² 5,3 °C 15,1 °C 25,7 km/h (4 Bft)
16.03.2019 14:02 15,1 °C 53 % 1011,8 hPa 0,0 mm 14,7 km/h (3 Bft) W-NW 294 ° 0 min 0,000 mm 3,9 UV-I 580 W/m² 5,6 °C 15,1 °C 19,3 km/h (3 Bft)
16.03.2019 14:03 15,0 °C 50 % 1011,8 hPa 0,0 mm 15,3 km/h (3 Bft) W-SW 256 ° 1 min 0,000 mm 4,1 UV-I 638 W/m² 4,7 °C 15,0 °C 17,7 km/h (3 Bft)
16.03.2019 14:04 15,0 °C 52 % 1011,7 hPa 0,0 mm 15,0 km/h (3 Bft) W-NW 293 ° 1 min 0,000 mm 3,9 UV-I 638 W/m² 5,2 °C 15,0 °C 19,3 km/h (3 Bft)
16.03.2019 14:05 15,0 °C 50 % 1011,8 hPa 0,0 mm 14,9 km/h (3 Bft) W 266 ° 1 min 0,000 mm 2,9 UV-I 809 W/m² 4,7 °C 15,0 °C 22,5 km/h (4 Bft)
16.03.2019 14:06 15,1 °C 52 % 1011,8 hPa 0,0 mm 13,6 km/h (3 Bft) W 261 ° 1 min 0,000 mm 3,9 UV-I 809 W/m² 5,3 °C 15,1 °C 20,9 km/h (4 Bft)
16.03.2019 14:07 15,1 °C 50 % 1011,7 hPa 0,0 mm 12,6 km/h (3 Bft) N-NW 327 ° 1 min 0,000 mm 3,9 UV-I 744 W/m² 4,8 °C 15,1 °C 19,3 km/h (3 Bft)
16.03.2019 14:08 15,2 °C 50 % 1011,6 hPa 0,0 mm 11,5 km/h (2 Bft) W-NW 296 ° 1 min 0,000 mm 3,9 UV-I 744 W/m² 4,8 °C 15,2 °C 17,7 km/h (3 Bft)
16.03.2019 14:09 15,2 °C 50 % 1011,6 hPa 0,0 mm 6,8 km/h (2 Bft) W 278 ° 1 min 0,000 mm 4,0 UV-I 744 W/m² 4,8 °C 15,2 °C 12,9 km/h (3 Bft)
16.03.2019 14:10 15,3 °C 48 % 1011,6 hPa 0,0 mm 12,5 km/h (3 Bft) W-SW 255 ° 1 min 0,000 mm 4,0 UV-I 671 W/m² 4,4 °C 15,3 °C 19,3 km/h (3 Bft)
16.03.2019 14:11 15,3 °C 49 % 1011,6 hPa 0,0 mm 13,5 km/h (3 Bft) W-SW 256 ° 1 min 0,000 mm 3,2 UV-I 671 W/m² 4,7 °C 15,3 °C 20,9 km/h (4 Bft)
16.03.2019 14:12 15,3 °C 48 % 1011,6 hPa 0,0 mm 10,1 km/h (2 Bft) W 271 ° 1 min 0,000 mm 4,1 UV-I 860 W/m² 4,4 °C 15,3 °C 16,1 km/h (3 Bft)
16.03.2019 14:13 15,3 °C 50 % 1011,6 hPa 0,0 mm 13,3 km/h (3 Bft) W-NW 283 ° 1 min 0,000 mm 4,1 UV-I 765 W/m² 4,9 °C 15,3 °C 20,9 km/h (4 Bft)
16.03.2019 14:14 15,4 °C 48 % 1011,6 hPa 0,0 mm 11,3 km/h (2 Bft) N-NW 344 ° 1 min 0,000 mm 4,2 UV-I 765 W/m² 4,4 °C 15,4 °C 19,3 km/h (3 Bft)
16.03.2019 14:15 15,3 °C 48 % 1011,4 hPa 0,0 mm 12,0 km/h (2 Bft) W 275 ° 1 min 0,000 mm 4,1 UV-I 765 W/m² 4,4 °C 15,3 °C 22,5 km/h (4 Bft)
16.03.2019 14:16 15,4 °C 48 % 1011,5 hPa 0,0 mm 8,4 km/h (2 Bft) SW 232 ° 1 min 0,000 mm 3,2 UV-I 802 W/m² 4,4 °C 15,4 °C 16,1 km/h (3 Bft)
16.03.2019 14:17 15,4 °C 45 % 1011,5 hPa 0,0 mm 11,9 km/h (2 Bft) SW 220 ° 1 min 0,000 mm 3,5 UV-I 782 W/m² 3,5 °C 15,4 °C 17,7 km/h (3 Bft)
16.03.2019 14:18 15,4 °C 44 % 1011,5 hPa 0,0 mm 13,0 km/h (3 Bft) W-NW 283 ° 1 min 0,000 mm 3,5 UV-I 782 W/m² 3,2 °C 15,4 °C 22,5 km/h (4 Bft)
16.03.2019 14:19 15,4 °C 48 % 1011,6 hPa 0,0 mm 9,5 km/h (2 Bft) W 263 ° 0 min 0,000 mm 4,1 UV-I 541 W/m² 4,4 °C 15,4 °C 14,5 km/h (3 Bft)
16.03.2019 14:20 15,5 °C 47 % 1011,5 hPa 0,0 mm 12,1 km/h (2 Bft) W-SW 255 ° 0 min 0,000 mm 4,0 UV-I 541 W/m² 4,2 °C 15,5 °C 16,1 km/h (3 Bft)
16.03.2019 14:21 15,6 °C 48 % 1011,5 hPa 0,0 mm 5,1 km/h (1 Bft) W-SW 245 ° 1 min 0,000 mm 3,4 UV-I 805 W/m² 4,6 °C 15,6 °C 8,0 km/h (2 Bft)
16.03.2019 14:22 15,7 °C 45 % 1011,5 hPa 0,0 mm 6,6 km/h (2 Bft) W 259 ° 0 min 0,000 mm 3,7 UV-I 466 W/m² 3,8 °C 15,7 °C 12,9 km/h (3 Bft)
16.03.2019 14:23 15,7 °C 47 % 1011,5 hPa 0,0 mm 14,6 km/h (3 Bft) W-SW 256 ° 0 min 0,000 mm 3,1 UV-I 527 W/m² 4,4 °C 15,7 °C 20,9 km/h (4 Bft)
16.03.2019 14:24 15,6 °C 44 % 1011,4 hPa 0,0 mm 8,6 km/h (2 Bft) W-SW 240 ° 0 min 0,000 mm 3,6 UV-I 527 W/m² 3,4 °C 15,6 °C 14,5 km/h (3 Bft)
16.03.2019 14:25 15,6 °C 46 % 1011,5 hPa 0,0 mm 7,3 km/h (2 Bft) W-NW 291 ° 0 min 0,000 mm 3,2 UV-I 527 W/m² 4,0 °C 15,6 °C 14,5 km/h (3 Bft)
16.03.2019 14:26 15,6 °C 44 % 1011,4 hPa 0,0 mm 11,9 km/h (2 Bft) SW 224 ° 0 min 0,000 mm 3,6 UV-I 571 W/m² 3,4 °C 15,6 °C 16,1 km/h (3 Bft)
16.03.2019 14:27 15,6 °C 44 % 1011,3 hPa 0,0 mm 8,9 km/h (2 Bft) W-SW 258 ° 0 min 0,000 mm 3,9 UV-I 557 W/m² 3,4 °C 15,6 °C 14,5 km/h (3 Bft)
16.03.2019 14:28 15,6 °C 44 % 1011,3 hPa 0,0 mm 16,5 km/h (3 Bft) W 280 ° 0 min 0,000 mm 2,7 UV-I 557 W/m² 3,4 °C 15,6 °C 24,1 km/h (4 Bft)
16.03.2019 14:29 15,5 °C 43 % 1011,3 hPa 0,0 mm 10,6 km/h (2 Bft) W 267 ° 0 min 0,000 mm 2,5 UV-I 269 W/m² 3,0 °C 15,5 °C 20,9 km/h (4 Bft)
16.03.2019 14:30 15,5 °C 44 % 1011,3 hPa 0,0 mm 10,9 km/h (2 Bft) W 269 ° 0 min 0,000 mm 2,4 UV-I 302 W/m² 3,3 °C 15,5 °C 19,3 km/h (3 Bft)
16.03.2019 14:31 15,5 °C 45 % 1011,3 hPa 0,0 mm 5,0 km/h (1 Bft) SW 229 ° 0 min 0,000 mm 2,2 UV-I 267 W/m² 3,6 °C 15,5 °C 12,9 km/h (3 Bft)
16.03.2019 14:32 15,4 °C 44 % 1011,3 hPa 0,0 mm 9,3 km/h (2 Bft) S-SW 207 ° 0 min 0,000 mm 2,2 UV-I 276 W/m² 3,2 °C 15,4 °C 16,1 km/h (3 Bft)
16.03.2019 14:33 15,3 °C 42 % 1011,3 hPa 0,0 mm 11,5 km/h (2 Bft) S-SW 192 ° 0 min 0,000 mm 2,3 UV-I 258 W/m² 2,5 °C 15,3 °C 19,3 km/h (3 Bft)
16.03.2019 14:34 15,2 °C 43 % 1011,2 hPa 0,0 mm 9,9 km/h (2 Bft) W-SW 258 ° 0 min 0,000 mm 2,3 UV-I 285 W/m² 2,7 °C 15,2 °C 16,1 km/h (3 Bft)
16.03.2019 14:35 15,2 °C 42 % 1011,1 hPa 0,0 mm 11,9 km/h (2 Bft) W-NW 302 ° 0 min 0,000 mm 3,1 UV-I 285 W/m² 2,4 °C 15,2 °C 17,7 km/h (3 Bft)
16.03.2019 14:36 15,2 °C 43 % 1011,2 hPa 0,0 mm 10,7 km/h (2 Bft) W-SW 244 ° 0 min 0,000 mm 3,0 UV-I 285 W/m² 2,7 °C 15,2 °C 19,3 km/h (3 Bft)
16.03.2019 14:37 15,2 °C 44 % 1011,2 hPa 0,0 mm 12,2 km/h (2 Bft) W-SW 254 ° 0 min 0,000 mm 3,4 UV-I 508 W/m² 3,0 °C 15,2 °C 20,9 km/h (4 Bft)
16.03.2019 14:38 15,3 °C 43 % 1011,2 hPa 0,0 mm 11,8 km/h (2 Bft) W-SW 246 ° 0 min 0,000 mm 3,2 UV-I 471 W/m² 2,8 °C 15,3 °C 16,1 km/h (3 Bft)
16.03.2019 14:39 15,3 °C 44 % 1011,1 hPa 0,0 mm 5,8 km/h (2 Bft) W-NW 292 ° 0 min 0,000 mm 3,3 UV-I 471 W/m² 3,1 °C 15,3 °C 14,5 km/h (3 Bft)
16.03.2019 14:40 15,4 °C 43 % 1011,1 hPa 0,0 mm 9,7 km/h (2 Bft) W-NW 285 ° 1 min 0,000 mm 3,3 UV-I 626 W/m² 2,9 °C 15,4 °C 17,7 km/h (3 Bft)
16.03.2019 14:41 15,4 °C 42 % 1011,1 hPa 0,0 mm 9,0 km/h (2 Bft) W-NW 285 ° 1 min 0,000 mm 3,3 UV-I 612 W/m² 2,6 °C 15,4 °C 14,5 km/h (3 Bft)
16.03.2019 14:42 15,4 °C 42 % 1011,0 hPa 0,0 mm 7,8 km/h (2 Bft) W-SW 252 ° 0 min 0,000 mm 3,2 UV-I 599 W/m² 2,6 °C 15,4 °C 17,7 km/h (3 Bft)
16.03.2019 14:43 15,6 °C 42 % 1011,1 hPa 0,0 mm 19,3 km/h (3 Bft) NW 317 ° 1 min 0,000 mm 3,2 UV-I 603 W/m² 2,7 °C 15,6 °C 25,7 km/h (4 Bft)
16.03.2019 14:44 15,6 °C 41 % 1011,1 hPa 0,0 mm 10,1 km/h (2 Bft) N-NW 338 ° 1 min 0,000 mm 3,2 UV-I 603 W/m² 2,4 °C 15,6 °C 20,9 km/h (4 Bft)
16.03.2019 14:45 15,6 °C 43 % 1011,0 hPa 0,0 mm 7,3 km/h (2 Bft) SW 218 ° 0 min 0,000 mm 3,1 UV-I 599 W/m² 3,1 °C 15,6 °C 9,7 km/h (2 Bft)
16.03.2019 14:46 15,8 °C 41 % 1011,0 hPa 0,0 mm 13,7 km/h (3 Bft) W-SW 253 ° 0 min 0,000 mm 3,1 UV-I 596 W/m² 2,6 °C 15,8 °C 22,5 km/h (4 Bft)
16.03.2019 14:47 15,9 °C 39 % 1011,0 hPa 0,0 mm 15,2 km/h (3 Bft) W-SW 255 ° 0 min 0,000 mm 3,1 UV-I 594 W/m² 2,0 °C 15,9 °C 24,1 km/h (4 Bft)
16.03.2019 14:48 15,9 °C 36 % 1011,0 hPa 0,0 mm 20,4 km/h (4 Bft) W-SW 242 ° 0 min 0,000 mm 3,1 UV-I 594 W/m² 0,9 °C 15,9 °C 24,1 km/h (4 Bft)
16.03.2019 14:49 15,9 °C 34 % 1010,9 hPa 0,0 mm 13,6 km/h (3 Bft) NW 312 ° 0 min 0,000 mm 3,1 UV-I 584 W/m² 0,1 °C 15,9 °C 29,0 km/h (5 Bft)
16.03.2019 14:50 15,9 °C 37 % 1010,9 hPa 0,0 mm 8,8 km/h (2 Bft) W 275 ° 0 min 0,000 mm 3,1 UV-I 587 W/m² 1,2 °C 15,9 °C 14,5 km/h (3 Bft)
16.03.2019 14:51 15,9 °C 36 % 1011,0 hPa 0,0 mm 17,1 km/h (3 Bft) W-SW 256 ° 0 min 0,000 mm 3,1 UV-I 587 W/m² 0,9 °C 15,9 °C 29,0 km/h (5 Bft)
16.03.2019 14:52 16,0 °C 32 % 1011,0 hPa 0,0 mm 15,0 km/h (3 Bft) W 279 ° 0 min 0,000 mm 3,1 UV-I 585 W/m² -0,7 °C 16,0 °C 25,7 km/h (4 Bft)
16.03.2019 14:53 16,1 °C 34 % 1011,0 hPa 0,0 mm 15,6 km/h (3 Bft) W-SW 255 ° 0 min 0,000 mm 3,1 UV-I 582 W/m² 0,2 °C 16,1 °C 25,7 km/h (4 Bft)
16.03.2019 14:54 16,1 °C 32 % 1010,9 hPa 0,0 mm 20,9 km/h (4 Bft) W 275 ° 0 min 0,000 mm 3,0 UV-I 577 W/m² -0,6 °C 16,1 °C 35,4 km/h (5 Bft)
16.03.2019 14:55 16,1 °C 29 % 1010,9 hPa 0,0 mm 14,6 km/h (3 Bft) W-NW 289 ° 0 min 0,000 mm 3,0 UV-I 578 W/m² -1,9 °C 16,1 °C 17,7 km/h (3 Bft)
16.03.2019 14:56 16,1 °C 29 % 1011,0 hPa 0,0 mm 20,1 km/h (4 Bft) W-SW 238 ° 0 min 0,000 mm 3,0 UV-I 570 W/m² -1,9 °C 16,1 °C 32,2 km/h (5 Bft)
16.03.2019 14:57 16,1 °C 28 % 1011,1 hPa 0,0 mm 26,6 km/h (4 Bft) W-SW 240 ° 0 min 0,000 mm 2,9 UV-I 564 W/m² -2,4 °C 16,1 °C 54,7 km/h (7 Bft)
16.03.2019 14:58 16,1 °C 28 % 1011,0 hPa 0,0 mm 23,1 km/h (4 Bft) W-NW 285 ° 0 min 0,000 mm 2,9 UV-I 545 W/m² -2,4 °C 16,1 °C 30,6 km/h (5 Bft)
16.03.2019 14:59 16,1 °C 27 % 1010,9 hPa 0,0 mm 20,6 km/h (4 Bft) W 265 ° 0 min 0,000 mm 2,8 UV-I 538 W/m² -2,9 °C 16,1 °C 38,6 km/h (5 Bft)
16.03.2019 15:00 16,1 °C 28 % 1010,9 hPa 0,0 mm 22,7 km/h (4 Bft) W 266 ° 0 min 0,406 mm 2,8 UV-I 531 W/m² -2,4 °C 16,1 °C 29,0 km/h (5 Bft)
16.03.2019 15:01 16,1 °C 29 % 1011,0 hPa 0,0 mm 18,8 km/h (3 Bft) NW 314 ° 0 min 0,000 mm 2,7 UV-I 524 W/m² -1,9 °C 16,1 °C 27,4 km/h (4 Bft)
16.03.2019 15:02 16,1 °C 27 % 1010,9 hPa 0,0 mm 16,2 km/h (3 Bft) SW 235 ° 0 min 0,000 mm 2,7 UV-I 522 W/m² -2,9 °C 16,1 °C 27,4 km/h (4 Bft)
16.03.2019 15:03 16,1 °C 27 % 1011,0 hPa 0,0 mm 12,0 km/h (2 Bft) SW 222 ° 0 min 0,000 mm 2,7 UV-I 522 W/m² -2,9 °C 16,1 °C 19,3 km/h (3 Bft)
16.03.2019 15:04 16,2 °C 26 % 1010,9 hPa 0,0 mm 14,1 km/h (3 Bft) W 272 ° 0 min 0,000 mm 2,7 UV-I 517 W/m² -3,3 °C 16,2 °C 17,7 km/h (3 Bft)
16.03.2019 15:05 16,2 °C 26 % 1011,0 hPa 0,0 mm 20,7 km/h (4 Bft) W 261 ° 0 min 0,000 mm 2,7 UV-I 510 W/m² -3,3 °C 16,2 °C 30,6 km/h (5 Bft)
16.03.2019 15:06 16,2 °C 26 % 1010,9 hPa 0,0 mm 13,1 km/h (3 Bft) W 261 ° 0 min 0,000 mm 2,6 UV-I 510 W/m² -3,3 °C 16,2 °C 24,1 km/h (4 Bft)
16.03.2019 15:07 16,2 °C 25 % 1010,9 hPa 0,0 mm 16,6 km/h (3 Bft) W 264 ° 0 min 0,000 mm 2,6 UV-I 506 W/m² -3,8 °C 16,2 °C 25,7 km/h (4 Bft)
16.03.2019 15:08 16,2 °C 25 % 1011,0 hPa 0,0 mm 13,9 km/h (3 Bft) W 278 ° 0 min 0,000 mm 2,6 UV-I 494 W/m² -3,8 °C 16,2 °C 20,9 km/h (4 Bft)
16.03.2019 15:09 16,2 °C 25 % 1011,0 hPa 0,0 mm 13,9 km/h (3 Bft) W 274 ° 0 min 0,000 mm 2,6 UV-I 497 W/m² -3,8 °C 16,2 °C 22,5 km/h (4 Bft)
16.03.2019 15:10 16,2 °C 24 % 1010,9 hPa 0,0 mm 18,0 km/h (3 Bft) W-NW 294 ° 0 min 0,000 mm 2,6 UV-I 494 W/m² -4,4 °C 16,2 °C 24,1 km/h (4 Bft)
16.03.2019 15:11 16,2 °C 24 % 1010,8 hPa 0,0 mm 15,3 km/h (3 Bft) W-NW 285 ° 0 min 0,000 mm 2,5 UV-I 490 W/m² -4,4 °C 16,2 °C 20,9 km/h (4 Bft)
16.03.2019 15:12 16,2 °C 26 % 1010,9 hPa 0,0 mm 19,1 km/h (3 Bft) W 269 ° 0 min 0,000 mm 2,5 UV-I 489 W/m² -3,3 °C 16,2 °C 24,1 km/h (4 Bft)
16.03.2019 15:13 16,2 °C 24 % 1010,9 hPa 0,0 mm 15,8 km/h (3 Bft) W 265 ° 0 min 0,000 mm 2,5 UV-I 485 W/m² -4,4 °C 16,2 °C 22,5 km/h (4 Bft)
16.03.2019 15:14 16,2 °C 25 % 1010,7 hPa 0,0 mm 13,1 km/h (3 Bft) W-NW 299 ° 0 min 0,000 mm 2,5 UV-I 490 W/m² -3,8 °C 16,2 °C 19,3 km/h (3 Bft)
16.03.2019 15:15 16,2 °C 26 % 1010,9 hPa 0,0 mm 13,7 km/h (3 Bft) W-SW 258 ° 0 min 0,000 mm 2,5 UV-I 485 W/m² -3,3 °C 16,2 °C 17,7 km/h (3 Bft)
16.03.2019 15:16 16,3 °C 24 % 1010,8 hPa 0,0 mm 16,0 km/h (3 Bft) W 262 ° 0 min 0,000 mm 2,4 UV-I 476 W/m² -4,3 °C 16,3 °C 27,4 km/h (4 Bft)
16.03.2019 15:17 16,2 °C 25 % 1010,9 hPa 0,0 mm 13,5 km/h (3 Bft) NW 304 ° 0 min 0,000 mm 2,4 UV-I 476 W/m² -3,8 °C 16,2 °C 17,7 km/h (3 Bft)
16.03.2019 15:18 16,3 °C 24 % 1010,8 hPa 0,0 mm 8,7 km/h (2 Bft) SW 232 ° 0 min 0,000 mm 2,3 UV-I 476 W/m² -4,3 °C 16,3 °C 14,5 km/h (3 Bft)
16.03.2019 15:19 16,3 °C 24 % 1010,8 hPa 0,0 mm 15,7 km/h (3 Bft) W 270 ° 0 min 0,000 mm 2,3 UV-I 471 W/m² -4,3 °C 16,3 °C 22,5 km/h (4 Bft)
16.03.2019 15:20 16,3 °C 24 % 1010,8 hPa 0,0 mm 12,5 km/h (3 Bft) SW 230 ° 0 min 0,000 mm 2,3 UV-I 469 W/m² -4,3 °C 16,3 °C 19,3 km/h (3 Bft)
16.03.2019 15:21 16,3 °C 25 % 1010,8 hPa 0,0 mm 8,2 km/h (2 Bft) S-SW 196 ° 0 min 0,000 mm 2,2 UV-I 469 W/m² -3,7 °C 16,3 °C 12,9 km/h (3 Bft)
16.03.2019 15:22 16,3 °C 25 % 1010,8 hPa 0,0 mm 7,6 km/h (2 Bft) S-SW 206 ° 0 min 0,000 mm 2,2 UV-I 466 W/m² -3,7 °C 16,3 °C 11,3 km/h (2 Bft)
16.03.2019 15:23 16,4 °C 26 % 1010,8 hPa 0,0 mm 12,1 km/h (2 Bft) SW 233 ° 0 min 0,000 mm 2,1 UV-I 462 W/m² -3,1 °C 16,4 °C 19,3 km/h (3 Bft)
16.03.2019 15:24 16,3 °C 25 % 1010,8 hPa 0,0 mm 9,0 km/h (2 Bft) W-SW 243 ° 0 min 0,000 mm 2,1 UV-I 441 W/m² -3,7 °C 16,3 °C 17,7 km/h (3 Bft)
16.03.2019 15:25 16,3 °C 24 % 1010,8 hPa 0,0 mm 19,2 km/h (3 Bft) W-SW 246 ° 0 min 0,000 mm 2,1 UV-I 461 W/m² -4,3 °C 16,3 °C 25,7 km/h (4 Bft)
16.03.2019 15:26 16,3 °C 24 % 1010,8 hPa 0,0 mm 9,2 km/h (2 Bft) W-SW 258 ° 0 min 0,000 mm 2,1 UV-I 457 W/m² -4,3 °C 16,3 °C 16,1 km/h (3 Bft)
16.03.2019 15:27 16,3 °C 23 % 1010,9 hPa 0,0 mm 15,6 km/h (3 Bft) W-NW 295 ° 0 min 0,000 mm 2,1 UV-I 450 W/m² -4,9 °C 16,3 °C 27,4 km/h (4 Bft)
16.03.2019 15:28 16,3 °C 24 % 1010,8 hPa 0,0 mm 19,5 km/h (3 Bft) W-SW 254 ° 0 min 0,000 mm 2,1 UV-I 445 W/m² -4,3 °C 16,3 °C 24,1 km/h (4 Bft)
16.03.2019 15:29 16,3 °C 26 % 1010,8 hPa 0,0 mm 17,9 km/h (3 Bft) W-NW 284 ° 0 min 0,000 mm 2,0 UV-I 436 W/m² -3,2 °C 16,3 °C 27,4 km/h (4 Bft)
16.03.2019 15:30 16,3 °C 25 % 1010,8 hPa 0,0 mm 10,2 km/h (2 Bft) SW 229 ° 0 min 0,000 mm 2,0 UV-I 431 W/m² -3,7 °C 16,3 °C 14,5 km/h (3 Bft)
16.03.2019 15:31 16,2 °C 24 % 1010,6 hPa 0,0 mm 14,2 km/h (3 Bft) SW 236 ° 0 min 0,000 mm 2,0 UV-I 411 W/m² -4,4 °C 16,2 °C 19,3 km/h (3 Bft)
16.03.2019 15:32 16,2 °C 24 % 1010,7 hPa 0,0 mm 12,3 km/h (3 Bft) W 263 ° 0 min 0,000 mm 1,9 UV-I 411 W/m² -4,4 °C 16,2 °C 19,3 km/h (3 Bft)
16.03.2019 15:33 16,2 °C 25 % 1010,7 hPa 0,0 mm 18,3 km/h (3 Bft) NW 324 ° 0 min 0,000 mm 1,9 UV-I 362 W/m² -3,8 °C 16,2 °C 22,5 km/h (4 Bft)
16.03.2019 15:34 16,1 °C 24 % 1010,7 hPa 0,0 mm 15,6 km/h (3 Bft) W 265 ° 0 min 0,000 mm 1,9 UV-I 383 W/m² -4,5 °C 16,1 °C 19,3 km/h (3 Bft)
16.03.2019 15:35 16,1 °C 24 % 1010,7 hPa 0,0 mm 15,0 km/h (3 Bft) S 187 ° 0 min 0,000 mm 1,9 UV-I 330 W/m² -4,5 °C 16,1 °C 24,1 km/h (4 Bft)
16.03.2019 15:36 16,1 °C 21 % 1010,6 hPa 0,0 mm 18,6 km/h (3 Bft) W 274 ° 0 min 0,000 mm 1,9 UV-I 394 W/m² -6,2 °C 16,1 °C 29,0 km/h (5 Bft)
16.03.2019 15:37 16,1 °C 23 % 1010,7 hPa 0,0 mm 16,8 km/h (3 Bft) W-SW 253 ° 0 min 0,000 mm 1,8 UV-I 339 W/m² -5,0 °C 16,1 °C 27,4 km/h (4 Bft)
16.03.2019 15:38 16,1 °C 24 % 1010,7 hPa 0,0 mm 16,0 km/h (3 Bft) W 273 ° 0 min 0,000 mm 1,8 UV-I 378 W/m² -4,5 °C 16,1 °C 22,5 km/h (4 Bft)
16.03.2019 15:39 16,0 °C 23 % 1010,5 hPa 0,0 mm 22,5 km/h (4 Bft) W-NW 291 ° 0 min 0,000 mm 1,9 UV-I 401 W/m² -5,1 °C 16,0 °C 37,0 km/h (5 Bft)
16.03.2019 15:40 16,0 °C 23 % 1010,6 hPa 0,0 mm 20,7 km/h (4 Bft) W 270 ° 0 min 0,000 mm 1,8 UV-I 408 W/m² -5,1 °C 16,0 °C 41,8 km/h (6 Bft)
16.03.2019 15:41 16,1 °C 22 % 1010,7 hPa 0,0 mm 26,2 km/h (4 Bft) W 277 ° 0 min 0,000 mm 1,8 UV-I 404 W/m² -5,6 °C 16,1 °C 41,8 km/h (6 Bft)
16.03.2019 15:42 16,0 °C 23 % 1010,6 hPa 0,0 mm 15,3 km/h (3 Bft) W-SW 242 ° 0 min 0,000 mm 1,8 UV-I 410 W/m² -5,1 °C 16,0 °C 22,5 km/h (4 Bft)
16.03.2019 15:43 16,0 °C 23 % 1010,6 hPa 0,0 mm 25,3 km/h (4 Bft) W-NW 302 ° 0 min 0,000 mm 1,8 UV-I 408 W/m² -5,1 °C 16,0 °C 35,4 km/h (5 Bft)
16.03.2019 15:44 16,0 °C 23 % 1010,6 hPa 0,0 mm 24,7 km/h (4 Bft) W 271 ° 0 min 0,000 mm 1,7 UV-I 408 W/m² -5,1 °C 16,0 °C 40,2 km/h (6 Bft)
16.03.2019 15:45 16,0 °C 23 % 1010,6 hPa 0,0 mm 22,0 km/h (4 Bft) W 265 ° 0 min 0,000 mm 1,7 UV-I 390 W/m² -5,1 °C 16,0 °C 37,0 km/h (5 Bft)
16.03.2019 15:46 16,0 °C 22 % 1010,5 hPa 0,0 mm 17,2 km/h (3 Bft) W-NW 288 ° 0 min 0,000 mm 1,7 UV-I 380 W/m² -5,7 °C 16,0 °C 25,7 km/h (4 Bft)
16.03.2019 15:47 16,1 °C 23 % 1010,6 hPa 0,0 mm 17,1 km/h (3 Bft) W-SW 244 ° 0 min 0,000 mm 1,7 UV-I 376 W/m² -5,0 °C 16,1 °C 25,7 km/h (4 Bft)
16.03.2019 15:48 16,1 °C 22 % 1010,6 hPa 0,0 mm 17,6 km/h (3 Bft) W-SW 252 ° 0 min 0,000 mm 1,7 UV-I 374 W/m² -5,6 °C 16,1 °C 37,0 km/h (5 Bft)
16.03.2019 15:49 16,1 °C 23 % 1010,6 hPa 0,0 mm 21,5 km/h (4 Bft) S-SW 192 ° 0 min 0,000 mm 1,6 UV-I 373 W/m² -5,0 °C 16,1 °C 30,6 km/h (5 Bft)
16.03.2019 15:50 16,1 °C 22 % 1010,6 hPa 0,0 mm 20,0 km/h (4 Bft) W 280 ° 0 min 0,000 mm 1,6 UV-I 374 W/m² -5,6 °C 16,1 °C 27,4 km/h (4 Bft)
16.03.2019 15:51 16,1 °C 22 % 1010,5 hPa 0,0 mm 24,2 km/h (4 Bft) W-NW 283 ° 0 min 0,000 mm 1,6 UV-I 390 W/m² -5,6 °C 16,1 °C 35,4 km/h (5 Bft)
16.03.2019 15:52 16,1 °C 23 % 1010,6 hPa 0,0 mm 17,8 km/h (3 Bft) W-SW 247 ° 0 min 0,000 mm 1,6 UV-I 387 W/m² -5,0 °C 16,1 °C 32,2 km/h (5 Bft)
16.03.2019 15:53 16,0 °C 22 % 1010,7 hPa 0,0 mm 32,5 km/h (5 Bft) W-NW 291 ° 0 min 0,000 mm 1,5 UV-I 366 W/m² -5,7 °C 16,0 °C 41,8 km/h (6 Bft)
16.03.2019 15:54 16,0 °C 21 % 1010,6 hPa 0,0 mm 18,3 km/h (3 Bft) W 259 ° 0 min 0,000 mm 1,5 UV-I 383 W/m² -6,3 °C 16,0 °C 25,7 km/h (4 Bft)
16.03.2019 15:55 15,9 °C 23 % 1010,6 hPa 0,0 mm 16,0 km/h (3 Bft) W 268 ° 0 min 0,000 mm 1,5 UV-I 360 W/m² -5,2 °C 15,9 °C 27,4 km/h (4 Bft)
16.03.2019 15:56 15,9 °C 23 % 1010,5 hPa 0,0 mm 23,3 km/h (4 Bft) W-SW 253 ° 0 min 0,000 mm 1,5 UV-I 369 W/m² -5,2 °C 15,9 °C 32,2 km/h (5 Bft)
16.03.2019 15:57 15,9 °C 22 % 1010,5 hPa 0,0 mm 23,9 km/h (4 Bft) W-SW 239 ° 0 min 0,000 mm 1,5 UV-I 353 W/m² -5,8 °C 15,9 °C 30,6 km/h (5 Bft)
16.03.2019 15:58 15,9 °C 22 % 1010,5 hPa 0,0 mm 24,5 km/h (4 Bft) W-NW 299 ° 0 min 0,000 mm 1,5 UV-I 341 W/m² -5,8 °C 15,9 °C 32,2 km/h (5 Bft)
16.03.2019 15:59 15,9 °C 21 % 1010,5 hPa 0,0 mm 17,8 km/h (3 Bft) W 277 ° 0 min 0,000 mm 1,4 UV-I 338 W/m² -6,4 °C 15,9 °C 25,7 km/h (4 Bft)
16.03.2019 16:00 16,0 °C 22 % 1010,4 hPa 0,0 mm 20,2 km/h (4 Bft) W-SW 257 ° 0 min 0,000 mm 1,4 UV-I 327 W/m² -5,7 °C 16,0 °C 27,4 km/h (4 Bft)
16.03.2019 16:01 16,0 °C 22 % 1010,4 hPa 0,0 mm 15,0 km/h (3 Bft) W 274 ° 0 min 0,407 mm 1,4 UV-I 329 W/m² -5,7 °C 16,0 °C 22,5 km/h (4 Bft)
16.03.2019 16:02 15,9 °C 23 % 1010,4 hPa 0,0 mm 17,4 km/h (3 Bft) W 262 ° 0 min 0,000 mm 1,4 UV-I 332 W/m² -5,2 °C 15,9 °C 37,0 km/h (5 Bft)
16.03.2019 16:03 15,9 °C 22 % 1010,3 hPa 0,0 mm 21,6 km/h (4 Bft) W-SW 246 ° 0 min 0,000 mm 1,4 UV-I 332 W/m² -5,8 °C 15,9 °C 32,2 km/h (5 Bft)
16.03.2019 16:04 15,9 °C 22 % 1010,3 hPa 0,0 mm 12,7 km/h (3 Bft) W-NW 288 ° 0 min 0,000 mm 1,4 UV-I 345 W/m² -5,8 °C 15,9 °C 16,1 km/h (3 Bft)
16.03.2019 16:05 15,9 °C 22 % 1010,4 hPa 0,0 mm 20,8 km/h (4 Bft) W-SW 253 ° 0 min 0,000 mm 1,3 UV-I 327 W/m² -5,8 °C 15,9 °C 30,6 km/h (5 Bft)
16.03.2019 16:06 15,9 °C 22 % 1010,3 hPa 0,0 mm 18,6 km/h (3 Bft) NW 305 ° 0 min 0,000 mm 1,3 UV-I 308 W/m² -5,8 °C 15,9 °C 24,1 km/h (4 Bft)
16.03.2019 16:07 15,9 °C 23 % 1010,4 hPa 0,0 mm 11,6 km/h (2 Bft) W 278 ° 0 min 0,000 mm 1,3 UV-I 294 W/m² -5,2 °C 15,9 °C 22,5 km/h (4 Bft)
16.03.2019 16:08 15,9 °C 24 % 1010,2 hPa 0,0 mm 18,2 km/h (3 Bft) W 269 ° 0 min 0,000 mm 1,3 UV-I 272 W/m² -4,6 °C 15,9 °C 27,4 km/h (4 Bft)
16.03.2019 16:09 15,9 °C 23 % 1010,3 hPa 0,0 mm 19,4 km/h (3 Bft) W-SW 256 ° 0 min 0,000 mm 1,3 UV-I 230 W/m² -5,2 °C 15,9 °C 29,0 km/h (5 Bft)
16.03.2019 16:10 15,9 °C 22 % 1010,3 hPa 0,0 mm 18,4 km/h (3 Bft) W-SW 257 ° 0 min 0,000 mm 1,2 UV-I 197 W/m² -5,8 °C 15,9 °C 24,1 km/h (4 Bft)
16.03.2019 16:11 15,9 °C 23 % 1010,2 hPa 0,0 mm 18,6 km/h (3 Bft) W 261 ° 0 min 0,000 mm 1,1 UV-I 162 W/m² -5,2 °C 15,9 °C 25,7 km/h (4 Bft)
16.03.2019 16:12 15,9 °C 23 % 1010,1 hPa 0,0 mm 12,6 km/h (3 Bft) SW 230 ° 0 min 0,000 mm 1,2 UV-I 190 W/m² -5,2 °C 15,9 °C 19,3 km/h (3 Bft)
16.03.2019 16:13 15,9 °C 25 % 1010,2 hPa 0,0 mm 9,5 km/h (2 Bft) W-NW 285 ° 0 min 0,000 mm 1,2 UV-I 204 W/m² -4,1 °C 15,9 °C 17,7 km/h (3 Bft)
16.03.2019 16:14 15,9 °C 23 % 1010,1 hPa 0,0 mm 13,8 km/h (3 Bft) W-NW 294 ° 0 min 0,000 mm 1,1 UV-I 209 W/m² -5,2 °C 15,9 °C 22,5 km/h (4 Bft)
16.03.2019 16:15 15,9 °C 24 % 1010,2 hPa 0,0 mm 18,8 km/h (3 Bft) W 259 ° 0 min 0,000 mm 1,2 UV-I 241 W/m² -4,6 °C 15,9 °C 27,4 km/h (4 Bft)
16.03.2019 16:16 15,9 °C 22 % 1010,1 hPa 0,0 mm 12,9 km/h (3 Bft) W 275 ° 0 min 0,000 mm 1,2 UV-I 234 W/m² -5,8 °C 15,9 °C 17,7 km/h (3 Bft)
16.03.2019 16:17 15,9 °C 22 % 1010,1 hPa 0,0 mm 15,6 km/h (3 Bft) W-SW 258 ° 0 min 0,000 mm 1,2 UV-I 213 W/m² -5,8 °C 15,9 °C 20,9 km/h (4 Bft)
16.03.2019 16:18 15,9 °C 22 % 1010,2 hPa 0,0 mm 12,2 km/h (2 Bft) W-SW 247 ° 0 min 0,000 mm 1,1 UV-I 209 W/m² -5,8 °C 15,9 °C 20,9 km/h (4 Bft)
16.03.2019 16:19 15,9 °C 23 % 1010,2 hPa 0,0 mm 21,9 km/h (4 Bft) W-NW 285 ° 0 min 0,000 mm 1,1 UV-I 181 W/m² -5,2 °C 15,9 °C 33,8 km/h (5 Bft)
16.03.2019 16:20 15,9 °C 23 % 1010,1 hPa 0,0 mm 20,3 km/h (4 Bft) W 273 ° 0 min 0,000 mm 1,1 UV-I 248 W/m² -5,2 °C 15,9 °C 27,4 km/h (4 Bft)
16.03.2019 16:21 15,9 °C 22 % 1010,2 hPa 0,0 mm 12,6 km/h (3 Bft) S-SW 205 ° 0 min 0,000 mm 1,1 UV-I 251 W/m² -5,8 °C 15,9 °C 20,9 km/h (4 Bft)
16.03.2019 16:22 15,9 °C 22 % 1010,2 hPa 0,0 mm 18,9 km/h (3 Bft) W-SW 257 ° 0 min 0,000 mm 1,1 UV-I 232 W/m² -5,8 °C 15,9 °C 32,2 km/h (5 Bft)
16.03.2019 16:23 15,9 °C 22 % 1010,2 hPa 0,0 mm 17,6 km/h (3 Bft) NW 313 ° 0 min 0,000 mm 1,1 UV-I 220 W/m² -5,8 °C 15,9 °C 24,1 km/h (4 Bft)
16.03.2019 16:24 15,9 °C 23 % 1010,2 hPa 0,0 mm 15,3 km/h (3 Bft) W-NW 282 ° 0 min 0,000 mm 1,1 UV-I 214 W/m² -5,2 °C 15,9 °C 24,1 km/h (4 Bft)
16.03.2019 16:25 15,9 °C 23 % 1010,2 hPa 0,0 mm 16,0 km/h (3 Bft) W 276 ° 0 min 0,000 mm 1,1 UV-I 232 W/m² -5,2 °C 15,9 °C 22,5 km/h (4 Bft)
16.03.2019 16:26 15,8 °C 24 % 1010,1 hPa 0,0 mm 11,0 km/h (2 Bft) W 261 ° 0 min 0,000 mm 1,1 UV-I 230 W/m² -4,7 °C 15,8 °C 17,7 km/h (3 Bft)
16.03.2019 16:27 15,8 °C 23 % 1010,2 hPa 0,0 mm 11,0 km/h (2 Bft) SW 216 ° 0 min 0,000 mm 1,0 UV-I 158 W/m² -5,3 °C 15,8 °C 16,1 km/h (3 Bft)
16.03.2019 16:28 15,8 °C 24 % 1010,2 hPa 0,0 mm 15,3 km/h (3 Bft) W-NW 288 ° 0 min 0,000 mm 0,9 UV-I 128 W/m² -4,7 °C 15,8 °C 22,5 km/h (4 Bft)
16.03.2019 16:29 15,8 °C 23 % 1010,2 hPa 0,0 mm 17,6 km/h (3 Bft) W 263 ° 0 min 0,000 mm 0,9 UV-I 135 W/m² -5,3 °C 15,8 °C 33,8 km/h (5 Bft)
16.03.2019 16:30 15,8 °C 23 % 1010,2 hPa 0,0 mm 22,8 km/h (4 Bft) W-SW 242 ° 0 min 0,000 mm 0,9 UV-I 176 W/m² -5,3 °C 15,8 °C 30,6 km/h (5 Bft)
16.03.2019 16:31 15,8 °C 25 % 1010,2 hPa 0,0 mm 18,1 km/h (3 Bft) W 281 ° 0 min 0,000 mm 1,0 UV-I 229 W/m² -4,2 °C 15,8 °C 35,4 km/h (5 Bft)
16.03.2019 16:32 15,8 °C 23 % 1010,1 hPa 0,0 mm 20,5 km/h (4 Bft) W 263 ° 0 min 0,000 mm 0,9 UV-I 111 W/m² -5,3 °C 15,8 °C 33,8 km/h (5 Bft)
16.03.2019 16:33 15,8 °C 23 % 1010,2 hPa 0,0 mm 20,4 km/h (4 Bft) W-NW 292 ° 0 min 0,000 mm 0,8 UV-I 76 W/m² -5,3 °C 15,8 °C 30,6 km/h (5 Bft)
16.03.2019 16:34 15,7 °C 23 % 1010,1 hPa 0,0 mm 19,2 km/h (3 Bft) W-SW 249 ° 0 min 0,000 mm 0,8 UV-I 86 W/m² -5,4 °C 15,7 °C 32,2 km/h (5 Bft)
16.03.2019 16:35 15,7 °C 24 % 1010,1 hPa 0,0 mm 21,1 km/h (4 Bft) W-SW 246 ° 0 min 0,000 mm 0,8 UV-I 67 W/m² -4,8 °C 15,7 °C 30,6 km/h (5 Bft)
16.03.2019 16:36 15,7 °C 23 % 1010,1 hPa 0,0 mm 17,2 km/h (3 Bft) W-SW 241 ° 0 min 0,000 mm 0,8 UV-I 56 W/m² -5,4 °C 15,7 °C 20,9 km/h (4 Bft)
16.03.2019 16:37 15,7 °C 23 % 1010,1 hPa 0,0 mm 12,8 km/h (3 Bft) W 271 ° 0 min 0,000 mm 0,8 UV-I 70 W/m² -5,4 °C 15,7 °C 20,9 km/h (4 Bft)
16.03.2019 16:38 15,7 °C 24 % 1010,1 hPa 0,0 mm 12,7 km/h (3 Bft) W 271 ° 0 min 0,000 mm 0,8 UV-I 77 W/m² -4,8 °C 15,7 °C 19,3 km/h (3 Bft)
16.03.2019 16:39 15,7 °C 25 % 1010,0 hPa 0,0 mm 15,4 km/h (3 Bft) N-NW 330 ° 0 min 0,000 mm 0,8 UV-I 63 W/m² -4,3 °C 15,7 °C 24,1 km/h (4 Bft)
16.03.2019 16:40 15,7 °C 23 % 1010,0 hPa 0,0 mm 10,2 km/h (2 Bft) W-SW 253 ° 0 min 0,000 mm 0,8 UV-I 56 W/m² -5,4 °C 15,7 °C 14,5 km/h (3 Bft)
16.03.2019 16:41 15,7 °C 24 % 1010,1 hPa 0,0 mm 9,1 km/h (2 Bft) W 264 ° 0 min 0,000 mm 0,0 UV-I 54 W/m² -4,8 °C 15,7 °C 12,9 km/h (3 Bft)
16.03.2019 16:42 15,6 °C 24 % 1010,0 hPa 0,0 mm 10,8 km/h (2 Bft) W-NW 286 ° 0 min 0,000 mm 0,0 UV-I 49 W/m² -4,9 °C 15,6 °C 17,7 km/h (3 Bft)
16.03.2019 16:43 15,6 °C 25 % 1010,1 hPa 0,0 mm 12,1 km/h (2 Bft) W 271 ° 0 min 0,000 mm 0,0 UV-I 49 W/m² -4,3 °C 15,6 °C 17,7 km/h (3 Bft)
16.03.2019 16:44 15,5 °C 25 % 1010,0 hPa 0,0 mm 15,0 km/h (3 Bft) W 262 ° 0 min 0,000 mm 0,0 UV-I 49 W/m² -4,4 °C 15,5 °C 24,1 km/h (4 Bft)
16.03.2019 16:45 15,5 °C 24 % 1010,0 hPa 0,0 mm 9,5 km/h (2 Bft) W 259 ° 0 min 0,000 mm 0,7 UV-I 69 W/m² -5,0 °C 15,5 °C 14,5 km/h (3 Bft)
16.03.2019 16:46 15,4 °C 26 % 1010,0 hPa 0,0 mm 14,2 km/h (3 Bft) W 259 ° 0 min 0,000 mm 0,7 UV-I 72 W/m² -4,0 °C 15,4 °C 25,7 km/h (4 Bft)
16.03.2019 16:47 15,4 °C 26 % 1010,0 hPa 0,0 mm 9,7 km/h (2 Bft) W 271 ° 0 min 0,000 mm 0,7 UV-I 63 W/m² -4,0 °C 15,4 °C 12,9 km/h (3 Bft)
16.03.2019 16:48 15,4 °C 25 % 1010,0 hPa 0,0 mm 13,6 km/h (3 Bft) W-SW 257 ° 0 min 0,000 mm 0,7 UV-I 62 W/m² -4,5 °C 15,4 °C 24,1 km/h (4 Bft)
16.03.2019 16:49 15,4 °C 24 % 1010,0 hPa 0,0 mm 16,4 km/h (3 Bft) W 275 ° 0 min 0,000 mm 0,7 UV-I 77 W/m² -5,0 °C 15,4 °C 20,9 km/h (4 Bft)
16.03.2019 16:50 15,3 °C 25 % 1010,0 hPa 0,0 mm 14,3 km/h (3 Bft) W-NW 284 ° 0 min 0,000 mm 0,7 UV-I 69 W/m² -4,6 °C 15,3 °C 24,1 km/h (4 Bft)
16.03.2019 16:51 15,4 °C 25 % 1009,9 hPa 0,0 mm 11,1 km/h (2 Bft) W-SW 254 ° 0 min 0,000 mm 0,7 UV-I 56 W/m² -4,5 °C 15,4 °C 17,7 km/h (3 Bft)
16.03.2019 16:52 15,4 °C 24 % 1010,0 hPa 0,0 mm 14,6 km/h (3 Bft) W-NW 294 ° 0 min 0,000 mm 0,7 UV-I 62 W/m² -5,0 °C 15,4 °C 17,7 km/h (3 Bft)
16.03.2019 16:53 15,4 °C 25 % 1010,0 hPa 0,0 mm 11,9 km/h (2 Bft) W-NW 294 ° 0 min 0,000 mm 0,7 UV-I 72 W/m² -4,5 °C 15,4 °C 17,7 km/h (3 Bft)
16.03.2019 16:54 15,4 °C 24 % 1010,0 hPa 0,0 mm 17,9 km/h (3 Bft) W 265 ° 0 min 0,000 mm 0,7 UV-I 74 W/m² -5,0 °C 15,4 °C 29,0 km/h (5 Bft)
16.03.2019 16:55 15,4 °C 23 % 1009,9 hPa 0,0 mm 16,3 km/h (3 Bft) W 274 ° 0 min 0,000 mm 0,6 UV-I 88 W/m² -5,6 °C 15,4 °C 27,4 km/h (4 Bft)
16.03.2019 16:56 15,4 °C 24 % 1010,0 hPa 0,0 mm 15,8 km/h (3 Bft) W-SW 252 ° 0 min 0,000 mm 0,7 UV-I 102 W/m² -5,0 °C 15,4 °C 19,3 km/h (3 Bft)
16.03.2019 16:57 15,4 °C 25 % 1010,0 hPa 0,0 mm 10,3 km/h (2 Bft) NW 312 ° 0 min 0,000 mm 0,6 UV-I 97 W/m² -4,5 °C 15,4 °C 17,7 km/h (3 Bft)
16.03.2019 16:58 15,3 °C 25 % 1010,0 hPa 0,0 mm 19,0 km/h (3 Bft) W-SW 254 ° 0 min 0,000 mm 0,6 UV-I 83 W/m² -4,6 °C 15,3 °C 29,0 km/h (5 Bft)
16.03.2019 16:59 15,3 °C 24 % 1009,9 hPa 0,0 mm 12,8 km/h (3 Bft) NW 308 ° 0 min 0,000 mm 0,6 UV-I 56 W/m² -5,1 °C 15,3 °C 19,3 km/h (3 Bft)
16.03.2019 17:00 15,3 °C 25 % 1009,9 hPa 0,0 mm 15,0 km/h (3 Bft) W-SW 255 ° 0 min 0,228 mm 0,0 UV-I 49 W/m² -4,6 °C 15,3 °C 22,5 km/h (4 Bft)
16.03.2019 17:01 15,3 °C 24 % 1009,8 hPa 0,0 mm 17,6 km/h (3 Bft) W-SW 254 ° 0 min 0,000 mm 0,0 UV-I 58 W/m² -5,1 °C 15,3 °C 22,5 km/h (4 Bft)
16.03.2019 17:02 15,3 °C 25 % 1009,8 hPa 0,0 mm 17,1 km/h (3 Bft) W 280 ° 0 min 0,000 mm 0,6 UV-I 65 W/m² -4,6 °C 15,3 °C 24,1 km/h (4 Bft)
16.03.2019 17:03 15,3 °C 25 % 1009,8 hPa 0,0 mm 16,2 km/h (3 Bft) W 260 ° 0 min 0,000 mm 0,6 UV-I 65 W/m² -4,6 °C 15,3 °C 22,5 km/h (4 Bft)
16.03.2019 17:04 15,3 °C 25 % 1009,8 hPa 0,0 mm 15,4 km/h (3 Bft) W-SW 247 ° 0 min 0,000 mm 0,6 UV-I 69 W/m² -4,6 °C 15,3 °C 20,9 km/h (4 Bft)
16.03.2019 17:05 15,3 °C 25 % 1009,8 hPa 0,0 mm 13,5 km/h (3 Bft) W-SW 250 ° 0 min 0,000 mm 0,6 UV-I 65 W/m² -4,6 °C 15,3 °C 20,9 km/h (4 Bft)
16.03.2019 17:06 15,2 °C 25 % 1009,8 hPa 0,0 mm 14,2 km/h (3 Bft) W-NW 294 ° 0 min 0,000 mm 0,6 UV-I 65 W/m² -4,7 °C 15,2 °C 22,5 km/h (4 Bft)
16.03.2019 17:07 15,2 °C 24 % 1009,9 hPa 0,0 mm 13,7 km/h (3 Bft) W-NW 297 ° 0 min 0,000 mm 0,5 UV-I 62 W/m² -5,2 °C 15,2 °C 24,1 km/h (4 Bft)
16.03.2019 17:08 15,2 °C 26 % 1009,8 hPa 0,0 mm 12,3 km/h (3 Bft) W-SW 257 ° 0 min 0,000 mm 0,0 UV-I 54 W/m² -4,2 °C 15,2 °C 16,1 km/h (3 Bft)
16.03.2019 17:09 15,1 °C 26 % 1009,8 hPa 0,0 mm 17,6 km/h (3 Bft) W-SW 258 ° 0 min 0,000 mm 0,0 UV-I 54 W/m² -4,2 °C 15,1 °C 24,1 km/h (4 Bft)
16.03.2019 17:10 15,1 °C 25 % 1009,8 hPa 0,0 mm 16,7 km/h (3 Bft) W 264 ° 0 min 0,000 mm 0,0 UV-I 51 W/m² -4,8 °C 15,1 °C 22,5 km/h (4 Bft)
16.03.2019 17:11 15,1 °C 25 % 1009,8 hPa 0,0 mm 16,9 km/h (3 Bft) W 267 ° 0 min 0,000 mm 0,0 UV-I 53 W/m² -4,8 °C 15,1 °C 24,1 km/h (4 Bft)
16.03.2019 17:12 15,1 °C 26 % 1009,8 hPa 0,0 mm 10,8 km/h (2 Bft) W 263 ° 0 min 0,000 mm 0,0 UV-I 53 W/m² -4,2 °C 15,1 °C 16,1 km/h (3 Bft)
16.03.2019 17:13 15,1 °C 25 % 1009,8 hPa 0,0 mm 11,5 km/h (2 Bft) SW 229 ° 0 min 0,000 mm 0,0 UV-I 47 W/m² -4,8 °C 15,1 °C 17,7 km/h (3 Bft)
16.03.2019 17:14 15,1 °C 26 % 1009,8 hPa 0,0 mm 16,1 km/h (3 Bft) W-NW 292 ° 0 min 0,000 mm 0,0 UV-I 49 W/m² -4,2 °C 15,1 °C 20,9 km/h (4 Bft)
16.03.2019 17:15 15,0 °C 26 % 1009,8 hPa 0,0 mm 12,5 km/h (3 Bft) W 263 ° 0 min 0,000 mm 0,5 UV-I 56 W/m² -4,3 °C 15,0 °C 17,7 km/h (3 Bft)
16.03.2019 17:16 15,0 °C 26 % 1009,8 hPa 0,0 mm 10,8 km/h (2 Bft) W 271 ° 0 min 0,000 mm 0,0 UV-I 54 W/m² -4,3 °C 15,0 °C 16,1 km/h (3 Bft)
16.03.2019 17:17 15,0 °C 26 % 1009,8 hPa 0,0 mm 13,4 km/h (3 Bft) NW 306 ° 0 min 0,000 mm 0,0 UV-I 51 W/m² -4,3 °C 15,0 °C 17,7 km/h (3 Bft)
16.03.2019 17:18 15,0 °C 27 % 1009,8 hPa 0,0 mm 8,1 km/h (2 Bft) NW 308 ° 0 min 0,000 mm 0,0 UV-I 46 W/m² -3,8 °C 15,0 °C 12,9 km/h (3 Bft)
16.03.2019 17:19 15,0 °C 27 % 1009,8 hPa 0,0 mm 10,1 km/h (2 Bft) W 273 ° 0 min 0,000 mm 0,0 UV-I 37 W/m² -3,8 °C 15,0 °C 16,1 km/h (3 Bft)
16.03.2019 17:20 14,9 °C 27 % 1009,7 hPa 0,0 mm 11,4 km/h (2 Bft) W-NW 297 ° 0 min 0,000 mm 0,0 UV-I 35 W/m² -3,9 °C 14,9 °C 17,7 km/h (3 Bft)
16.03.2019 17:21 14,9 °C 26 % 1009,9 hPa 0,0 mm 11,3 km/h (2 Bft) W 265 ° 0 min 0,000 mm 0,0 UV-I 33 W/m² -4,4 °C 14,9 °C 14,5 km/h (3 Bft)
16.03.2019 17:22 14,8 °C 27 % 1009,9 hPa 0,0 mm 13,2 km/h (3 Bft) W 271 ° 0 min 0,000 mm 0,0 UV-I 33 W/m² -4,0 °C 14,8 °C 19,3 km/h (3 Bft)
16.03.2019 17:23 14,9 °C 28 % 1009,9 hPa 0,0 mm 9,1 km/h (2 Bft) W-SW 254 ° 0 min 0,000 mm 0,0 UV-I 32 W/m² -3,4 °C 14,9 °C 14,5 km/h (3 Bft)
16.03.2019 17:24 14,8 °C 29 % 1009,8 hPa 0,0 mm 10,7 km/h (2 Bft) SW 236 ° 0 min 0,000 mm 0,0 UV-I 32 W/m² -3,0 °C 14,8 °C 20,9 km/h (4 Bft)
16.03.2019 17:25 14,8 °C 28 % 1009,8 hPa 0,0 mm 12,7 km/h (3 Bft) W 277 ° 0 min 0,000 mm 0,0 UV-I 30 W/m² -3,5 °C 14,8 °C 17,7 km/h (3 Bft)
16.03.2019 17:26 14,7 °C 29 % 1009,8 hPa 0,0 mm 12,4 km/h (3 Bft) W 263 ° 0 min 0,000 mm 0,0 UV-I 30 W/m² -3,1 °C 14,7 °C 19,3 km/h (3 Bft)
16.03.2019 17:27 14,7 °C 29 % 1009,8 hPa 0,0 mm 8,8 km/h (2 Bft) W-SW 248 ° 0 min 0,000 mm 0,0 UV-I 30 W/m² -3,1 °C 14,7 °C 12,9 km/h (3 Bft)
16.03.2019 17:28 14,6 °C 29 % 1009,8 hPa 0,0 mm 10,4 km/h (2 Bft) W 260 ° 0 min 0,000 mm 0,0 UV-I 30 W/m² -3,2 °C 14,6 °C 16,1 km/h (3 Bft)
16.03.2019 17:29 14,6 °C 31 % 1009,8 hPa 0,0 mm 9,7 km/h (2 Bft) W 277 ° 0 min 0,000 mm 0,0 UV-I 30 W/m² -2,3 °C 14,6 °C 12,9 km/h (3 Bft)
16.03.2019 17:30 14,4 °C 31 % 1009,9 hPa 0,0 mm 9,3 km/h (2 Bft) W-NW 283 ° 0 min 0,000 mm 0,0 UV-I 33 W/m² -2,5 °C 14,4 °C 16,1 km/h (3 Bft)
16.03.2019 17:31 14,4 °C 31 % 1009,9 hPa 0,0 mm 15,2 km/h (3 Bft) W 268 ° 0 min 0,000 mm 0,0 UV-I 33 W/m² -2,5 °C 14,4 °C 17,7 km/h (3 Bft)
16.03.2019 17:32 14,3 °C 32 % 1009,8 hPa 0,0 mm 11,2 km/h (2 Bft) W-NW 290 ° 0 min 0,000 mm 0,0 UV-I 33 W/m² -2,2 °C 14,3 °C 16,1 km/h (3 Bft)
16.03.2019 17:33 14,2 °C 32 % 1009,9 hPa 0,0 mm 8,1 km/h (2 Bft) W 265 ° 0 min 0,000 mm 0,0 UV-I 32 W/m² -2,2 °C 14,2 °C 12,9 km/h (3 Bft)
16.03.2019 17:34 14,1 °C 33 % 1009,9 hPa 0,0 mm 7,6 km/h (2 Bft) W 270 ° 0 min 0,000 mm 0,0 UV-I 30 W/m² -1,9 °C 14,1 °C 11,3 km/h (2 Bft)
16.03.2019 17:35 14,1 °C 34 % 1009,9 hPa 0,0 mm 5,5 km/h (1 Bft) W-SW 257 ° 0 min 0,000 mm 0,0 UV-I 30 W/m² -1,5 °C 14,1 °C 8,0 km/h (2 Bft)
16.03.2019 17:36 14,0 °C 34 % 1009,9 hPa 0,0 mm 10,4 km/h (2 Bft) W 259 ° 0 min 0,000 mm 0,0 UV-I 30 W/m² -1,6 °C 14,0 °C 19,3 km/h (3 Bft)
16.03.2019 17:37 13,9 °C 33 % 1009,9 hPa 0,0 mm 12,2 km/h (2 Bft) W 263 ° 0 min 0,000 mm 0,0 UV-I 28 W/m² -2,1 °C 13,9 °C 19,3 km/h (3 Bft)
16.03.2019 17:38 13,9 °C 34 % 1009,9 hPa 0,0 mm 5,6 km/h (1 Bft) W-NW 283 ° 0 min 0,000 mm 0,0 UV-I 28 W/m² -1,7 °C 13,9 °C 9,7 km/h (2 Bft)
16.03.2019 17:39 13,9 °C 33 % 1009,9 hPa 0,0 mm 5,5 km/h (1 Bft) W-SW 244 ° 0 min 0,000 mm 0,0 UV-I 28 W/m² -2,1 °C 13,9 °C 9,7 km/h (2 Bft)
16.03.2019 17:40 13,8 °C 34 % 1009,9 hPa 0,0 mm 7,7 km/h (2 Bft) W 267 ° 0 min 0,000 mm 0,0 UV-I 28 W/m² -1,8 °C 13,8 °C 12,9 km/h (3 Bft)
16.03.2019 17:41 13,8 °C 34 % 1009,9 hPa 0,0 mm 3,8 km/h (1 Bft) W-SW 257 ° 0 min 0,000 mm 0,0 UV-I 26 W/m² -1,8 °C 13,8 °C 9,7 km/h (2 Bft)
16.03.2019 17:42 13,8 °C 33 % 1009,9 hPa 0,0 mm 4,0 km/h (1 Bft) W-SW 256 ° 0 min 0,000 mm 0,0 UV-I 26 W/m² -2,2 °C 13,8 °C 4,8 km/h (1 Bft)
16.03.2019 17:43 13,8 °C 34 % 1009,9 hPa 0,0 mm 3,2 km/h (1 Bft) W-SW 248 ° 0 min 0,000 mm 0,0 UV-I 26 W/m² -1,8 °C 13,8 °C 4,8 km/h (1 Bft)
16.03.2019 17:44 13,8 °C 34 % 1009,9 hPa 0,0 mm 3,4 km/h (1 Bft) S 190 ° 0 min 0,000 mm 0,0 UV-I 25 W/m² -1,8 °C 13,8 °C 6,4 km/h (2 Bft)
16.03.2019 17:45 13,8 °C 34 % 1009,9 hPa 0,0 mm 3,6 km/h (1 Bft) S-SW 192 ° 0 min 0,000 mm 0,0 UV-I 25 W/m² -1,8 °C 13,8 °C 4,8 km/h (1 Bft)
16.03.2019 17:46 13,8 °C 34 % 1009,9 hPa 0,0 mm 4,6 km/h (1 Bft) S-SW 205 ° 0 min 0,000 mm 0,0 UV-I 25 W/m² -1,8 °C 13,8 °C 6,4 km/h (2 Bft)
16.03.2019 17:47 13,8 °C 35 % 1009,9 hPa 0,0 mm 2,2 km/h (1 Bft) S-SW 211 ° 0 min 0,000 mm 0,0 UV-I 23 W/m² -1,4 °C 13,8 °C 4,8 km/h (1 Bft)
16.03.2019 17:48 13,8 °C 35 % 1009,8 hPa 0,0 mm 3,8 km/h (1 Bft) S-SW 203 ° 0 min 0,000 mm 0,0 UV-I 23 W/m² -1,4 °C 13,8 °C 6,4 km/h (2 Bft)
16.03.2019 17:49 13,7 °C 34 % 1009,8 hPa 0,0 mm 1,5 km/h (1 Bft) S-SW 203 ° 0 min 0,000 mm 0,0 UV-I 23 W/m² -1,9 °C 13,7 °C 4,8 km/h (1 Bft)
16.03.2019 17:50 13,7 °C 35 % 1009,8 hPa 0,0 mm 4,2 km/h (1 Bft) SW 234 ° 0 min 0,000 mm 0,0 UV-I 23 W/m² -1,5 °C 13,7 °C 6,4 km/h (2 Bft)
16.03.2019 17:51 13,7 °C 35 % 1009,8 hPa 0,0 mm 6,0 km/h (2 Bft) W 259 ° 0 min 0,000 mm 0,0 UV-I 21 W/m² -1,5 °C 13,7 °C 11,3 km/h (2 Bft)
16.03.2019 17:52 13,7 °C 35 % 1009,8 hPa 0,0 mm 4,9 km/h (1 Bft) W-SW 254 ° 0 min 0,000 mm 0,0 UV-I 21 W/m² -1,5 °C 13,7 °C 9,7 km/h (2 Bft)
16.03.2019 17:53 13,7 °C 35 % 1009,8 hPa 0,0 mm 3,6 km/h (1 Bft) W-SW 254 ° 0 min 0,000 mm 0,0 UV-I 21 W/m² -1,5 °C 13,7 °C 4,8 km/h (1 Bft)
16.03.2019 17:54 13,6 °C 35 % 1009,8 hPa 0,0 mm 2,6 km/h (1 Bft) W-SW 238 ° 0 min 0,000 mm 0,0 UV-I 19 W/m² -1,6 °C 13,6 °C 4,8 km/h (1 Bft)
16.03.2019 17:55 13,6 °C 35 % 1009,8 hPa 0,0 mm 4,2 km/h (1 Bft) SW 236 ° 0 min 0,000 mm 0,0 UV-I 19 W/m² -1,6 °C 13,6 °C 6,4 km/h (2 Bft)
16.03.2019 17:56 13,6 °C 35 % 1009,9 hPa 0,0 mm 4,6 km/h (1 Bft) W-SW 255 ° 0 min 0,000 mm 0,0 UV-I 18 W/m² -1,6 °C 13,6 °C 8,0 km/h (2 Bft)
16.03.2019 17:57 13,6 °C 34 % 1009,8 hPa 0,0 mm 4,2 km/h (1 Bft) S-SW 209 ° 0 min 0,000 mm 0,0 UV-I 18 W/m² -2,0 °C 13,6 °C 6,4 km/h (2 Bft)
16.03.2019 17:58 13,6 °C 36 % 1009,9 hPa 0,0 mm 3,0 km/h (1 Bft) S-SW 209 ° 0 min 0,000 mm 0,0 UV-I 16 W/m² -1,2 °C 13,6 °C 4,8 km/h (1 Bft)
16.03.2019 17:59 13,4 °C 36 % 1009,8 hPa 0,0 mm 0,7 km/h (0 Bft) S-SW 209 ° 0 min 0,000 mm 0,0 UV-I 16 W/m² -1,4 °C 13,4 °C 3,2 km/h (1 Bft)
16.03.2019 18:00 13,3 °C 35 % 1009,8 hPa 0,0 mm 2,2 km/h (1 Bft) S-SW 197 ° 0 min 0,000 mm 0,0 UV-I 16 W/m² -1,8 °C 13,3 °C 6,4 km/h (2 Bft)
16.03.2019 18:01 13,3 °C 35 % 1009,8 hPa 0,0 mm 4,4 km/h (1 Bft) S-SW 197 ° 0 min 0,102 mm 0,0 UV-I 16 W/m² -1,8 °C 13,3 °C 6,4 km/h (2 Bft)
16.03.2019 18:02 13,3 °C 35 % 1009,8 hPa 0,0 mm 3,4 km/h (1 Bft) S-SW 197 ° 0 min 0,000 mm 0,0 UV-I 16 W/m² -1,8 °C 13,3 °C 4,8 km/h (1 Bft)
16.03.2019 18:03 13,3 °C 35 % 1009,7 hPa 0,0 mm 1,9 km/h (1 Bft) S-SW 197 ° 0 min 0,000 mm 0,0 UV-I 14 W/m² -1,8 °C 13,3 °C 4,8 km/h (1 Bft)
16.03.2019 18:04 13,3 °C 36 % 1009,8 hPa 0,0 mm 5,0 km/h (1 Bft) S-SW 205 ° 0 min 0,000 mm 0,0 UV-I 14 W/m² -1,4 °C 13,3 °C 8,0 km/h (2 Bft)
16.03.2019 18:05 13,3 °C 36 % 1009,7 hPa 0,0 mm 5,2 km/h (1 Bft) S 186 ° 0 min 0,000 mm 0,0 UV-I 14 W/m² -1,4 °C 13,3 °C 8,0 km/h (2 Bft)
16.03.2019 18:06 13,2 °C 37 % 1009,7 hPa 0,0 mm 5,9 km/h (2 Bft) S-SW 207 ° 0 min 0,000 mm 0,0 UV-I 12 W/m² -1,2 °C 13,2 °C 8,0 km/h (2 Bft)
16.03.2019 18:07 13,1 °C 38 % 1009,8 hPa 0,0 mm 4,8 km/h (1 Bft) SW 227 ° 0 min 0,000 mm 0,0 UV-I 12 W/m² -0,9 °C 13,1 °C 6,4 km/h (2 Bft)
16.03.2019 18:08 13,0 °C 36 % 1009,7 hPa 0,0 mm 4,4 km/h (1 Bft) S 186 ° 0 min 0,000 mm 0,0 UV-I 12 W/m² -1,7 °C 13,0 °C 8,0 km/h (2 Bft)
16.03.2019 18:09 12,9 °C 38 % 1009,7 hPa 0,0 mm 4,2 km/h (1 Bft) S-SW 196 ° 0 min 0,000 mm 0,0 UV-I 12 W/m² -1,1 °C 12,9 °C 6,4 km/h (2 Bft)
16.03.2019 18:10 12,9 °C 36 % 1009,7 hPa 0,0 mm 3,6 km/h (1 Bft) SW 236 ° 0 min 0,000 mm 0,0 UV-I 12 W/m² -1,8 °C 12,9 °C 4,8 km/h (1 Bft)
16.03.2019 18:11 12,9 °C 36 % 1009,7 hPa 0,0 mm 6,1 km/h (2 Bft) S-SW 195 ° 0 min 0,000 mm 0,0 UV-I 12 W/m² -1,8 °C 12,9 °C 9,7 km/h (2 Bft)
16.03.2019 18:12 12,9 °C 37 % 1009,7 hPa 0,0 mm 3,8 km/h (1 Bft) S 190 ° 0 min 0,000 mm 0,0 UV-I 11 W/m² -1,4 °C 12,9 °C 4,8 km/h (1 Bft)
16.03.2019 18:13 12,8 °C 37 % 1009,7 hPa 0,0 mm 4,4 km/h (1 Bft) S 173 ° 0 min 0,000 mm 0,0 UV-I 11 W/m² -1,5 °C 12,8 °C 8,0 km/h (2 Bft)
16.03.2019 18:14 12,7 °C 37 % 1009,6 hPa 0,0 mm 3,6 km/h (1 Bft) S 188 ° 0 min 0,000 mm 0,0 UV-I 11 W/m² -1,6 °C 12,7 °C 8,0 km/h (2 Bft)
16.03.2019 18:15 12,7 °C 38 % 1009,6 hPa 0,0 mm 6,4 km/h (2 Bft) S 178 ° 0 min 0,000 mm 0,0 UV-I 11 W/m² -1,2 °C 12,7 °C 8,0 km/h (2 Bft)
16.03.2019 18:16 12,6 °C 35 % 1009,7 hPa 0,0 mm 5,7 km/h (1 Bft) S 183 ° 0 min 0,000 mm 0,0 UV-I 11 W/m² -2,4 °C 12,6 °C 9,7 km/h (2 Bft)
16.03.2019 18:17 12,6 °C 35 % 1009,7 hPa 0,0 mm 6,9 km/h (2 Bft) S-SW 208 ° 0 min 0,000 mm 0,0 UV-I 9 W/m² -2,4 °C 12,6 °C 11,3 km/h (2 Bft)
16.03.2019 18:18 12,5 °C 37 % 1009,7 hPa 0,0 mm 5,4 km/h (1 Bft) SW 215 ° 0 min 0,000 mm 0,0 UV-I 9 W/m² -1,8 °C 12,5 °C 8,0 km/h (2 Bft)
16.03.2019 18:19 12,5 °C 35 % 1009,7 hPa 0,0 mm 5,6 km/h (1 Bft) S 190 ° 0 min 0,000 mm 0,0 UV-I 11 W/m² -2,5 °C 12,5 °C 9,7 km/h (2 Bft)
16.03.2019 18:20 12,4 °C 37 % 1009,6 hPa 0,0 mm 3,8 km/h (1 Bft) S-SW 198 ° 0 min 0,000 mm 0,0 UV-I 11 W/m² -1,9 °C 12,4 °C 8,0 km/h (2 Bft)
16.03.2019 18:21 12,6 °C 34 % 1009,7 hPa 0,0 mm 8,0 km/h (2 Bft) S-SW 200 ° 0 min 0,000 mm 0,0 UV-I 12 W/m² -2,8 °C 12,6 °C 11,3 km/h (2 Bft)
16.03.2019 18:22 12,7 °C 35 % 1009,7 hPa 0,0 mm 4,6 km/h (1 Bft) S-SW 201 ° 0 min 0,000 mm 0,0 UV-I 11 W/m² -2,4 °C 12,7 °C 8,0 km/h (2 Bft)
16.03.2019 18:23 12,7 °C 34 % 1009,7 hPa 0,0 mm 3,0 km/h (1 Bft) S-SW 201 ° 0 min 0,000 mm 0,0 UV-I 11 W/m² -2,7 °C 12,7 °C 4,8 km/h (1 Bft)
16.03.2019 18:24 12,7 °C 34 % 1009,8 hPa 0,0 mm 3,5 km/h (1 Bft) S-SW 213 ° 0 min 0,000 mm 0,0 UV-I 11 W/m² -2,7 °C 12,7 °C 4,8 km/h (1 Bft)
16.03.2019 18:25 12,7 °C 34 % 1009,8 hPa 0,0 mm 3,5 km/h (1 Bft) S-SW 213 ° 0 min 0,000 mm 0,0 UV-I 11 W/m² -2,7 °C 12,7 °C 4,8 km/h (1 Bft)
16.03.2019 18:26 12,7 °C 34 % 1009,8 hPa 0,0 mm 2,3 km/h (1 Bft) S-SW 213 ° 0 min 0,000 mm 0,0 UV-I 11 W/m² -2,7 °C 12,7 °C 3,2 km/h (1 Bft)
16.03.2019 18:27 12,7 °C 36 % 1009,8 hPa 0,0 mm 3,0 km/h (1 Bft) S-SW 213 ° 0 min 0,000 mm 0,0 UV-I 9 W/m² -2,0 °C 12,7 °C 3,2 km/h (1 Bft)
16.03.2019 18:28 12,6 °C 34 % 1009,8 hPa 0,0 mm 1,0 km/h (0 Bft) S-SW 213 ° 0 min 0,000 mm 0,0 UV-I 9 W/m² -2,8 °C 12,6 °C 1,6 km/h (1 Bft)
16.03.2019 18:29 12,5 °C 36 % 1009,8 hPa 0,0 mm 2,7 km/h (1 Bft) S-SW 211 ° 0 min 0,000 mm 0,0 UV-I 7 W/m² -2,2 °C 12,5 °C 4,8 km/h (1 Bft)
16.03.2019 18:30 12,4 °C 37 % 1009,8 hPa 0,0 mm 2,0 km/h (1 Bft) S-SW 211 ° 0 min 0,000 mm 0,0 UV-I 7 W/m² -1,9 °C 12,4 °C 4,8 km/h (1 Bft)
16.03.2019 18:31 12,3 °C 34 % 1009,8 hPa 0,0 mm 6,1 km/h (2 Bft) S-SW 211 ° 0 min 0,000 mm 0,0 UV-I 5 W/m² -3,1 °C 12,3 °C 8,0 km/h (2 Bft)
16.03.2019 18:32 12,4 °C 34 % 1009,8 hPa 0,0 mm 4,5 km/h (1 Bft) S-SW 201 ° 0 min 0,000 mm 0,0 UV-I 5 W/m² -3,0 °C 12,4 °C 6,4 km/h (2 Bft)
16.03.2019 18:33 12,4 °C 34 % 1009,8 hPa 0,0 mm 5,6 km/h (1 Bft) S-SW 201 ° 0 min 0,000 mm 0,0 UV-I 5 W/m² -3,0 °C 12,4 °C 8,0 km/h (2 Bft)
16.03.2019 18:34 12,4 °C 35 % 1009,8 hPa 0,0 mm 4,8 km/h (1 Bft) S-SW 201 ° 0 min 0,000 mm 0,0 UV-I 0 W/m² -2,6 °C 12,4 °C 6,4 km/h (2 Bft)
16.03.2019 18:35 12,4 °C 33 % 1009,8 hPa 0,0 mm 4,9 km/h (1 Bft) S 190 ° 0 min 0,000 mm 0,0 UV-I 0 W/m² -3,4 °C 12,4 °C 8,0 km/h (2 Bft)
16.03.2019 18:36 12,3 °C 35 % 1009,8 hPa 0,0 mm 4,5 km/h (1 Bft) S-SW 211 ° 0 min 0,000 mm 0,0 UV-I 0 W/m² -2,7 °C 12,3 °C 8,0 km/h (2 Bft)
16.03.2019 18:37 12,2 °C 35 % 1009,8 hPa 0,0 mm 4,8 km/h (1 Bft) S-SW 194 ° 0 min 0,000 mm 0,0 UV-I 0 W/m² -2,8 °C 12,2 °C 8,0 km/h (2 Bft)
16.03.2019 18:38 12,2 °C 35 % 1009,8 hPa 0,0 mm 4,6 km/h (1 Bft) S-SW 194 ° 0 min 0,000 mm 0,0 UV-I 0 W/m² -2,8 °C 12,2 °C 6,4 km/h (2 Bft)
16.03.2019 18:39 12,1 °C 38 % 1009,7 hPa 0,0 mm 3,1 km/h (1 Bft) S-SW 194 ° 0 min 0,000 mm 0,0 UV-I 0 W/m² -1,8 °C 12,1 °C 4,8 km/h (1 Bft)
16.03.2019 18:40 12,0 °C 35 % 1009,8 hPa 0,0 mm 3,4 km/h (1 Bft) S-SW 194 ° 0 min 0,000 mm 0,0 UV-I 0 W/m² -3,0 °C 12,0 °C 4,8 km/h (1 Bft)
16.03.2019 18:41 11,9 °C 36 % 1009,7 hPa 0,0 mm 5,8 km/h (2 Bft) S 180 ° 0 min 0,000 mm 0,0 UV-I 0 W/m² -2,7 °C 11,9 °C 6,4 km/h (2 Bft)
16.03.2019 18:42 11,9 °C 35 % 1009,8 hPa 0,0 mm 6,4 km/h (2 Bft) S 186 ° 0 min 0,000 mm 0,0 UV-I 0 W/m² -3,1 °C 11,9 °C 8,0 km/h (2 Bft)
16.03.2019 18:43 11,9 °C 34 % 1009,8 hPa 0,0 mm 6,7 km/h (2 Bft) S 188 ° 0 min 0,000 mm 0,0 UV-I 0 W/m² -3,4 °C 11,9 °C 8,0 km/h (2 Bft)
16.03.2019 18:44 11,9 °C 36 % 1009,8 hPa 0,0 mm 4,2 km/h (1 Bft) S 186 ° 0 min 0,000 mm 0,0 UV-I 0 W/m² -2,7 °C 11,9 °C 6,4 km/h (2 Bft)
16.03.2019 18:45 11,9 °C 37 % 1009,7 hPa 0,0 mm 3,0 km/h (1 Bft) SW 227 ° 0 min 0,000 mm 0,0 UV-I 0 W/m² -2,3 °C 11,9 °C 3,2 km/h (1 Bft)
16.03.2019 18:46 11,8 °C 36 % 1009,8 hPa 0,0 mm 1,1 km/h (1 Bft) SW 227 ° 0 min 0,000 mm 0,0 UV-I 0 W/m² -2,8 °C 11,8 °C 1,6 km/h (1 Bft)
16.03.2019 18:47 11,7 °C 36 % 1009,7 hPa 0,0 mm 0,2 km/h (0 Bft) SW 227 ° 0 min 0,000 mm 0,0 UV-I 0 W/m² -2,9 °C 11,7 °C 1,6 km/h (1 Bft)
16.03.2019 18:48 11,7 °C 36 % 1009,8 hPa 0,0 mm 1,3 km/h (1 Bft) SW 227 ° 0 min 0,000 mm 0,0 UV-I 0 W/m² -2,9 °C 11,7 °C 3,2 km/h (1 Bft)
16.03.2019 18:49 11,6 °C 38 % 1009,8 hPa 0,0 mm 1,6 km/h (1 Bft) SW 225 ° 0 min 0,000 mm 0,0 UV-I 0 W/m² -2,2 °C 11,6 °C 4,8 km/h (1 Bft)
16.03.2019 18:50 11,6 °C 36 % 1009,9 hPa 0,0 mm 3,5 km/h (1 Bft) SW 225 ° 0 min 0,000 mm 0,0 UV-I 0 W/m² -2,9 °C 11,6 °C 4,8 km/h (1 Bft)
16.03.2019 18:51 11,6 °C 38 % 1009,7 hPa 0,0 mm 3,5 km/h (1 Bft) S 175 ° 0 min 0,000 mm 0,0 UV-I 0 W/m² -2,2 °C 11,6 °C 4,8 km/h (1 Bft)
16.03.2019 18:52 11,6 °C 36 % 1009,8 hPa 0,0 mm 5,5 km/h (1 Bft) S-SW 209 ° 0 min 0,000 mm 0,0 UV-I 0 W/m² -2,9 °C 11,6 °C 8,0 km/h (2 Bft)
16.03.2019 18:53 11,6 °C 38 % 1009,7 hPa 0,0 mm 6,7 km/h (2 Bft) S-SW 193 ° 0 min 0,000 mm 0,0 UV-I 0 W/m² -2,2 °C 11,6 °C 9,7 km/h (2 Bft)
16.03.2019 18:54 11,6 °C 36 % 1009,7 hPa 0,0 mm 4,8 km/h (1 Bft) S-SW 200 ° 0 min 0,000 mm 0,0 UV-I 0 W/m² -2,9 °C 11,6 °C 9,7 km/h (2 Bft)
16.03.2019 18:55 11,4 °C 39 % 1009,8 hPa 0,0 mm 4,0 km/h (1 Bft) S-SW 200 ° 0 min 0,000 mm 0,0 UV-I 0 W/m² -2,0 °C 11,4 °C 6,4 km/h (2 Bft)
16.03.2019 18:56 11,3 °C 37 % 1009,8 hPa 0,0 mm 5,0 km/h (1 Bft) S-SW 198 ° 0 min 0,000 mm 0,0 UV-I 0 W/m² -2,8 °C 11,3 °C 8,0 km/h (2 Bft)
16.03.2019 18:57 11,3 °C 38 % 1009,8 hPa 0,0 mm 4,5 km/h (1 Bft) S-SW 198 ° 0 min 0,000 mm 0,0 UV-I 0 W/m² -2,5 °C 11,3 °C 4,8 km/h (1 Bft)
16.03.2019 18:58 11,3 °C 37 % 1009,8 hPa 0,0 mm 3,0 km/h (1 Bft) S-SW 198 ° 0 min 0,000 mm 0,0 UV-I 0 W/m² -2,8 °C 11,3 °C 6,4 km/h (2 Bft)
16.03.2019 18:59 11,2 °C 39 % 1009,8 hPa 0,0 mm 2,5 km/h (1 Bft) S-SW 198 ° 0 min 0,000 mm 0,0 UV-I 0 W/m² -2,2 °C 11,2 °C 4,8 km/h (1 Bft)
16.03.2019 19:00 10,7 °C 45 % 1009,8 hPa 0,0 mm 0,9 km/h (0 Bft) S-SW 198 ° 0 min 0,000 mm 0,0 UV-I 0 W/m² -0,7 °C 10,7 °C 3,2 km/h (1 Bft)
16.03.2019 19:01 10,3 °C 46 % 1009,8 hPa 0,0 mm 0,5 km/h (0 Bft) S-SW 198 ° 0 min 0,051 mm 0,0 UV-I 0 W/m² -0,8 °C 10,3 °C 3,2 km/h (1 Bft)
16.03.2019 19:02 9,8 °C 47 % 1009,8 hPa 0,0 mm 2,5 km/h (1 Bft) S-SW 198 ° 0 min 0,000 mm 0,0 UV-I 0 W/m² -1,0 °C 9,8 °C 3,2 km/h (1 Bft)
16.03.2019 19:03 9,7 °C 44 % 1009,7 hPa 0,0 mm 1,8 km/h (1 Bft) S-SW 198 ° 0 min 0,000 mm 0,0 UV-I 0 W/m² -2,0 °C 9,7 °C 4,8 km/h (1 Bft)
16.03.2019 19:04 9,9 °C 41 % 1009,8 hPa 0,0 mm 4,2 km/h (1 Bft) S-SW 198 ° 0 min 0,000 mm 0,0 UV-I 0 W/m² -2,7 °C 9,9 °C 6,4 km/h (2 Bft)
16.03.2019 19:05 10,1 °C 39 % 1009,8 hPa 0,0 mm 1,8 km/h (1 Bft) S-SW 198 ° 0 min 0,000 mm 0,0 UV-I 0 W/m² -3,2 °C 10,1 °C 4,8 km/h (1 Bft)
16.03.2019 19:06 10,3 °C 40 % 1009,9 hPa 0,0 mm 2,8 km/h (1 Bft) S-SW 198 ° 0 min 0,000 mm 0,0 UV-I 0 W/m² -2,7 °C 10,3 °C 4,8 km/h (1 Bft)
16.03.2019 19:07 10,6 °C 40 % 1009,9 hPa 0,0 mm 0,5 km/h (0 Bft) S-SW 198 ° 0 min 0,000 mm 0,0 UV-I 0 W/m² -2,4 °C 10,6 °C 3,2 km/h (1 Bft)
16.03.2019 19:08 10,3 °C 47 % 1009,9 hPa 0,0 mm 1,8 km/h (1 Bft) S-SW 198 ° 0 min 0,000 mm 0,0 UV-I 0 W/m² -0,5 °C 10,3 °C 3,2 km/h (1 Bft)
16.03.2019 19:09 9,9 °C 48 % 1010,0 hPa 0,0 mm 0,4 km/h (0 Bft) S-SW 198 ° 0 min 0,000 mm 0,0 UV-I 0 W/m² -0,6 °C 9,9 °C 1,6 km/h (1 Bft)
16.03.2019 19:10 9,5 °C 49 % 1009,9 hPa 0,0 mm 0,0 km/h (0 Bft) S-SW 198 ° 0 min 0,000 mm 0,0 UV-I 0 W/m² -0,7 °C 9,5 °C 0,0 km/h (0 Bft)
16.03.2019 19:11 9,2 °C 50 % 1009,9 hPa 0,0 mm 0,0 km/h (0 Bft) S-SW 198 ° 0 min 0,000 mm 0,0 UV-I 0 W/m² -0,7 °C 9,2 °C 0,0 km/h (0 Bft)
16.03.2019 19:12 9,1 °C 48 % 1010,0 hPa 0,0 mm 0,7 km/h (0 Bft) S-SW 198 ° 0 min 0,000 mm 0,0 UV-I 0 W/m² -1,3 °C 9,1 °C 3,2 km/h (1 Bft)
16.03.2019 19:13 9,2 °C 45 % 1010,0 hPa 0,0 mm 3,5 km/h (1 Bft) S-SW 198 ° 0 min 0,000 mm 0,0 UV-I 0 W/m² -2,1 °C 9,2 °C 4,8 km/h (1 Bft)
16.03.2019 19:14 9,4 °C 43 % 1009,9 hPa 0,0 mm 4,5 km/h (1 Bft) S-SW 198 ° 0 min 0,000 mm 0,0 UV-I 0 W/m² -2,5 °C 9,4 °C 6,4 km/h (2 Bft)
16.03.2019 19:15 9,7 °C 42 % 1009,9 hPa 0,0 mm 5,0 km/h (1 Bft) S-SW 198 ° 0 min 0,000 mm 0,0 UV-I 0 W/m² -2,6 °C 9,4 °C 6,4 km/h (2 Bft)
16.03.2019 19:16 9,9 °C 42 % 1009,9 hPa 0,0 mm 5,6 km/h (1 Bft) S-SW 198 ° 0 min 0,000 mm 0,0 UV-I 0 W/m² -2,4 °C 9,5 °C 8,0 km/h (2 Bft)
16.03.2019 19:17 10,2 °C 42 % 1009,8 hPa 0,0 mm 4,1 km/h (1 Bft) S-SW 198 ° 0 min 0,000 mm 0,0 UV-I 0 W/m² -2,1 °C 10,2 °C 6,4 km/h (2 Bft)
16.03.2019 19:18 10,3 °C 41 % 1009,9 hPa 0,0 mm 3,9 km/h (1 Bft) S-SW 198 ° 0 min 0,000 mm 0,0 UV-I 0 W/m² -2,4 °C 10,3 °C 4,8 km/h (1 Bft)
16.03.2019 19:19 10,4 °C 41 % 1009,9 hPa 0,0 mm 4,3 km/h (1 Bft) S-SW 198 ° 0 min 0,000 mm 0,0 UV-I 0 W/m² -2,3 °C 10,4 °C 6,4 km/h (2 Bft)
16.03.2019 19:20 10,5 °C 42 % 1009,9 hPa 0,0 mm 3,4 km/h (1 Bft) S-SW 198 ° 0 min 0,000 mm 0,0 UV-I 0 W/m² -1,9 °C 10,5 °C 4,8 km/h (1 Bft)
16.03.2019 19:21 10,4 °C 43 % 1009,9 hPa 0,0 mm 4,8 km/h (1 Bft) S-SW 198 ° 0 min 0,000 mm 0,0 UV-I 0 W/m² -1,6 °C 10,4 °C 6,4 km/h (2 Bft)
16.03.2019 19:22 10,4 °C 42 % 1009,9 hPa 0,0 mm 4,3 km/h (1 Bft) S-SW 198 ° 0 min 0,000 mm 0,0 UV-I 0 W/m² -1,9 °C 10,4 °C 6,4 km/h (2 Bft)
16.03.2019 19:23 10,4 °C 42 % 1009,9 hPa 0,0 mm 4,2 km/h (1 Bft) S-SW 198 ° 0 min 0,000 mm 0,0 UV-I 0 W/m² -1,9 °C 10,4 °C 4,8 km/h (1 Bft)
16.03.2019 19:24 10,5 °C 42 % 1009,9 hPa 0,0 mm 5,3 km/h (1 Bft) S-SW 198 ° 0 min 0,000 mm 0,0 UV-I 0 W/m² -1,9 °C 10,5 °C 6,4 km/h (2 Bft)
16.03.2019 19:25 10,6 °C 42 % 1009,9 hPa 0,0 mm 5,0 km/h (1 Bft) S-SW 198 ° 0 min 0,000 mm 0,0 UV-I 0 W/m² -1,8 °C 10,6 °C 8,0 km/h (2 Bft)
16.03.2019 19:26 10,6 °C 43 % 1009,9 hPa 0,0 mm 5,4 km/h (1 Bft) S-SW 198 ° 0 min 0,000 mm 0,0 UV-I 0 W/m² -1,4 °C 10,6 °C 6,4 km/h (2 Bft)
16.03.2019 19:27 10,6 °C 43 % 1009,9 hPa 0,0 mm 6,7 km/h (2 Bft) S-SW 192 ° 0 min 0,000 mm 0,0 UV-I 0 W/m² -1,4 °C 10,6 °C 8,0 km/h (2 Bft)
16.03.2019 19:28 10,6 °C 43 % 1009,9 hPa 0,0 mm 7,0 km/h (2 Bft) S-SW 199 ° 0 min 0,000 mm 0,0 UV-I 0 W/m² -1,4 °C 10,6 °C 8,0 km/h (2 Bft)
16.03.2019 19:29 10,6 °C 43 % 1009,8 hPa 0,0 mm 6,4 km/h (2 Bft) S-SW 197 ° 0 min 0,000 mm 0,0 UV-I 0 W/m² -1,4 °C 10,6 °C 8,0 km/h (2 Bft)
16.03.2019 19:30 10,5 °C 43 % 1009,8 hPa 0,0 mm 4,9 km/h (1 Bft) S 189 ° 0 min 0,000 mm 0,0 UV-I 0 W/m² -1,5 °C 10,5 °C 8,0 km/h (2 Bft)
16.03.2019 19:31 10,6 °C 44 % 1009,8 hPa 0,0 mm 5,8 km/h (2 Bft) S-SW 192 ° 0 min 0,000 mm 0,0 UV-I 0 W/m² -1,1 °C 10,6 °C 8,0 km/h (2 Bft)
16.03.2019 19:32 10,6 °C 44 % 1009,8 hPa 0,0 mm 5,6 km/h (1 Bft) S-SW 192 ° 0 min 0,000 mm 0,0 UV-I 0 W/m² -1,1 °C 10,6 °C 8,0 km/h (2 Bft)
16.03.2019 19:33 10,6 °C 44 % 1009,8 hPa 0,0 mm 3,8 km/h (1 Bft) S-SW 192 ° 0 min 0,000 mm 0,0 UV-I 0 W/m² -1,1 °C 10,6 °C 6,4 km/h (2 Bft)
16.03.2019 19:34 10,7 °C 45 % 1009,8 hPa 0,0 mm 3,8 km/h (1 Bft) S-SW 192 ° 0 min 0,000 mm 0,0 UV-I 0 W/m² -0,7 °C 10,7 °C 6,4 km/h (2 Bft)
16.03.2019 19:35 10,7 °C 46 % 1009,8 hPa 0,0 mm 5,6 km/h (1 Bft) S-SW 194 ° 0 min 0,000 mm 0,0 UV-I 0 W/m² -0,4 °C 10,7 °C 6,4 km/h (2 Bft)
16.03.2019 19:36 10,7 °C 45 % 1009,8 hPa 0,0 mm 3,6 km/h (1 Bft) S-SW 194 ° 0 min 0,000 mm 0,0 UV-I 0 W/m² -0,7 °C 10,7 °C 4,8 km/h (1 Bft)
16.03.2019 19:37 10,7 °C 45 % 1009,9 hPa 0,0 mm 3,2 km/h (1 Bft) S-SW 194 ° 0 min 0,000 mm 0,0 UV-I 0 W/m² -0,7 °C 10,7 °C 4,8 km/h (1 Bft)
16.03.2019 19:38 10,7 °C 45 % 1009,8 hPa 0,0 mm 4,2 km/h (1 Bft) S-SW 194 ° 0 min 0,000 mm 0,0 UV-I 0 W/m² -0,7 °C 10,7 °C 4,8 km/h (1 Bft)
16.03.2019 19:39 10,8 °C 45 % 1009,8 hPa 0,0 mm 1,2 km/h (1 Bft) S-SW 194 ° 0 min 0,000 mm 0,0 UV-I 0 W/m² -0,6 °C 10,8 °C 4,8 km/h (1 Bft)
16.03.2019 19:40 10,8 °C 45 % 1009,7 hPa 0,0 mm 3,4 km/h (1 Bft) S 191 ° 0 min 0,000 mm 0,0 UV-I 0 W/m² -0,6 °C 10,8 °C 4,8 km/h (1 Bft)
16.03.2019 19:41 10,8 °C 45 % 1009,8 hPa 0,0 mm 3,9 km/h (1 Bft) W-SW 246 ° 0 min 0,000 mm 0,0 UV-I 0 W/m² -0,6 °C 10,8 °C 6,4 km/h (2 Bft)
16.03.2019 19:42 10,8 °C 45 % 1009,8 hPa 0,0 mm 2,7 km/h (1 Bft) W-SW 246 ° 0 min 0,000 mm 0,0 UV-I 0 W/m² -0,6 °C 10,8 °C 4,8 km/h (1 Bft)
16.03.2019 19:43 10,8 °C 46 % 1009,8 hPa 0,0 mm 1,9 km/h (1 Bft) W-SW 246 ° 0 min 0,000 mm 0,0 UV-I 0 W/m² -0,3 °C 10,8 °C 3,2 km/h (1 Bft)
16.03.2019 19:44 10,8 °C 46 % 1009,8 hPa 0,0 mm 5,2 km/h (1 Bft) S-SW 211 ° 0 min 0,000 mm 0,0 UV-I 0 W/m² -0,3 °C 10,8 °C 6,4 km/h (2 Bft)
16.03.2019 19:45 10,8 °C 47 % 1009,8 hPa 0,0 mm 6,2 km/h (2 Bft) S-SW 206 ° 0 min 0,000 mm 0,0 UV-I 0 W/m² -0,1 °C 10,8 °C 8,0 km/h (2 Bft)
16.03.2019 19:46 10,8 °C 46 % 1009,7 hPa 0,0 mm 3,8 km/h (1 Bft) S-SW 206 ° 0 min 0,000 mm 0,0 UV-I 0 W/m² -0,3 °C 10,8 °C 6,4 km/h (2 Bft)
16.03.2019 19:47 10,6 °C 47 % 1009,8 hPa 0,0 mm 1,1 km/h (1 Bft) S-SW 206 ° 0 min 0,000 mm 0,0 UV-I 0 W/m² -0,2 °C 10,6 °C 3,2 km/h (1 Bft)
16.03.2019 19:48 10,3 °C 47 % 1009,8 hPa 0,0 mm 0,9 km/h (0 Bft) S-SW 206 ° 0 min 0,000 mm 0,0 UV-I 0 W/m² -0,5 °C 10,3 °C 3,2 km/h (1 Bft)
16.03.2019 19:49 10,1 °C 49 % 1009,8 hPa 0,0 mm 2,5 km/h (1 Bft) S-SW 206 ° 0 min 0,000 mm 0,0 UV-I 0 W/m² -0,1 °C 10,1 °C 4,8 km/h (1 Bft)
16.03.2019 19:50 9,9 °C 51 % 1009,8 hPa 0,0 mm 1,5 km/h (1 Bft) S-SW 201 ° 0 min 0,000 mm 0,0 UV-I 0 W/m² 0,2 °C 9,9 °C 4,8 km/h (1 Bft)
16.03.2019 19:51 9,8 °C 50 % 1009,8 hPa 0,0 mm 4,0 km/h (1 Bft) S-SW 199 ° 0 min 0,000 mm 0,0 UV-I 0 W/m² -0,1 °C 9,8 °C 6,4 km/h (2 Bft)
16.03.2019 19:52 9,8 °C 49 % 1009,8 hPa 0,0 mm 5,5 km/h (1 Bft) S-SW 203 ° 0 min 0,000 mm 0,0 UV-I 0 W/m² -0,4 °C 9,4 °C 8,0 km/h (2 Bft)
16.03.2019 19:53 9,8 °C 50 % 1009,8 hPa 0,0 mm 5,6 km/h (1 Bft) S 190 ° 0 min 0,000 mm 0,0 UV-I 0 W/m² -0,1 °C 9,4 °C 8,0 km/h (2 Bft)
16.03.2019 19:54 9,8 °C 50 % 1009,8 hPa 0,0 mm 6,2 km/h (2 Bft) S 190 ° 0 min 0,000 mm 0,0 UV-I 0 W/m² -0,1 °C 9,2 °C 9,7 km/h (2 Bft)
16.03.2019 19:55 9,8 °C 50 % 1009,7 hPa 0,0 mm 4,8 km/h (1 Bft) S 172 ° 0 min 0,000 mm 0,0 UV-I 0 W/m² -0,1 °C 9,6 °C 8,0 km/h (2 Bft)
16.03.2019 19:56 9,8 °C 50 % 1009,8 hPa 0,0 mm 3,6 km/h (1 Bft) S 172 ° 0 min 0,000 mm 0,0 UV-I 0 W/m² -0,1 °C 9,8 °C 8,0 km/h (2 Bft)
16.03.2019 19:57 9,7 °C 50 % 1009,8 hPa 0,0 mm 5,2 km/h (1 Bft) S 174 ° 0 min 0,000 mm 0,0 UV-I 0 W/m² -0,2 °C 9,4 °C 8,0 km/h (2 Bft)
16.03.2019 19:58 9,6 °C 50 % 1009,7 hPa 0,0 mm 5,1 km/h (1 Bft) S 174 ° 0 min 0,000 mm 0,0 UV-I 0 W/m² -0,3 °C 9,3 °C 8,0 km/h (2 Bft)
16.03.2019 19:59 9,6 °C 50 % 1009,8 hPa 0,0 mm 6,4 km/h (2 Bft) S 190 ° 0 min 0,000 mm 0,0 UV-I 0 W/m² -0,3 °C 8,9 °C 8,0 km/h (2 Bft)
16.03.2019 20:00 9,6 °C 51 % 1009,7 hPa 0,0 mm 4,8 km/h (1 Bft) S 185 ° 0 min 0,050 mm 0,0 UV-I 0 W/m² -0,0 °C 9,4 °C 8,0 km/h (2 Bft)
16.03.2019 20:01 9,6 °C 51 % 1009,6 hPa 0,0 mm 2,6 km/h (1 Bft) S 185 ° 0 min 0,000 mm 0,0 UV-I 0 W/m² -0,0 °C 9,6 °C 4,8 km/h (1 Bft)
16.03.2019 20:02 9,6 °C 51 % 1009,7 hPa 0,0 mm 4,1 km/h (1 Bft) S-SW 196 ° 0 min 0,000 mm 0,0 UV-I 0 W/m² -0,0 °C 9,6 °C 6,4 km/h (2 Bft)
16.03.2019 20:03 9,6 °C 51 % 1009,7 hPa 0,0 mm 5,0 km/h (1 Bft) S-SW 196 ° 0 min 0,000 mm 0,0 UV-I 0 W/m² -0,0 °C 9,3 °C 6,4 km/h (2 Bft)
16.03.2019 20:04 9,5 °C 51 % 1009,7 hPa 0,0 mm 5,4 km/h (1 Bft) S 182 ° 0 min 0,000 mm 0,0 UV-I 0 W/m² -0,1 °C 9,1 °C 8,0 km/h (2 Bft)
16.03.2019 20:05 9,5 °C 51 % 1009,6 hPa 0,0 mm 4,2 km/h (1 Bft) S 172 ° 0 min 0,000 mm 0,0 UV-I 0 W/m² -0,1 °C 9,5 °C 8,0 km/h (2 Bft)
16.03.2019 20:06 9,6 °C 50 % 1009,6 hPa 0,0 mm 4,2 km/h (1 Bft) S 181 ° 0 min 0,000 mm 0,0 UV-I 0 W/m² -0,3 °C 9,6 °C 6,4 km/h (2 Bft)
16.03.2019 20:07 9,4 °C 51 % 1009,7 hPa 0,0 mm 3,8 km/h (1 Bft) W-SW 240 ° 0 min 0,000 mm 0,0 UV-I 0 W/m² -0,2 °C 9,4 °C 6,4 km/h (2 Bft)
16.03.2019 20:08 9,3 °C 51 % 1009,7 hPa 0,0 mm 3,2 km/h (1 Bft) W-SW 250 ° 0 min 0,000 mm 0,0 UV-I 0 W/m² -0,3 °C 9,3 °C 4,8 km/h (1 Bft)
16.03.2019 20:09 9,1 °C 52 % 1009,7 hPa 0,0 mm 1,4 km/h (1 Bft) W-SW 250 ° 0 min 0,000 mm 0,0 UV-I 0 W/m² -0,2 °C 9,1 °C 3,2 km/h (1 Bft)
16.03.2019 20:10 8,6 °C 54 % 1009,7 hPa 0,0 mm 0,9 km/h (0 Bft) W-SW 250 ° 0 min 0,000 mm 0,0 UV-I 0 W/m² -0,2 °C 8,6 °C 1,6 km/h (1 Bft)
16.03.2019 20:11 8,1 °C 55 % 1009,7 hPa 0,0 mm 0,1 km/h (0 Bft) SW 234 ° 0 min 0,000 mm 0,0 UV-I 0 W/m² -0,4 °C 8,1 °C 1,6 km/h (1 Bft)
16.03.2019 20:12 7,8 °C 55 % 1009,5 hPa 0,0 mm 5,4 km/h (1 Bft) S-SO 168 ° 0 min 0,000 mm 0,0 UV-I 0 W/m² -0,7 °C 7,1 °C 8,0 km/h (2 Bft)
16.03.2019 20:13 7,8 °C 55 % 1009,5 hPa 0,0 mm 4,3 km/h (1 Bft) S-SO 167 ° 0 min 0,000 mm 0,0 UV-I 0 W/m² -0,7 °C 7,8 °C 6,4 km/h (2 Bft)
16.03.2019 20:14 7,8 °C 54 % 1009,6 hPa 0,0 mm 4,3 km/h (1 Bft) S-SW 205 ° 0 min 0,000 mm 0,0 UV-I 0 W/m² -0,9 °C 7,8 °C 8,0 km/h (2 Bft)
16.03.2019 20:15 7,9 °C 54 % 1009,6 hPa 0,0 mm 5,9 km/h (2 Bft) S-SW 197 ° 0 min 0,000 mm 0,0 UV-I 0 W/m² -0,8 °C 7,1 °C 8,0 km/h (2 Bft)
16.03.2019 20:16 8,0 °C 53 % 1009,6 hPa 0,0 mm 4,3 km/h (1 Bft) S-SW 197 ° 0 min 0,000 mm 0,0 UV-I 0 W/m² -1,0 °C 8,0 °C 6,4 km/h (2 Bft)
16.03.2019 20:17 8,1 °C 53 % 1009,5 hPa 0,0 mm 5,1 km/h (1 Bft) S 188 ° 0 min 0,000 mm 0,0 UV-I 0 W/m² -0,9 °C 7,6 °C 8,0 km/h (2 Bft)
16.03.2019 20:18 8,2 °C 52 % 1009,5 hPa 0,0 mm 4,8 km/h (1 Bft) S 190 ° 0 min 0,000 mm 0,0 UV-I 0 W/m² -1,1 °C 7,8 °C 6,4 km/h (2 Bft)
16.03.2019 20:19 8,2 °C 53 % 1009,5 hPa 0,0 mm 4,4 km/h (1 Bft) S 188 ° 0 min 0,000 mm 0,0 UV-I 0 W/m² -0,8 °C 8,2 °C 6,4 km/h (2 Bft)
16.03.2019 20:20 8,2 °C 52 % 1009,4 hPa 0,0 mm 2,1 km/h (1 Bft) S 188 ° 0 min 0,000 mm 0,0 UV-I 0 W/m² -1,1 °C 8,2 °C 4,8 km/h (1 Bft)
16.03.2019 20:21 8,1 °C 52 % 1009,5 hPa 0,0 mm 0,8 km/h (0 Bft) S 188 ° 0 min 0,000 mm 0,0 UV-I 0 W/m² -1,2 °C 8,1 °C 3,2 km/h (1 Bft)
16.03.2019 20:22 7,8 °C 53 % 1009,6 hPa 0,0 mm 1,1 km/h (1 Bft) N-NW 334 ° 0 min 0,000 mm 0,0 UV-I 0 W/m² -1,2 °C 7,8 °C 4,8 km/h (1 Bft)
16.03.2019 20:23 7,4 °C 56 % 1009,6 hPa 0,0 mm 4,1 km/h (1 Bft) N-NW 334 ° 0 min 0,000 mm 0,0 UV-I 0 W/m² -0,8 °C 7,4 °C 4,8 km/h (1 Bft)
16.03.2019 20:24 6,8 °C 60 % 1009,6 hPa 0,0 mm 0,9 km/h (0 Bft) N-NW 334 ° 0 min 0,000 mm 0,0 UV-I 0 W/m² -0,4 °C 6,8 °C 3,2 km/h (1 Bft)
16.03.2019 20:25 6,4 °C 62 % 1009,6 hPa 0,0 mm 0,1 km/h (0 Bft) N-NW 334 ° 0 min 0,000 mm 0,0 UV-I 0 W/m² -0,3 °C 6,4 °C 1,6 km/h (1 Bft)
16.03.2019 20:26 5,9 °C 64 % 1009,7 hPa 0,0 mm 0,0 km/h (0 Bft) N-NW 334 ° 0 min 0,000 mm 0,0 UV-I 0 W/m² -0,4 °C 5,9 °C 0,0 km/h (0 Bft)
16.03.2019 20:27 5,7 °C 65 % 1009,7 hPa 0,0 mm 3,6 km/h (1 Bft) O-SO 118 ° 0 min 0,000 mm 0,0 UV-I 0 W/m² -0,4 °C 5,7 °C 4,8 km/h (1 Bft)
16.03.2019 20:28 5,6 °C 66 % 1009,5 hPa 0,0 mm 4,3 km/h (1 Bft) O-SO 118 ° 0 min 0,000 mm 0,0 UV-I 0 W/m² -0,2 °C 5,6 °C 6,4 km/h (2 Bft)
16.03.2019 20:29 5,7 °C 66 % 1009,5 hPa 0,0 mm 3,4 km/h (1 Bft) O-SO 118 ° 0 min 0,000 mm 0,0 UV-I 0 W/m² -0,1 °C 5,7 °C 4,8 km/h (1 Bft)
16.03.2019 20:30 5,8 °C 62 % 1009,5 hPa 0,0 mm 3,0 km/h (1 Bft) O-SO 118 ° 0 min 0,000 mm 0,0 UV-I 0 W/m² -0,9 °C 5,8 °C 4,8 km/h (1 Bft)
16.03.2019 20:31 5,9 °C 62 % 1009,5 hPa 0,0 mm 2,7 km/h (1 Bft) O-SO 118 ° 0 min 0,000 mm 0,0 UV-I 0 W/m² -0,8 °C 5,9 °C 3,2 km/h (1 Bft)
16.03.2019 20:32 5,9 °C 61 % 1009,5 hPa 0,0 mm 5,6 km/h (1 Bft) S 171 ° 0 min 0,000 mm 0,0 UV-I 0 W/m² -1,0 °C 4,9 °C 8,0 km/h (2 Bft)
16.03.2019 20:33 6,0 °C 60 % 1009,5 hPa 0,0 mm 6,3 km/h (2 Bft) S 171 ° 0 min 0,000 mm 0,0 UV-I 0 W/m² -1,2 °C 4,8 °C 6,4 km/h (2 Bft)
16.03.2019 20:34 6,2 °C 59 % 1009,5 hPa 0,0 mm 4,5 km/h (1 Bft) S 171 ° 0 min 0,000 mm 0,0 UV-I 0 W/m² -1,2 °C 6,2 °C 8,0 km/h (2 Bft)
16.03.2019 20:35 6,3 °C 59 % 1009,4 hPa 0,0 mm 5,5 km/h (1 Bft) S 171 ° 0 min 0,000 mm 0,0 UV-I 0 W/m² -1,1 °C 5,4 °C 8,0 km/h (2 Bft)
16.03.2019 20:36 6,3 °C 60 % 1009,5 hPa 0,0 mm 4,1 km/h (1 Bft) S-SW 194 ° 0 min 0,000 mm 0,0 UV-I 0 W/m² -0,9 °C 6,3 °C 6,4 km/h (2 Bft)
16.03.2019 20:37 6,3 °C 58 % 1009,4 hPa 0,0 mm 4,3 km/h (1 Bft) S 191 ° 0 min 0,000 mm 0,0 UV-I 0 W/m² -1,3 °C 6,3 °C 6,4 km/h (2 Bft)
16.03.2019 20:38 6,4 °C 58 % 1009,4 hPa 0,0 mm 5,1 km/h (1 Bft) S 186 ° 0 min 0,000 mm 0,0 UV-I 0 W/m² -1,2 °C 5,6 °C 8,0 km/h (2 Bft)
16.03.2019 20:39 6,6 °C 57 % 1009,3 hPa 0,0 mm 4,9 km/h (1 Bft) S 186 ° 0 min 0,000 mm 0,0 UV-I 0 W/m² -1,3 °C 5,9 °C 6,4 km/h (2 Bft)
16.03.2019 20:40 6,7 °C 56 % 1009,4 hPa 0,0 mm 4,3 km/h (1 Bft) S 186 ° 0 min 0,000 mm 0,0 UV-I 0 W/m² -1,4 °C 6,7 °C 6,4 km/h (2 Bft)
16.03.2019 20:41 6,8 °C 56 % 1009,3 hPa 0,0 mm 3,8 km/h (1 Bft) S 186 ° 0 min 0,000 mm 0,0 UV-I 0 W/m² -1,4 °C 6,8 °C 6,4 km/h (2 Bft)
16.03.2019 20:42 6,8 °C 58 % 1009,4 hPa 0,0 mm 5,1 km/h (1 Bft) NW 309 ° 0 min 0,000 mm 0,0 UV-I 0 W/m² -0,9 °C 6,1 °C 6,4 km/h (2 Bft)
16.03.2019 20:43 6,6 °C 60 % 1009,5 hPa 0,0 mm 1,3 km/h (1 Bft) NW 309 ° 0 min 0,000 mm 0,0 UV-I 0 W/m² -0,6 °C 6,6 °C 3,2 km/h (1 Bft)
16.03.2019 20:44 6,3 °C 61 % 1009,4 hPa 0,0 mm 3,2 km/h (1 Bft) S 175 ° 0 min 0,000 mm 0,0 UV-I 0 W/m² -0,7 °C 6,3 °C 4,8 km/h (1 Bft)
16.03.2019 20:45 6,0 °C 61 % 1009,4 hPa 0,0 mm 3,7 km/h (1 Bft) S 175 ° 0 min 0,000 mm 0,0 UV-I 0 W/m² -0,9 °C 6,0 °C 4,8 km/h (1 Bft)
16.03.2019 20:46 5,8 °C 62 % 1009,4 hPa 0,0 mm 2,1 km/h (1 Bft) S 175 ° 0 min 0,000 mm 0,0 UV-I 0 W/m² -0,9 °C 5,8 °C 3,2 km/h (1 Bft)
16.03.2019 20:47 5,8 °C 62 % 1009,4 hPa 0,0 mm 1,2 km/h (1 Bft) S 175 ° 0 min 0,000 mm 0,0 UV-I 0 W/m² -0,9 °C 5,8 °C 3,2 km/h (1 Bft)
16.03.2019 20:48 5,8 °C 59 % 1009,4 hPa 0,0 mm 0,3 km/h (0 Bft) S 175 ° 0 min 0,000 mm 0,0 UV-I 0 W/m² -1,6 °C 5,8 °C 1,6 km/h (1 Bft)
16.03.2019 20:49 6,1 °C 58 % 1009,5 hPa 0,0 mm 4,4 km/h (1 Bft) S 180 ° 0 min 0,000 mm 0,0 UV-I 0 W/m² -1,5 °C 6,1 °C 9,7 km/h (2 Bft)
16.03.2019 20:50 6,3 °C 57 % 1009,4 hPa 0,0 mm 7,3 km/h (2 Bft) S 185 ° 0 min 0,000 mm 0,0 UV-I 0 W/m² -1,6 °C 4,8 °C 9,7 km/h (2 Bft)
16.03.2019 20:51 6,6 °C 55 % 1009,4 hPa 0,0 mm 3,6 km/h (1 Bft) S 186 ° 0 min 0,000 mm 0,0 UV-I 0 W/m² -1,8 °C 6,6 °C 6,4 km/h (2 Bft)
16.03.2019 20:52 6,9 °C 55 % 1009,4 hPa 0,0 mm 1,3 km/h (1 Bft) S 186 ° 0 min 0,000 mm 0,0 UV-I 0 W/m² -1,5 °C 6,9 °C 4,8 km/h (1 Bft)
16.03.2019 20:53 7,1 °C 57 % 1009,4 hPa 0,0 mm 0,9 km/h (0 Bft) S 186 ° 0 min 0,000 mm 0,0 UV-I 0 W/m² -0,8 °C 7,1 °C 3,2 km/h (1 Bft)
16.03.2019 20:54 7,1 °C 56 % 1009,4 hPa 0,0 mm 0,8 km/h (0 Bft) S 186 ° 0 min 0,000 mm 0,0 UV-I 0 W/m² -1,1 °C 7,1 °C 1,6 km/h (1 Bft)
16.03.2019 20:55 7,2 °C 55 % 1009,4 hPa 0,0 mm 4,8 km/h (1 Bft) S-SW 206 ° 0 min 0,000 mm 0,0 UV-I 0 W/m² -1,2 °C 6,7 °C 6,4 km/h (2 Bft)
16.03.2019 20:56 7,4 °C 55 % 1009,4 hPa 0,0 mm 3,3 km/h (1 Bft) SW 215 ° 0 min 0,000 mm 0,0 UV-I 0 W/m² -1,0 °C 7,4 °C 8,0 km/h (2 Bft)
16.03.2019 20:57 7,7 °C 55 % 1009,4 hPa 0,0 mm 3,8 km/h (1 Bft) S 186 ° 0 min 0,000 mm 0,0 UV-I 0 W/m² -0,8 °C 7,7 °C 8,0 km/h (2 Bft)
16.03.2019 20:58 7,8 °C 54 % 1009,4 hPa 0,0 mm 0,3 km/h (0 Bft) S 186 ° 0 min 0,000 mm 0,0 UV-I 0 W/m² -0,9 °C 7,8 °C 1,6 km/h (1 Bft)
16.03.2019 20:59 7,7 °C 55 % 1009,4 hPa 0,0 mm 3,6 km/h (1 Bft) S 188 ° 0 min 0,000 mm 0,0 UV-I 0 W/m² -0,8 °C 7,7 °C 4,8 km/h (1 Bft)
16.03.2019 21:00 7,9 °C 55 % 1009,4 hPa 0,0 mm 4,6 km/h (1 Bft) S 190 ° 0 min 0,000 mm 0,0 UV-I 0 W/m² -0,6 °C 7,5 °C 8,0 km/h (2 Bft)
16.03.2019 21:01 8,1 °C 55 % 1009,4 hPa 0,0 mm 4,0 km/h (1 Bft) S 191 ° 0 min 0,026 mm 0,0 UV-I 0 W/m² -0,4 °C 8,1 °C 6,4 km/h (2 Bft)
16.03.2019 21:02 8,3 °C 55 % 1009,4 hPa 0,0 mm 4,2 km/h (1 Bft) S-SW 192 ° 0 min 0,000 mm 0,0 UV-I 0 W/m² -0,2 °C 8,3 °C 6,4 km/h (2 Bft)
16.03.2019 21:03 8,4 °C 55 % 1009,4 hPa 0,0 mm 6,2 km/h (2 Bft) SW 214 ° 0 min 0,000 mm 0,0 UV-I 0 W/m² -0,1 °C 7,6 °C 8,0 km/h (2 Bft)
16.03.2019 21:04 8,6 °C 55 % 1009,4 hPa 0,0 mm 4,1 km/h (1 Bft) SW 224 ° 0 min 0,000 mm 0,0 UV-I 0 W/m² 0,1 °C 8,6 °C 4,8 km/h (1 Bft)
16.03.2019 21:05 8,7 °C 55 % 1009,4 hPa 0,0 mm 6,0 km/h (2 Bft) S 185 ° 0 min 0,000 mm 0,0 UV-I 0 W/m² 0,2 °C 8,0 °C 8,0 km/h (2 Bft)
16.03.2019 21:06 8,9 °C 55 % 1009,4 hPa 0,0 mm 5,5 km/h (1 Bft) S-SW 207 ° 0 min 0,000 mm 0,0 UV-I 0 W/m² 0,4 °C 8,4 °C 9,7 km/h (2 Bft)
16.03.2019 21:07 9,1 °C 54 % 1009,4 hPa 0,0 mm 3,4 km/h (1 Bft) S-SW 205 ° 0 min 0,000 mm 0,0 UV-I 0 W/m² 0,3 °C 9,1 °C 8,0 km/h (2 Bft)
16.03.2019 21:08 9,1 °C 55 % 1009,4 hPa 0,0 mm 0,0 km/h (0 Bft) S-SW 205 ° 0 min 0,000 mm 0,0 UV-I 0 W/m² 0,5 °C 9,1 °C 0,0 km/h (0 Bft)
16.03.2019 21:09 9,1 °C 55 % 1009,3 hPa 0,0 mm 2,4 km/h (1 Bft) S-SW 205 ° 0 min 0,000 mm 0,0 UV-I 0 W/m² 0,5 °C 9,1 °C 4,8 km/h (1 Bft)
16.03.2019 21:10 9,1 °C 55 % 1009,4 hPa 0,0 mm 3,4 km/h (1 Bft) S-SW 205 ° 0 min 0,000 mm 0,0 UV-I 0 W/m² 0,5 °C 9,1 °C 6,4 km/h (2 Bft)
16.03.2019 21:11 9,1 °C 55 % 1009,4 hPa 0,0 mm 0,7 km/h (0 Bft) S-SW 205 ° 0 min 0,000 mm 0,0 UV-I 0 W/m² 0,5 °C 9,1 °C 3,2 km/h (1 Bft)
16.03.2019 21:12 9,2 °C 55 % 1009,4 hPa 0,0 mm 4,8 km/h (1 Bft) W-SW 244 ° 0 min 0,000 mm 0,0 UV-I 0 W/m² 0,6 °C 8,9 °C 8,0 km/h (2 Bft)
16.03.2019 21:13 9,3 °C 54 % 1009,3 hPa 0,0 mm 0,3 km/h (0 Bft) W-SW 244 ° 0 min 0,000 mm 0,0 UV-I 0 W/m² 0,5 °C 9,3 °C 1,6 km/h (1 Bft)
16.03.2019 21:14 9,2 °C 54 % 1009,4 hPa 0,0 mm 2,1 km/h (1 Bft) S 183 ° 0 min 0,000 mm 0,0 UV-I 0 W/m² 0,4 °C 9,2 °C 8,0 km/h (2 Bft)
16.03.2019 21:15 9,2 °C 54 % 1009,3 hPa 0,0 mm 7,5 km/h (2 Bft) S-SW 198 ° 0 min 0,000 mm 0,0 UV-I 0 W/m² 0,4 °C 8,2 °C 11,3 km/h (2 Bft)
16.03.2019 21:16 9,3 °C 54 % 1009,3 hPa 0,0 mm 7,2 km/h (2 Bft) SW 226 ° 0 min 0,000 mm 0,0 UV-I 0 W/m² 0,5 °C 8,4 °C 9,7 km/h (2 Bft)
16.03.2019 21:17 9,3 °C 54 % 1009,4 hPa 0,0 mm 5,1 km/h (1 Bft) S-SW 205 ° 0 min 0,000 mm 0,0 UV-I 0 W/m² 0,5 °C 8,9 °C 6,4 km/h (2 Bft)
16.03.2019 21:18 9,3 °C 55 % 1009,4 hPa 0,0 mm 6,0 km/h (2 Bft) S-SW 192 ° 0 min 0,000 mm 0,0 UV-I 0 W/m² 0,7 °C 8,7 °C 8,0 km/h (2 Bft)
16.03.2019 21:19 9,3 °C 55 % 1009,3 hPa 0,0 mm 6,2 km/h (2 Bft) S 183 ° 0 min 0,000 mm 0,0 UV-I 0 W/m² 0,7 °C 8,6 °C 8,0 km/h (2 Bft)
16.03.2019 21:20 9,2 °C 55 % 1009,3 hPa 0,0 mm 6,9 km/h (2 Bft) S 180 ° 0 min 0,000 mm 0,0 UV-I 0 W/m² 0,6 °C 8,3 °C 9,7 km/h (2 Bft)
16.03.2019 21:21 9,3 °C 54 % 1009,3 hPa 0,0 mm 8,1 km/h (2 Bft) S-SW 206 ° 0 min 0,000 mm 0,0 UV-I 0 W/m² 0,5 °C 8,2 °C 11,3 km/h (2 Bft)
16.03.2019 21:22 9,2 °C 54 % 1009,4 hPa 0,0 mm 7,4 km/h (2 Bft) SW 223 ° 0 min 0,000 mm 0,0 UV-I 0 W/m² 0,4 °C 8,2 °C 11,3 km/h (2 Bft)
16.03.2019 21:23 9,1 °C 54 % 1009,4 hPa 0,0 mm 3,9 km/h (1 Bft) W-SW 257 ° 0 min 0,000 mm 0,0 UV-I 0 W/m² 0,3 °C 9,1 °C 6,4 km/h (2 Bft)
16.03.2019 21:24 9,1 °C 54 % 1009,4 hPa 0,0 mm 6,0 km/h (2 Bft) S-SW 199 ° 0 min 0,000 mm 0,0 UV-I 0 W/m² 0,3 °C 8,4 °C 11,3 km/h (2 Bft)
16.03.2019 21:25 9,1 °C 54 % 1009,3 hPa 0,0 mm 7,3 km/h (2 Bft) S-SW 197 ° 0 min 0,000 mm 0,0 UV-I 0 W/m² 0,3 °C 8,1 °C 9,7 km/h (2 Bft)
16.03.2019 21:26 9,0 °C 54 % 1009,2 hPa 0,0 mm 6,1 km/h (2 Bft) S 188 ° 0 min 0,000 mm 0,0 UV-I 0 W/m² 0,2 °C 8,3 °C 9,7 km/h (2 Bft)
16.03.2019 21:27 8,9 °C 54 % 1009,2 hPa 0,0 mm 6,6 km/h (2 Bft) S-SW 192 ° 0 min 0,000 mm 0,0 UV-I 0 W/m² 0,1 °C 8,0 °C 8,0 km/h (2 Bft)
16.03.2019 21:28 8,9 °C 54 % 1009,4 hPa 0,0 mm 7,6 km/h (2 Bft) S-SW 205 ° 0 min 0,000 mm 0,0 UV-I 0 W/m² 0,1 °C 7,8 °C 9,7 km/h (2 Bft)
16.03.2019 21:29 8,9 °C 54 % 1009,2 hPa 0,0 mm 7,0 km/h (2 Bft) SW 223 ° 0 min 0,000 mm 0,0 UV-I 0 W/m² 0,1 °C 7,9 °C 9,7 km/h (2 Bft)
16.03.2019 21:30 8,8 °C 54 % 1009,2 hPa 0,0 mm 9,5 km/h (2 Bft) SW 221 ° 0 min 0,000 mm 0,0 UV-I 0 W/m² 0,0 °C 7,3 °C 12,9 km/h (3 Bft)
16.03.2019 21:31 8,7 °C 54 % 1009,3 hPa 0,0 mm 8,5 km/h (2 Bft) S-SW 211 ° 0 min 0,000 mm 0,0 UV-I 0 W/m² -0,1 °C 7,4 °C 12,9 km/h (3 Bft)
16.03.2019 21:32 8,6 °C 53 % 1009,2 hPa 0,0 mm 7,9 km/h (2 Bft) S-SW 202 ° 0 min 0,000 mm 0,0 UV-I 0 W/m² -0,4 °C 7,4 °C 11,3 km/h (2 Bft)
16.03.2019 21:33 8,6 °C 54 % 1009,3 hPa 0,0 mm 9,3 km/h (2 Bft) S-SW 198 ° 0 min 0,000 mm 0,0 UV-I 0 W/m² -0,2 °C 7,1 °C 11,3 km/h (2 Bft)
16.03.2019 21:34 8,5 °C 53 % 1009,3 hPa 0,0 mm 8,4 km/h (2 Bft) S-SW 210 ° 0 min 0,000 mm 0,0 UV-I 0 W/m² -0,5 °C 7,2 °C 12,9 km/h (3 Bft)
16.03.2019 21:35 8,4 °C 54 % 1009,3 hPa 0,0 mm 7,5 km/h (2 Bft) S-SW 198 ° 0 min 0,000 mm 0,0 UV-I 0 W/m² -0,4 °C 7,2 °C 12,9 km/h (3 Bft)
16.03.2019 21:36 8,4 °C 54 % 1009,3 hPa 0,0 mm 9,7 km/h (2 Bft) S-SW 193 ° 0 min 0,000 mm 0,0 UV-I 0 W/m² -0,4 °C 6,8 °C 16,1 km/h (3 Bft)
16.03.2019 21:37 8,4 °C 53 % 1009,3 hPa 0,0 mm 11,4 km/h (2 Bft) S 191 ° 0 min 0,000 mm 0,0 UV-I 0 W/m² -0,6 °C 6,5 °C 14,5 km/h (3 Bft)
16.03.2019 21:38 8,3 °C 53 % 1009,3 hPa 0,0 mm 11,3 km/h (2 Bft) S 174 ° 0 min 0,000 mm 0,0 UV-I 0 W/m² -0,7 °C 6,4 °C 12,9 km/h (3 Bft)
16.03.2019 21:39 8,3 °C 53 % 1009,3 hPa 0,0 mm 10,3 km/h (2 Bft) S-SW 195 ° 0 min 0,000 mm 0,0 UV-I 0 W/m² -0,7 °C 6,5 °C 14,5 km/h (3 Bft)
16.03.2019 21:40 8,3 °C 53 % 1009,3 hPa 0,0 mm 10,9 km/h (2 Bft) S-SW 195 ° 0 min 0,000 mm 0,0 UV-I 0 W/m² -0,7 °C 6,4 °C 12,9 km/h (3 Bft)
16.03.2019 21:41 8,3 °C 53 % 1009,3 hPa 0,0 mm 10,8 km/h (2 Bft) SW 216 ° 0 min 0,000 mm 0,0 UV-I 0 W/m² -0,7 °C 6,5 °C 17,7 km/h (3 Bft)
16.03.2019 21:42 8,2 °C 53 % 1009,3 hPa 0,0 mm 8,0 km/h (2 Bft) SW 220 ° 0 min 0,000 mm 0,0 UV-I 0 W/m² -0,8 °C 6,9 °C 11,3 km/h (2 Bft)
16.03.2019 21:43 8,2 °C 53 % 1009,3 hPa 0,0 mm 10,4 km/h (2 Bft) W-SW 257 ° 0 min 0,000 mm 0,0 UV-I 0 W/m² -0,8 °C 6,4 °C 12,9 km/h (3 Bft)
16.03.2019 21:44 8,2 °C 53 % 1009,3 hPa 0,0 mm 8,2 km/h (2 Bft) S-SW 192 ° 0 min 0,000 mm 0,0 UV-I 0 W/m² -0,8 °C 6,8 °C 11,3 km/h (2 Bft)
16.03.2019 21:45 8,1 °C 53 % 1009,3 hPa 0,0 mm 10,4 km/h (2 Bft) S-SW 195 ° 0 min 0,000 mm 0,0 UV-I 0 W/m² -0,9 °C 6,3 °C 16,1 km/h (3 Bft)
16.03.2019 21:46 8,1 °C 53 % 1009,3 hPa 0,0 mm 9,9 km/h (2 Bft) S-SW 199 ° 0 min 0,000 mm 0,0 UV-I 0 W/m² -0,9 °C 6,4 °C 12,9 km/h (3 Bft)
16.03.2019 21:47 8,2 °C 52 % 1009,3 hPa 0,0 mm 10,3 km/h (2 Bft) S-SW 194 ° 0 min 0,000 mm 0,0 UV-I 0 W/m² -1,1 °C 6,4 °C 16,1 km/h (3 Bft)
16.03.2019 21:48 8,3 °C 52 % 1009,3 hPa 0,0 mm 7,5 km/h (2 Bft) SW 234 ° 0 min 0,000 mm 0,0 UV-I 0 W/m² -1,0 °C 7,1 °C 14,5 km/h (3 Bft)
16.03.2019 21:49 8,2 °C 53 % 1009,2 hPa 0,0 mm 11,2 km/h (2 Bft) SW 217 ° 0 min 0,000 mm 0,0 UV-I 0 W/m² -0,8 °C 6,3 °C 16,1 km/h (3 Bft)
16.03.2019 21:50 8,2 °C 52 % 1009,2 hPa 0,0 mm 11,6 km/h (2 Bft) S 183 ° 0 min 0,000 mm 0,0 UV-I 0 W/m² -1,1 °C 6,2 °C 14,5 km/h (3 Bft)
16.03.2019 21:51 8,2 °C 52 % 1009,2 hPa 0,0 mm 7,7 km/h (2 Bft) S 181 ° 0 min 0,000 mm 0,0 UV-I 0 W/m² -1,1 °C 7,0 °C 11,3 km/h (2 Bft)
16.03.2019 21:52 8,2 °C 52 % 1009,2 hPa 0,0 mm 8,9 km/h (2 Bft) S-SW 203 ° 0 min 0,000 mm 0,0 UV-I 0 W/m² -1,1 °C 6,7 °C 12,9 km/h (3 Bft)
16.03.2019 21:53 8,0 °C 53 % 1009,3 hPa 0,0 mm 5,5 km/h (1 Bft) S-SW 194 ° 0 min 0,000 mm 0,0 UV-I 0 W/m² -1,0 °C 7,3 °C 9,7 km/h (2 Bft)
16.03.2019 21:54 7,8 °C 54 % 1009,2 hPa 0,0 mm 10,3 km/h (2 Bft) S 190 ° 0 min 0,000 mm 0,0 UV-I 0 W/m² -0,9 °C 5,9 °C 12,9 km/h (3 Bft)
16.03.2019 21:55 7,6 °C 54 % 1009,2 hPa 0,0 mm 8,0 km/h (2 Bft) S-SW 193 ° 0 min 0,000 mm 0,0 UV-I 0 W/m² -1,1 °C 6,2 °C 9,7 km/h (2 Bft)
16.03.2019 21:56 7,6 °C 53 % 1009,1 hPa 0,0 mm 7,5 km/h (2 Bft) S 179 ° 0 min 0,000 mm 0,0 UV-I 0 W/m² -1,4 °C 6,3 °C 11,3 km/h (2 Bft)
16.03.2019 21:57 7,6 °C 53 % 1009,1 hPa 0,0 mm 12,0 km/h (2 Bft) SW 218 ° 0 min 0,000 mm 0,0 UV-I 0 W/m² -1,4 °C 5,4 °C 19,3 km/h (3 Bft)
16.03.2019 21:58 7,6 °C 54 % 1009,1 hPa 0,0 mm 7,5 km/h (2 Bft) SW 215 ° 0 min 0,000 mm 0,0 UV-I 0 W/m² -1,1 °C 6,3 °C 11,3 km/h (2 Bft)
16.03.2019 21:59 7,7 °C 52 % 1009,1 hPa 0,0 mm 9,3 km/h (2 Bft) W-SW 242 ° 0 min 0,000 mm 0,0 UV-I 0 W/m² -1,5 °C 6,0 °C 17,7 km/h (3 Bft)
16.03.2019 22:00 7,8 °C 52 % 1009,1 hPa 0,0 mm 8,4 km/h (2 Bft) S-SW 211 ° 0 min 0,000 mm 0,0 UV-I 0 W/m² -1,4 °C 6,3 °C 11,3 km/h (2 Bft)
16.03.2019 22:01 7,9 °C 51 % 1009,1 hPa 0,0 mm 8,7 km/h (2 Bft) S 187 ° 0 min 0,051 mm 0,0 UV-I 0 W/m² -1,6 °C 6,4 °C 12,9 km/h (3 Bft)
16.03.2019 22:02 8,1 °C 51 % 1009,1 hPa 0,0 mm 8,1 km/h (2 Bft) S-SW 211 ° 0 min 0,000 mm 0,0 UV-I 0 W/m² -1,4 °C 6,8 °C 12,9 km/h (3 Bft)
16.03.2019 22:03 8,1 °C 51 % 1009,0 hPa 0,0 mm 7,6 km/h (2 Bft) S 182 ° 0 min 0,000 mm 0,0 UV-I 0 W/m² -1,4 °C 6,9 °C 14,5 km/h (3 Bft)
16.03.2019 22:04 8,1 °C 51 % 1009,0 hPa 0,0 mm 9,5 km/h (2 Bft) S-SW 192 ° 0 min 0,000 mm 0,0 UV-I 0 W/m² -1,4 °C 6,5 °C 14,5 km/h (3 Bft)
16.03.2019 22:05 8,1 °C 51 % 1009,0 hPa 0,0 mm 6,3 km/h (2 Bft) S-SW 198 ° 0 min 0,000 mm 0,0 UV-I 0 W/m² -1,4 °C 7,2 °C 11,3 km/h (2 Bft)
16.03.2019 22:06 8,1 °C 50 % 1009,0 hPa 0,0 mm 9,1 km/h (2 Bft) S-SW 210 ° 0 min 0,000 mm 0,0 UV-I 0 W/m² -1,7 °C 6,5 °C 11,3 km/h (2 Bft)
16.03.2019 22:07 8,1 °C 51 % 1009,0 hPa 0,0 mm 5,6 km/h (1 Bft) S-SW 203 ° 0 min 0,000 mm 0,0 UV-I 0 W/m² -1,4 °C 7,4 °C 8,0 km/h (2 Bft)
16.03.2019 22:08 8,0 °C 51 % 1009,0 hPa 0,0 mm 6,6 km/h (2 Bft) S-SW 205 ° 0 min 0,000 mm 0,0 UV-I 0 W/m² -1,5 °C 7,0 °C 9,7 km/h (2 Bft)
16.03.2019 22:09 7,9 °C 52 % 1009,1 hPa 0,0 mm 4,3 km/h (1 Bft) S 178 ° 0 min 0,000 mm 0,0 UV-I 0 W/m² -1,3 °C 7,9 °C 6,4 km/h (2 Bft)
16.03.2019 22:10 7,7 °C 53 % 1009,0 hPa 0,0 mm 4,2 km/h (1 Bft) S-SW 202 ° 0 min 0,000 mm 0,0 UV-I 0 W/m² -1,3 °C 7,7 °C 6,4 km/h (2 Bft)
16.03.2019 22:11 7,5 °C 53 % 1009,0 hPa 0,0 mm 3,2 km/h (1 Bft) S-SW 202 ° 0 min 0,000 mm 0,0 UV-I 0 W/m² -1,4 °C 7,5 °C 4,8 km/h (1 Bft)
16.03.2019 22:12 7,3 °C 54 % 1009,1 hPa 0,0 mm 4,7 km/h (1 Bft) S 190 ° 0 min 0,000 mm 0,0 UV-I 0 W/m² -1,4 °C 6,8 °C 8,0 km/h (2 Bft)
16.03.2019 22:13 7,2 °C 53 % 1009,0 hPa 0,0 mm 2,7 km/h (1 Bft) S 190 ° 0 min 0,000 mm 0,0 UV-I 0 W/m² -1,7 °C 7,2 °C 4,8 km/h (1 Bft)
16.03.2019 22:14 7,2 °C 53 % 1009,0 hPa 0,0 mm 5,5 km/h (1 Bft) S 179 ° 0 min 0,000 mm 0,0 UV-I 0 W/m² -1,7 °C 6,4 °C 8,0 km/h (2 Bft)
16.03.2019 22:15 7,0 °C 55 % 1009,0 hPa 0,0 mm 4,6 km/h (1 Bft) S 188 ° 0 min 0,000 mm 0,0 UV-I 0 W/m² -1,4 °C 6,5 °C 8,0 km/h (2 Bft)
16.03.2019 22:16 6,8 °C 56 % 1009,1 hPa 0,0 mm 4,3 km/h (1 Bft) S 188 ° 0 min 0,000 mm 0,0 UV-I 0 W/m² -1,4 °C 6,8 °C 8,0 km/h (2 Bft)
16.03.2019 22:17 6,6 °C 56 % 1009,1 hPa 0,0 mm 4,6 km/h (1 Bft) S 184 ° 0 min 0,000 mm 0,0 UV-I 0 W/m² -1,5 °C 6,0 °C 6,4 km/h (2 Bft)
16.03.2019 22:18 6,4 °C 58 % 1009,1 hPa 0,0 mm 3,0 km/h (1 Bft) S 184 ° 0 min 0,000 mm 0,0 UV-I 0 W/m² -1,2 °C 6,4 °C 6,4 km/h (2 Bft)
16.03.2019 22:19 6,2 °C 59 % 1009,1 hPa 0,0 mm 0,5 km/h (0 Bft) S 184 ° 0 min 0,000 mm 0,0 UV-I 0 W/m² -1,2 °C 6,2 °C 3,2 km/h (1 Bft)
16.03.2019 22:20 5,8 °C 60 % 1009,1 hPa 0,0 mm 3,5 km/h (1 Bft) S 182 ° 0 min 0,000 mm 0,0 UV-I 0 W/m² -1,4 °C 5,8 °C 4,8 km/h (1 Bft)
16.03.2019 22:21 5,7 °C 59 % 1009,0 hPa 0,0 mm 4,3 km/h (1 Bft) S 185 ° 0 min 0,000 mm 0,0 UV-I 0 W/m² -1,7 °C 5,7 °C 6,4 km/h (2 Bft)
16.03.2019 22:22 5,7 °C 60 % 1009,0 hPa 0,0 mm 1,7 km/h (1 Bft) S 184 ° 0 min 0,000 mm 0,0 UV-I 0 W/m² -1,4 °C 5,7 °C 4,8 km/h (1 Bft)
16.03.2019 22:23 5,4 °C 61 % 1009,1 hPa 0,0 mm 2,1 km/h (1 Bft) S 184 ° 0 min 0,000 mm 0,0 UV-I 0 W/m² -1,5 °C 5,4 °C 3,2 km/h (1 Bft)
16.03.2019 22:24 5,2 °C 61 % 1009,1 hPa 0,0 mm 0,6 km/h (0 Bft) S 184 ° 0 min 0,000 mm 0,0 UV-I 0 W/m² -1,7 °C 5,2 °C 1,6 km/h (1 Bft)
16.03.2019 22:25 4,9 °C 61 % 1009,1 hPa 0,0 mm 2,1 km/h (1 Bft) S 183 ° 0 min 0,000 mm 0,0 UV-I 0 W/m² -2,0 °C 4,9 °C 4,8 km/h (1 Bft)
16.03.2019 22:26 4,7 °C 62 % 1009,1 hPa 0,0 mm 2,7 km/h (1 Bft) S 183 ° 0 min 0,000 mm 0,0 UV-I 0 W/m² -1,9 °C 4,7 °C 4,8 km/h (1 Bft)
16.03.2019 22:27 4,6 °C 65 % 1009,1 hPa 0,0 mm 4,1 km/h (1 Bft) S 183 ° 0 min 0,000 mm 0,0 UV-I 0 W/m² -1,4 °C 4,6 °C 6,4 km/h (2 Bft)
16.03.2019 22:28 4,6 °C 66 % 1009,0 hPa 0,0 mm 5,2 km/h (1 Bft) S 183 ° 0 min 0,000 mm 0,0 UV-I 0 W/m² -1,2 °C 3,6 °C 6,4 km/h (2 Bft)
16.03.2019 22:29 4,7 °C 65 % 1009,0 hPa 0,0 mm 4,0 km/h (1 Bft) S 183 ° 0 min 0,000 mm 0,0 UV-I 0 W/m² -1,3 °C 4,7 °C 6,4 km/h (2 Bft)
16.03.2019 22:30 4,8 °C 63 % 1009,0 hPa 0,0 mm 0,9 km/h (0 Bft) S 183 ° 0 min 0,000 mm 0,0 UV-I 0 W/m² -1,6 °C 4,8 °C 3,2 km/h (1 Bft)
16.03.2019 22:31 4,7 °C 65 % 1009,1 hPa 0,0 mm 0,0 km/h (0 Bft) S 183 ° 0 min 0,000 mm 0,0 UV-I 0 W/m² -1,3 °C 4,7 °C 0,0 km/h (0 Bft)
16.03.2019 22:32 4,4 °C 65 % 1009,1 hPa 0,0 mm 0,0 km/h (0 Bft) S 183 ° 0 min 0,000 mm 0,0 UV-I 0 W/m² -1,6 °C 4,4 °C 0,0 km/h (0 Bft)
16.03.2019 22:33 4,3 °C 67 % 1009,0 hPa 0,0 mm 0,1 km/h (0 Bft) S 183 ° 0 min 0,000 mm 0,0 UV-I 0 W/m² -1,3 °C 4,3 °C 1,6 km/h (1 Bft)
16.03.2019 22:34 4,2 °C 67 % 1009,0 hPa 0,0 mm 0,3 km/h (0 Bft) S 183 ° 0 min 0,000 mm 0,0 UV-I 0 W/m² -1,4 °C 4,2 °C 1,6 km/h (1 Bft)
16.03.2019 22:35 4,2 °C 67 % 1009,0 hPa 0,0 mm 0,0 km/h (0 Bft) S 183 ° 0 min 0,000 mm 0,0 UV-I 0 W/m² -1,4 °C 4,2 °C 0,0 km/h (0 Bft)
16.03.2019 22:36 4,2 °C 66 % 1009,0 hPa 0,0 mm 0,0 km/h (0 Bft) S 183 ° 0 min 0,000 mm 0,0 UV-I 0 W/m² -1,6 °C 4,2 °C 0,0 km/h (0 Bft)
16.03.2019 22:37 4,1 °C 67 % 1009,0 hPa 0,0 mm 0,0 km/h (0 Bft) S 183 ° 0 min 0,000 mm 0,0 UV-I 0 W/m² -1,5 °C 4,1 °C 0,0 km/h (0 Bft)
16.03.2019 22:38 4,0 °C 67 % 1009,0 hPa 0,0 mm 0,0 km/h (0 Bft) S 183 ° 0 min 0,000 mm 0,0 UV-I 0 W/m² -1,6 °C 4,0 °C 0,0 km/h (0 Bft)
16.03.2019 22:39 3,9 °C 67 % 1009,0 hPa 0,0 mm 0,0 km/h (0 Bft) S 183 ° 0 min 0,000 mm 0,0 UV-I 0 W/m² -1,7 °C 3,9 °C 0,0 km/h (0 Bft)
16.03.2019 22:40 3,8 °C 67 % 1009,0 hPa 0,0 mm 0,0 km/h (0 Bft) S 183 ° 0 min 0,000 mm 0,0 UV-I 0 W/m² -1,8 °C 3,8 °C 0,0 km/h (0 Bft)
16.03.2019 22:41 3,7 °C 68 % 1009,0 hPa 0,0 mm 0,0 km/h (0 Bft) S 183 ° 0 min 0,000 mm 0,0 UV-I 0 W/m² -1,6 °C 3,7 °C 0,0 km/h (0 Bft)
16.03.2019 22:42 3,5 °C 68 % 1008,9 hPa 0,0 mm 0,0 km/h (0 Bft) S 183 ° 0 min 0,000 mm 0,0 UV-I 0 W/m² -1,8 °C 3,5 °C 0,0 km/h (0 Bft)
16.03.2019 22:43 3,4 °C 69 % 1009,0 hPa 0,0 mm 0,0 km/h (0 Bft) S 183 ° 0 min 0,000 mm 0,0 UV-I 0 W/m² -1,7 °C 3,4 °C 0,0 km/h (0 Bft)
16.03.2019 22:44 3,3 °C 69 % 1009,0 hPa 0,0 mm 0,0 km/h (0 Bft) S 183 ° 0 min 0,000 mm 0,0 UV-I 0 W/m² -1,8 °C 3,3 °C 0,0 km/h (0 Bft)
16.03.2019 22:45 3,2 °C 70 % 1009,0 hPa 0,0 mm 0,0 km/h (0 Bft) S 183 ° 0 min 0,000 mm 0,0 UV-I 0 W/m² -1,7 °C 3,2 °C 0,0 km/h (0 Bft)
16.03.2019 22:46 3,2 °C 70 % 1009,0 hPa 0,0 mm 0,0 km/h (0 Bft) S 183 ° 0 min 0,000 mm 0,0 UV-I 0 W/m² -1,7 °C 3,2 °C 0,0 km/h (0 Bft)
16.03.2019 22:47 3,2 °C 70 % 1009,0 hPa 0,0 mm 0,0 km/h (0 Bft) S 183 ° 0 min 0,000 mm 0,0 UV-I 0 W/m² -1,7 °C 3,2 °C 0,0 km/h (0 Bft)
16.03.2019 22:48 3,3 °C 70 % 1009,0 hPa 0,0 mm 0,0 km/h (0 Bft) S 183 ° 0 min 0,000 mm 0,0 UV-I 0 W/m² -1,6 °C 3,3 °C 0,0 km/h (0 Bft)
16.03.2019 22:49 3,3 °C 69 % 1008,9 hPa 0,0 mm 0,0 km/h (0 Bft) S 183 ° 0 min 0,000 mm 0,0 UV-I 0 W/m² -1,8 °C 3,3 °C 0,0 km/h (0 Bft)
16.03.2019 22:50 3,5 °C 68 % 1008,9 hPa 0,0 mm 0,0 km/h (0 Bft) S 183 ° 0 min 0,000 mm 0,0 UV-I 0 W/m² -1,8 °C 3,5 °C 0,0 km/h (0 Bft)
16.03.2019 22:51 3,5 °C 68 % 1008,9 hPa 0,0 mm 0,0 km/h (0 Bft) S 183 ° 0 min 0,000 mm 0,0 UV-I 0 W/m² -1,8 °C 3,5 °C 0,0 km/h (0 Bft)
16.03.2019 22:52 3,6 °C 68 % 1009,0 hPa 0,0 mm 0,0 km/h (0 Bft) S 183 ° 0 min 0,000 mm 0,0 UV-I 0 W/m² -1,7 °C 3,6 °C 0,0 km/h (0 Bft)
16.03.2019 22:53 3,4 °C 69 % 1008,9 hPa 0,0 mm 1,5 km/h (1 Bft) S 183 ° 0 min 0,000 mm 0,0 UV-I 0 W/m² -1,7 °C 3,4 °C 1,6 km/h (1 Bft)
16.03.2019 22:54 3,2 °C 70 % 1008,9 hPa 0,0 mm 1,1 km/h (1 Bft) S 183 ° 0 min 0,000 mm 0,0 UV-I 0 W/m² -1,7 °C 3,2 °C 3,2 km/h (1 Bft)
16.03.2019 22:55 3,1 °C 70 % 1009,0 hPa 0,0 mm 0,0 km/h (0 Bft) S 183 ° 0 min 0,000 mm 0,0 UV-I 0 W/m² -1,8 °C 3,1 °C 0,0 km/h (0 Bft)
16.03.2019 22:56 2,9 °C 71 % 1008,9 hPa 0,0 mm 0,0 km/h (0 Bft) S 183 ° 0 min 0,000 mm 0,0 UV-I 0 W/m² -1,8 °C 2,9 °C 0,0 km/h (0 Bft)
16.03.2019 22:57 2,8 °C 71 % 1008,9 hPa 0,0 mm 0,0 km/h (0 Bft) S 183 ° 0 min 0,000 mm 0,0 UV-I 0 W/m² -1,9 °C 2,8 °C 0,0 km/h (0 Bft)
16.03.2019 22:58 2,8 °C 71 % 1008,9 hPa 0,0 mm 0,0 km/h (0 Bft) S 183 ° 0 min 0,000 mm 0,0 UV-I 0 W/m² -1,9 °C 2,8 °C 0,0 km/h (0 Bft)
16.03.2019 22:59 2,8 °C 71 % 1008,9 hPa 0,0 mm 0,0 km/h (0 Bft) S 183 ° 0 min 0,000 mm 0,0 UV-I 0 W/m² -1,9 °C 2,8 °C 0,0 km/h (0 Bft)
16.03.2019 23:00 2,9 °C 71 % 1008,9 hPa 0,0 mm 0,0 km/h (0 Bft) S 183 ° 0 min 0,000 mm 0,0 UV-I 0 W/m² -1,8 °C 2,9 °C 0,0 km/h (0 Bft)
16.03.2019 23:01 2,9 °C 71 % 1008,9 hPa 0,0 mm 0,0 km/h (0 Bft) S 183 ° 0 min 0,025 mm 0,0 UV-I 0 W/m² -1,8 °C 2,9 °C 0,0 km/h (0 Bft)
16.03.2019 23:02 3,0 °C 71 % 1008,9 hPa 0,0 mm 0,0 km/h (0 Bft) S 183 ° 0 min 0,000 mm 0,0 UV-I 0 W/m² -1,7 °C 3,0 °C 0,0 km/h (0 Bft)
16.03.2019 23:03 2,9 °C 71 % 1008,9 hPa 0,0 mm 0,0 km/h (0 Bft) S 183 ° 0 min 0,000 mm 0,0 UV-I 0 W/m² -1,8 °C 2,9 °C 0,0 km/h (0 Bft)
16.03.2019 23:04 2,9 °C 71 % 1008,9 hPa 0,0 mm 0,0 km/h (0 Bft) S 183 ° 0 min 0,000 mm 0,0 UV-I 0 W/m² -1,8 °C 2,9 °C 0,0 km/h (0 Bft)
16.03.2019 23:05 2,8 °C 71 % 1008,9 hPa 0,0 mm 0,0 km/h (0 Bft) S 183 ° 0 min 0,000 mm 0,0 UV-I 0 W/m² -1,9 °C 2,8 °C 0,0 km/h (0 Bft)
16.03.2019 23:06 2,7 °C 72 % 1008,9 hPa 0,0 mm 0,0 km/h (0 Bft) S 183 ° 0 min 0,000 mm 0,0 UV-I 0 W/m² -1,8 °C 2,7 °C 0,0 km/h (0 Bft)
16.03.2019 23:07 2,7 °C 72 % 1008,8 hPa 0,0 mm 0,0 km/h (0 Bft) S 183 ° 0 min 0,000 mm 0,0 UV-I 0 W/m² -1,8 °C 2,7 °C 0,0 km/h (0 Bft)
16.03.2019 23:08 2,7 °C 71 % 1008,8 hPa 0,0 mm 1,4 km/h (1 Bft) S 183 ° 0 min 0,000 mm 0,0 UV-I 0 W/m² -2,0 °C 2,7 °C 3,2 km/h (1 Bft)
16.03.2019 23:09 2,8 °C 70 % 1008,8 hPa 0,0 mm 0,0 km/h (0 Bft) S 183 ° 0 min 0,000 mm 0,0 UV-I 0 W/m² -2,1 °C 2,8 °C 0,0 km/h (0 Bft)
16.03.2019 23:10 3,0 °C 69 % 1008,8 hPa 0,0 mm 1,8 km/h (1 Bft) S 183 ° 0 min 0,000 mm 0,0 UV-I 0 W/m² -2,1 °C 3,0 °C 3,2 km/h (1 Bft)
16.03.2019 23:11 3,3 °C 67 % 1008,8 hPa 0,0 mm 0,0 km/h (0 Bft) S 183 ° 0 min 0,000 mm 0,0 UV-I 0 W/m² -2,2 °C 3,3 °C 0,0 km/h (0 Bft)
16.03.2019 23:12 3,3 °C 67 % 1008,8 hPa 0,0 mm 0,0 km/h (0 Bft) S 183 ° 0 min 0,000 mm 0,0 UV-I 0 W/m² -2,2 °C 3,3 °C 0,0 km/h (0 Bft)
16.03.2019 23:13 3,3 °C 68 % 1008,7 hPa 0,0 mm 0,0 km/h (0 Bft) S 183 ° 0 min 0,000 mm 0,0 UV-I 0 W/m² -2,0 °C 3,3 °C 0,0 km/h (0 Bft)
16.03.2019 23:14 3,2 °C 69 % 1008,8 hPa 0,0 mm 0,0 km/h (0 Bft) S 183 ° 0 min 0,000 mm 0,0 UV-I 0 W/m² -1,9 °C 3,2 °C 0,0 km/h (0 Bft)
16.03.2019 23:15 3,1 °C 69 % 1008,7 hPa 0,0 mm 0,0 km/h (0 Bft) S 183 ° 0 min 0,000 mm 0,0 UV-I 0 W/m² -2,0 °C 3,1 °C 0,0 km/h (0 Bft)
16.03.2019 23:16 3,1 °C 69 % 1008,7 hPa 0,0 mm 0,0 km/h (0 Bft) S 183 ° 0 min 0,000 mm 0,0 UV-I 0 W/m² -2,0 °C 3,1 °C 0,0 km/h (0 Bft)
16.03.2019 23:17 3,1 °C 69 % 1008,8 hPa 0,0 mm 1,2 km/h (1 Bft) S 183 ° 0 min 0,000 mm 0,0 UV-I 0 W/m² -2,0 °C 3,1 °C 3,2 km/h (1 Bft)
16.03.2019 23:18 3,1 °C 69 % 1008,8 hPa 0,0 mm 1,3 km/h (1 Bft) S 183 ° 0 min 0,000 mm 0,0 UV-I 0 W/m² -2,0 °C 3,1 °C 1,6 km/h (1 Bft)
16.03.2019 23:19 2,9 °C 69 % 1008,8 hPa 0,0 mm 0,0 km/h (0 Bft) S 183 ° 0 min 0,000 mm 0,0 UV-I 0 W/m² -2,2 °C 2,9 °C 0,0 km/h (0 Bft)
16.03.2019 23:20 2,8 °C 70 % 1008,8 hPa 0,0 mm 0,0 km/h (0 Bft) S 183 ° 0 min 0,000 mm 0,0 UV-I 0 W/m² -2,1 °C 2,8 °C 0,0 km/h (0 Bft)
16.03.2019 23:21 2,8 °C 70 % 1008,8 hPa 0,0 mm 0,0 km/h (0 Bft) S 183 ° 0 min 0,000 mm 0,0 UV-I 0 W/m² -2,1 °C 2,8 °C 0,0 km/h (0 Bft)
16.03.2019 23:22 2,7 °C 70 % 1008,8 hPa 0,0 mm 0,0 km/h (0 Bft) S 183 ° 0 min 0,000 mm 0,0 UV-I 0 W/m² -2,2 °C 2,7 °C 0,0 km/h (0 Bft)
16.03.2019 23:23 2,7 °C 70 % 1008,8 hPa 0,0 mm 0,0 km/h (0 Bft) S 183 ° 0 min 0,000 mm 0,0 UV-I 0 W/m² -2,2 °C 2,7 °C 0,0 km/h (0 Bft)
16.03.2019 23:24 2,6 °C 70 % 1008,8 hPa 0,0 mm 0,0 km/h (0 Bft) S 183 ° 0 min 0,000 mm 0,0 UV-I 0 W/m² -2,3 °C 2,6 °C 0,0 km/h (0 Bft)
16.03.2019 23:25 2,6 °C 71 % 1008,8 hPa 0,0 mm 0,0 km/h (0 Bft) S 183 ° 0 min 0,000 mm 0,0 UV-I 0 W/m² -2,1 °C 2,6 °C 0,0 km/h (0 Bft)
16.03.2019 23:26 2,6 °C 71 % 1008,7 hPa 0,0 mm 0,0 km/h (0 Bft) S 183 ° 0 min 0,000 mm 0,0 UV-I 0 W/m² -2,1 °C 2,6 °C 0,0 km/h (0 Bft)
16.03.2019 23:27 2,5 °C 71 % 1008,7 hPa 0,0 mm 0,0 km/h (0 Bft) S 183 ° 0 min 0,000 mm 0,0 UV-I 0 W/m² -2,2 °C 2,5 °C 0,0 km/h (0 Bft)
16.03.2019 23:28 2,5 °C 71 % 1008,7 hPa 0,0 mm 0,0 km/h (0 Bft) S 183 ° 0 min 0,000 mm 0,0 UV-I 0 W/m² -2,2 °C 2,5 °C 0,0 km/h (0 Bft)
16.03.2019 23:29 2,5 °C 71 % 1008,7 hPa 0,0 mm 0,0 km/h (0 Bft) S 183 ° 0 min 0,000 mm 0,0 UV-I 0 W/m² -2,2 °C 2,5 °C 0,0 km/h (0 Bft)
16.03.2019 23:30 2,5 °C 70 % 1008,6 hPa 0,0 mm 0,0 km/h (0 Bft) S 183 ° 0 min 0,000 mm 0,0 UV-I 0 W/m² -2,4 °C 2,5 °C 0,0 km/h (0 Bft)
16.03.2019 23:31 2,5 °C 70 % 1008,7 hPa 0,0 mm 0,0 km/h (0 Bft) S 183 ° 0 min 0,000 mm 0,0 UV-I 0 W/m² -2,4 °C 2,5 °C 0,0 km/h (0 Bft)
16.03.2019 23:32 2,4 °C 70 % 1008,6 hPa 0,0 mm 0,0 km/h (0 Bft) S 183 ° 0 min 0,000 mm 0,0 UV-I 0 W/m² -2,5 °C 2,4 °C 0,0 km/h (0 Bft)
16.03.2019 23:33 2,4 °C 71 % 1008,6 hPa 0,0 mm 0,0 km/h (0 Bft) S 183 ° 0 min 0,000 mm 0,0 UV-I 0 W/m² -2,3 °C 2,4 °C 0,0 km/h (0 Bft)
16.03.2019 23:34 2,5 °C 70 % 1008,6 hPa 0,0 mm 0,0 km/h (0 Bft) S 183 ° 0 min 0,000 mm 0,0 UV-I 0 W/m² -2,4 °C 2,5 °C 0,0 km/h (0 Bft)
16.03.2019 23:35 2,5 °C 70 % 1008,6 hPa 0,0 mm 0,0 km/h (0 Bft) S 183 ° 0 min 0,000 mm 0,0 UV-I 0 W/m² -2,4 °C 2,5 °C 0,0 km/h (0 Bft)
16.03.2019 23:36 2,4 °C 70 % 1008,7 hPa 0,0 mm 0,4 km/h (0 Bft) S 183 ° 0 min 0,000 mm 0,0 UV-I 0 W/m² -2,5 °C 2,4 °C 3,2 km/h (1 Bft)
16.03.2019 23:37 2,4 °C 70 % 1008,6 hPa 0,0 mm 2,6 km/h (1 Bft) S 183 ° 0 min 0,000 mm 0,0 UV-I 0 W/m² -2,5 °C 2,4 °C 4,8 km/h (1 Bft)
16.03.2019 23:38 2,4 °C 70 % 1008,7 hPa 0,0 mm 1,7 km/h (1 Bft) S 184 ° 0 min 0,000 mm 0,0 UV-I 0 W/m² -2,5 °C 2,4 °C 3,2 km/h (1 Bft)
16.03.2019 23:39 2,4 °C 70 % 1008,7 hPa 0,0 mm 0,1 km/h (0 Bft) S 184 ° 0 min 0,000 mm 0,0 UV-I 0 W/m² -2,5 °C 2,4 °C 1,6 km/h (1 Bft)
16.03.2019 23:40 2,4 °C 70 % 1008,7 hPa 0,0 mm 0,5 km/h (0 Bft) S 184 ° 0 min 0,000 mm 0,0 UV-I 0 W/m² -2,5 °C 2,4 °C 3,2 km/h (1 Bft)
16.03.2019 23:41 2,4 °C 70 % 1008,6 hPa 0,0 mm 2,4 km/h (1 Bft) S 184 ° 0 min 0,000 mm 0,0 UV-I 0 W/m² -2,5 °C 2,4 °C 3,2 km/h (1 Bft)
16.03.2019 23:42 2,4 °C 70 % 1008,6 hPa 0,0 mm 0,4 km/h (0 Bft) S 184 ° 0 min 0,000 mm 0,0 UV-I 0 W/m² -2,5 °C 2,4 °C 1,6 km/h (1 Bft)
16.03.2019 23:43 2,4 °C 71 % 1008,6 hPa 0,0 mm 0,0 km/h (0 Bft) S 184 ° 0 min 0,000 mm 0,0 UV-I 0 W/m² -2,3 °C 2,4 °C 0,0 km/h (0 Bft)
16.03.2019 23:44 2,4 °C 71 % 1008,6 hPa 0,0 mm 0,0 km/h (0 Bft) S 184 ° 0 min 0,000 mm 0,0 UV-I 0 W/m² -2,3 °C 2,4 °C 0,0 km/h (0 Bft)
16.03.2019 23:45 2,3 °C 71 % 1008,6 hPa 0,0 mm 0,0 km/h (0 Bft) S 184 ° 0 min 0,000 mm 0,0 UV-I 0 W/m² -2,4 °C 2,3 °C 0,0 km/h (0 Bft)
16.03.2019 23:46 2,3 °C 71 % 1008,6 hPa 0,0 mm 0,0 km/h (0 Bft) S 184 ° 0 min 0,000 mm 0,0 UV-I 0 W/m² -2,4 °C 2,3 °C 0,0 km/h (0 Bft)
16.03.2019 23:47 2,2 °C 71 % 1008,6 hPa 0,0 mm 0,0 km/h (0 Bft) S 184 ° 0 min 0,000 mm 0,0 UV-I 0 W/m² -2,5 °C 2,2 °C 0,0 km/h (0 Bft)
16.03.2019 23:48 2,2 °C 71 % 1008,6 hPa 0,0 mm 0,0 km/h (0 Bft) S 184 ° 0 min 0,000 mm 0,0 UV-I 0 W/m² -2,5 °C 2,2 °C 0,0 km/h (0 Bft)
16.03.2019 23:49 2,2 °C 71 % 1008,6 hPa 0,0 mm 0,0 km/h (0 Bft) S 184 ° 0 min 0,000 mm 0,0 UV-I 0 W/m² -2,5 °C 2,2 °C 0,0 km/h (0 Bft)
16.03.2019 23:50 2,2 °C 71 % 1008,6 hPa 0,0 mm 0,0 km/h (0 Bft) S 184 ° 0 min 0,000 mm 0,0 UV-I 0 W/m² -2,5 °C 2,2 °C 0,0 km/h (0 Bft)
16.03.2019 23:51 2,2 °C 71 % 1008,6 hPa 0,0 mm 0,0 km/h (0 Bft) S 184 ° 0 min 0,000 mm 0,0 UV-I 0 W/m² -2,5 °C 2,2 °C 0,0 km/h (0 Bft)
16.03.2019 23:52 2,3 °C 70 % 1008,6 hPa 0,0 mm 0,9 km/h (0 Bft) S 184 ° 0 min 0,000 mm 0,0 UV-I 0 W/m² -2,6 °C 2,3 °C 3,2 km/h (1 Bft)
16.03.2019 23:53 2,4 °C 70 % 1008,5 hPa 0,0 mm 3,2 km/h (1 Bft) S 184 ° 0 min 0,000 mm 0,0 UV-I 0 W/m² -2,5 °C 2,4 °C 4,8 km/h (1 Bft)
16.03.2019 23:54 2,6 °C 70 % 1008,5 hPa 0,0 mm 3,0 km/h (1 Bft) S 184 ° 0 min 0,000 mm 0,0 UV-I 0 W/m² -2,3 °C 2,6 °C 4,8 km/h (1 Bft)
16.03.2019 23:55 2,8 °C 68 % 1008,5 hPa 0,0 mm 1,9 km/h (1 Bft) S 184 ° 0 min 0,000 mm 0,0 UV-I 0 W/m² -2,5 °C 2,8 °C 3,2 km/h (1 Bft)
16.03.2019 23:56 3,1 °C 67 % 1008,5 hPa 0,0 mm 2,1 km/h (1 Bft) S 184 ° 0 min 0,000 mm 0,0 UV-I 0 W/m² -2,4 °C 3,1 °C 3,2 km/h (1 Bft)
16.03.2019 23:57 3,2 °C 67 % 1008,5 hPa 0,0 mm 4,5 km/h (1 Bft) S 184 ° 0 min 0,000 mm 0,0 UV-I 0 W/m² -2,3 °C 3,2 °C 6,4 km/h (2 Bft)
16.03.2019 23:58 3,3 °C 67 % 1008,4 hPa 0,0 mm 5,0 km/h (1 Bft) S 184 ° 0 min 0,000 mm 0,0 UV-I 0 W/m² -2,2 °C 2,2 °C 8,0 km/h (2 Bft)
16.03.2019 23:59 3,4 °C 66 % 1008,4 hPa 0,0 mm 4,8 km/h (1 Bft) S 184 ° 0 min 0,000 mm 0,0 UV-I 0 W/m² -2,3 °C 2,4 °C 8,0 km/h (2 Bft)
_ Min-Zeit 23:51 15:59 23:59 - 23:51 - - - - - - 15:59 23:58 23:51
Minimum _ 2,2 °C 21 % 1008,4 hPa - 0,0 km/h (0 Bft) - - - - - - -6,4 °C 2,2 °C 0,0 km/h (0 Bft)
_ Max-Zeit 15:23 00:51 09:55 23:59 06:15 - - 14:44 16:01 13:52 13:48 13:41 15:23 06:15
Maximum _ 16,4 °C 78 % 1015,0 hPa 0,0 mm 38,1 km/h
W (5 Bft)
- - 1 min 0,407 mm 4,7 UV-I 925 W/m² 6,2 °C 16,4 °C 56,3 km/h
W-SW (7 Bft)
Durchschnitt _ 10,0 °C 59 % 1012,2 hPa #0,0 mm 14,2 km/h (3 Bft) W - #2:40 h #3,556 mm 2,6 UV-I 174 W/m² 1,6 °C 8,7 °C 21,4 km/h (4 Bft)